     2              OBSERVATION DATA    GPS                 RINEX VERSION / TYPE
teqc 2002Apr3 20060908 21:02:21UTC                          PGM / RUN BY / DATE
                                                            COMMENT
L2: 1 -> 1; 150 -> 5; 250 -> 9                              COMMENT
L2: 1 -> 1; 150 -> 5; 250 -> 9                              COMMENT
L2: 1 -> 1; 150 -> 5; 250 -> 9                              COMMENT
L2: 1 -> 1; 150 -> 5; 250 -> 9                              COMMENT
L2: 1 -> 1; 150 -> 5; 250 -> 9                              COMMENT
Original Marker Name: COW3                                  COMMENT
Campaign Name: UCSD Rose 2005-2006                          COMMENT
4-Character Station Name: COW3                              COMMENT
6-Character Antenna Code: DMRCHT                            COMMENT
Vertical Measurement Point: BPA                             COMMENT
Vertical Offset to Rinex Ref. Point: 0.0000                 COMMENT
Radial Measurement Point: RRP                               COMMENT
Radial Offset to Rinex Ref. Point: 0.0000                   COMMENT
Antenna Height from Field Measurement: 0.8900 m             COMMENT
Additional Antenna Identification Info.:                    COMMENT
Turborogue and Ashtech Choke Ring                           COMMENT
Original XYZ: 0.0000 0.0000 0.0000                          COMMENT
New XYZ position is based on association with SCEC monument COMMENT
E1C8P6R3+0031. Position of that monument is believed to be  COMMENT
valid to within 1 m horizontally; vertical accuracy         COMMENT
should be no worse than 3-times this value.                 COMMENT
                                                            COMMENT
Revised Rinex header created by UCSD GPS archive for        COMMENT
GSAC on 09-Jun-2007 (2007:160) 17:14:21 GMT                 COMMENT
For assistance contact dagnew@ucsd.edu                      COMMENT
or anderson@python.ucsd.edu                                 COMMENT
                                                            COMMENT
COW3 1998                                                   MARKER NAME
-Unknown- SCRIPPS INSTITUTION OF OCEANOGRAPHY               OBSERVER / AGENCY
312 ASHTECH Z-XII3 CC00                                     REC # / TYPE / VERS
636 DORNE-MARGOL. TYPE T                                    ANT # / TYPE
 -2438851.0000 -4779893.0000  3436765.0000                  APPROX POSITION XYZ
        0.8900        0.0000        0.0000                  ANTENNA: DELTA H/E/N
     1     1     0                                          WAVELENGTH FACT L1/2
     7    C1    L1    L2    P1    P2    S1    S2            # / TYPES OF OBSERV
    30                                                      INTERVAL
  2006     8    30    17    28   30.000000                  TIME OF FIRST OBS
  2006     8    30    22    46   30.000000                  TIME OF LAST OBS
                                                            END OF HEADER
 06  8 30 17 28 30.0000000  0  4G 1G25G23G20
  23101011.6924    -161286.09959   -111481.41045  23101010.9034   23101017.6674
       215.0004        156.0004
                    -71633.66559    -52645.21043
       220.0004         74.0004
  20929988.0934    -388203.00259   -274807.53047  20929987.6114   20929989.4114
       237.0004        196.0004
  20082657.8284    -260669.51259   -177058.64147  20082657.3864   20082661.5934
       235.0004        207.0004
 06  8 30 17 29  0.0000000  0  5G 1G25G23G20G13
  23389911.4304    -218529.92549   -156087.01945  23389911.3614   23389916.5814
       216.0004        157.0004
  23346718.3554    -103897.07349    -77785.58945  23346718.2234   23346722.1284
       222.0004        157.0004
  21200421.0354    -542486.78949   -395028.65247  21200420.5544   21200422.6924
       236.0004        197.0004
  20361848.5594    -368933.56649   -261420.23747  20361847.8064   20361851.9154
       236.0004        208.0004
  23226746.5124    -546576.91559   -380334.53045  23226746.1984   23226751.0294
       217.0004        147.0004
 06  8 30 17 29 30.0000000  0  6G 1G25G23G20G16G13
  23284642.6144    -771723.20249   -587146.73745  23284642.7774   23284647.8114
       217.0004        158.0004
  23246182.7844    -632213.79749   -489460.96946  23246182.7034   23246187.9384
       221.0004        164.0004
  21076690.0474   -1192697.87549   -901686.62447  21076689.9114   21076691.7344
       236.0004        198.0004
  20246955.0424    -972702.95549   -731889.87947  20246954.3854   20246958.4704
       235.0004        208.0004
  21285180.2684    -797524.17559   -594252.71347  21285179.6774   21285183.5584
       236.0004        194.0004
  23097676.9274   -1224839.91749   -908851.10645  23097676.8514   23097682.7704
       214.0004        152.0004
 06  8 30 17 30  0.0000000  0  6G 1G25G23G20G16G13
  23295386.9644    -715262.42649   -543151.34145  23295386.2304   23295392.3924
       216.0004        158.0004
  23261640.4644    -550983.83249   -426164.90646  23261640.7214   23261645.3494
       218.0004        165.0004
  21068977.8224   -1233226.77249   -933267.56847  21068977.6304   21068979.5654
       236.0004        197.0004
  20248159.9894    -966371.30949   -726956.11847  20248159.4014   20248163.5564
       235.0004        208.0004
  21282522.6714    -811488.78849   -605134.20747  21282522.1664   21282525.8834
       237.0004        195.0004
  23084603.3024   -1293542.92949   -962385.88945  23084604.4014   23084607.3564
       216.0004        154.0004
 06  8 30 17 30 30.0000000  0  6G 1G25G23G20G16G13
  23306156.0864    -658670.40649   -499053.69645  23306155.8544   23306161.4384
       216.0004        157.0004
  23277102.4454    -469731.08449   -362851.10046  23277102.1574   23277106.9334
       219.0004        166.0004
  21061295.6924   -1273596.87649   -964724.78047  21061295.2694   21061296.8814
       236.0004        198.0004
  20249474.7274    -959462.37449   -721572.52147  20249473.9614   20249478.2084
       235.0004        208.0004
  21279978.3204    -824859.69849   -615553.09147  21279977.8284   21279981.8394
       237.0004        196.0004
  23071536.7804   -1362209.55949  -1015892.30545  23071536.5984   23071540.7214
       215.0004        154.0004
 06  8 30 17 31  0.0000000  0  6G 1G25G23G20G16G13
  23316949.0934    -601952.55949   -454857.98745  23316948.9224   23316954.0434
       213.0004        155.0004
  23292567.3024    -388463.09249   -299525.42146  23292567.4614   23292572.0604
       218.0004        165.0004
  21053642.7864   -1313813.34149   -996062.26647  21053642.4674   21053644.1864
       236.0004        198.0004
  20250898.3264    -951981.28649   -715743.09447  20250897.5254   20250901.7474
       235.0004        208.0004
  21277545.9264    -837642.30749   -625513.55247  21277545.4324   21277549.1404
       237.0004        196.0004
  23058475.6874   -1430845.33849  -1069374.68345  23058475.0304   23058479.9074
       216.0004        154.0004
 06  8 30 17 31 30.0000000  0  7G 1G25G23G20G16G24G13
  23327766.1744    -545108.14949   -410563.65945  23327765.9744   23327770.3464
       213.0004        154.0004
  23308034.8654    -307180.71449   -236188.52746  23308034.6534   23308039.0034
       218.0004        164.0004
  21046019.3604   -1353874.82549  -1027278.99447  21046019.0144   21046020.8504
       236.0004        198.0004
  20252430.8974    -943927.52749   -709467.43147  20252430.2144   20252434.3374
       235.0004        208.0004
  21275225.6364    -849835.38649   -635014.63747  21275225.6384   21275229.2804
       238.0004        196.0004
                   -318638.31559   -220563.76045                  24026235.1574
       211.0004        136.0004
  23045420.6584   -1499449.95449  -1122832.77845  23045420.8674   23045424.7074
       217.0004        154.0004
 06  8 30 17 32  0.0000000  0  7G 1G25G23G20G16G24G13
  23338606.8504    -488140.15849   -366173.04145  23338606.7994   23338612.1484
       213.0004        154.0004
  23323504.3164    -225888.27649   -172843.81145  23323504.6644   23323508.8694
       217.0004        162.0004
  21038424.9234   -1393784.12949  -1058377.13747  21038424.7324   21038426.1724
       237.0004        198.0004
  20254071.9124    -935303.99449   -702747.78947  20254071.3084   20254075.4504
       235.0004        208.0004
  21273017.1464    -861441.60249   -644058.42347  21273016.7674   21273020.4654
       238.0004        196.0004
  24025933.1054    -320191.94049   -221774.36445  24025932.9034   24025940.2374
       211.0004        144.0004
  23032371.1704   -1568026.13849  -1176268.71445  23032371.1114   23032375.3114
       216.0004        155.0004
 06  8 30 17 32 30.0000000  0  7G 1G25G23G20G16G24G13
  23349470.1934    -431053.48149   -321689.94545  23349469.4194   23349475.6964
       213.0004        154.0004
  23338974.3574    -144592.90449   -109496.77845  23338974.3444   23338978.4184
       217.0004        162.0004
  21030858.6694   -1433545.54949  -1089360.04847  21030858.4204   21030859.7984
       237.0004        198.0004
  20255820.3924    -926115.74349   -695588.10347  20255819.6384   20255823.9684
       235.0004        208.0004
  21270919.3454    -872465.60149   -652648.54147  21270919.0594   21270922.4054
       238.0004        196.0004
  24025726.2454    -321277.10949   -222619.96345  24025725.6564   24025732.2504
       212.0004        146.0004
  23019325.9554   -1636579.10749  -1229686.56445  23019325.1334   23019330.8774
       216.0004        155.0004
 06  8 30 17 33  0.0000000  0  7G 1G25G23G20G16G24G13
  23360356.7774    -373844.02049   -277111.17945  23360356.8314   23360361.9644
       216.0004        154.0004
  23354445.4194     -63291.98649    -46145.43845  23354445.0144   23354450.3594
       216.0004        161.0004
  21023321.4194   -1473154.40049  -1120224.07647  21023321.0084   21023322.4244
       236.0004        198.0004
  20257676.9954    -916359.15849   -687985.56247  20257676.3724   20257680.6384
       235.0004        208.0004
  21268933.1824    -882903.15549   -660781.68247  21268933.2344   21268936.2934
       239.0004        196.0004
  24025609.3454    -321891.42249   -223098.63645  24025609.1574   24025616.0754
       210.0004        146.0004
  23006285.8994   -1705104.97549  -1283083.29545  23006286.4094   23006290.6794
       217.0004        154.0004
 06  8 30 17 33 30.0000000  0  7G 1G25G23G20G16G24G13
  23371267.0314    -316510.36849   -232435.61845  23371266.8494   23371271.9974
       215.0004        153.0004
  23369917.5164      18013.95449     17209.80945  23369917.3034   23369921.9164
       217.0004        161.0004
  21015813.4554   -1512608.96549  -1150967.88047  21015812.9754   21015814.5654
       236.0004        198.0004
  20259641.9964    -906033.16049   -679939.32647  20259641.4224   20259645.5844
       235.0004        208.0004
  21267058.9314    -892752.74749   -668456.66647  21267058.4524   21267062.4414
       239.0004        196.0004
  24025582.1694    -322034.48749   -223210.11445  24025581.9964   24025588.3534
       211.0004        146.0004
  22993251.2994   -1773602.30849  -1336457.79345  22993250.9544   22993255.2894
       216.0004        155.0004
 06  8 30 17 34  0.0000000  0  7G 1G25G23G20G16G24G13
  23382201.1924    -259051.12349   -187662.20645  23382201.5694   23382205.7564
       214.0004        153.0004
  23385390.5234      99324.86049     80568.93645  23385390.7014   23385394.9894
       217.0004        160.0004
  21008335.2314   -1551907.40149  -1181590.02547  21008334.8324   21008336.0074
       236.0004        198.0004
  20261715.5884    -895136.50649   -671448.41847  20261715.0874   20261719.2344
       235.0004        208.0004
  21265296.8074    -902012.86549   -675672.33147  21265296.1224   21265299.9594
       239.0004        196.0004
  24025644.6764    -321706.12649   -222954.23845  24025645.7324   24025650.0954
       210.0004        147.0004
  22980222.4074   -1842069.60649  -1389808.89145  22980222.7834   22980226.2714
       217.0004        155.0004
 06  8 30 17 34 30.0000000  0  7G 1G25G23G20G16G24G13
  23393159.5024    -201464.97849   -142789.92045  23393158.7734   23393164.8634
       214.0004        153.0004
  23400864.4814     180640.57949    143931.79845  23400864.5494   23400869.3254
       216.0004        160.0004
  21000887.1154   -1591047.70549  -1212088.95247  21000886.9394   21000888.1634
       236.0004        198.0004
  20263898.1024    -883667.75049   -662511.72047  20263897.4864   20263901.6744
       236.0004        208.0004
  21263647.1664    -910681.73549   -682427.27447  21263646.6644   21263650.4974
       238.0004        195.0004
  24025797.1954    -320905.67849   -222330.52745  24025797.6964   24025804.1514
       211.0004        147.0004
  22967199.5474   -1910505.64349  -1443135.62545  22967199.4394   22967203.8794
       217.0004        155.0004
 06  8 30 17 35  0.0000000  0  7G 1G25G23G20G16G24G13
  23404141.9464    -143752.43349    -97819.12845  23404140.8904   23404148.1494
       214.0004        153.0004
  23416338.8994     261958.52549    207296.41145  23416338.8764   23416343.7274
       219.0004        160.0004
  20993469.0894   -1630030.02249  -1242464.76947  20993468.8444   20993470.1084
       236.0004        198.0004
  20266189.2594    -871627.74549   -653129.90247  20266188.5604   20266192.9104
       236.0004        208.0004
  21262109.9824    -918759.66349   -688721.75347  21262109.4184   21262113.7744
       237.0004        195.0004
  24026039.1124    -319635.01849   -221340.40745  24026039.7194   24026045.2844
       211.0004        147.0004
  22954182.5084   -1978910.85649  -1496438.33945  22954182.3904   22954187.3144
       217.0004        156.0004
 06  8 30 17 35 30.0000000  0  7G 1G25G23G20G16G24G13
  23415148.6524     -85912.20149    -52748.84845  23415149.1504   23415154.5774
       215.0004        153.0004
  23431813.7304     343278.28449    270662.42145  23431814.6124   23431817.9444
       216.0004        159.0004
  20986081.4214   -1668852.70649  -1272716.19147  20986080.7294   20986081.9314
       236.0004        198.0004
  20268589.2254    -859016.01149   -643302.57147  20268588.7284   20268592.7604
       236.0004        208.0004
  21260685.3764    -926245.89049   -694555.16447  21260685.1944   21260688.8924
       238.0004        195.0004
  24026370.3704    -317894.53649   -219984.19545  24026369.5504   24026376.1764
       210.0004        148.0004
  22941171.3844   -2047284.37949  -1549716.38445  22941171.3984   22941175.7634
       219.0004        156.0004
 06  8 30 17 36  0.0000000  0  7G 1G25G23G20G16G24G13
  23426179.5244     -27945.17849     -7579.78445  23426179.6834   23426184.8844
       214.0004        153.0004
  23447288.4354     424597.70449    334028.16745  23447287.7104   23447292.6574
       215.0004        159.0004
  20978724.0604   -1707515.99249  -1302843.40947  20978723.4324   20978725.2424
       235.0004        198.0004
  20271097.7814    -845833.63049   -633030.58847  20271097.2414   20271101.3504
       236.0004        208.0004
  21259373.4034    -933140.66649   -699927.70647  21259373.0024   21259376.6804
       237.0004        194.0004
  24026790.5694    -315686.26749   -218263.46545  24026789.3504   24026797.5874
       210.0004        148.0004
  22928166.2144   -2115626.69849  -1602970.08745  22928166.6414   22928170.4184
       218.0004        156.0004
 06  8 30 17 36 30.0000000  0  7G 1G25G23G20G16G24G13
  23437234.4584      30148.87549     37688.26745  23437233.4514   23437240.2994
       212.0004        152.0004
  23462762.5974     505914.97149    397392.24045  23462762.6374   23462767.2284
       214.0004        158.0004
  20971397.0994   -1746019.27749  -1332845.95347  20971396.7744   20971398.3664
       236.0004        199.0004
  20273715.0074    -832080.22249   -622313.64847  20273714.5494   20273718.3904
       236.0004        208.0004
  21258173.7994    -939443.95549   -704839.36247  21258173.7734   21258177.2004
       237.0004        194.0004
  24027299.6464    -313011.03149   -216178.86145  24027300.0464   24027306.7964
       211.0004        147.0004
  22915167.1104   -2183937.84949  -1656199.51945  22915167.2504   22915171.8354
       219.0004        157.0004
 06  8 30 17 37  0.0000000  0  7G 1G25G23G20G16G24G13
  23448313.7304      88370.68149     83055.88345  23448313.6604   23448319.6994
       212.0004        153.0004
  23478236.2614     587229.75049    460754.36845  23478237.1154   23478241.3494
       215.0004        158.0004
  20964100.9504   -1784361.09149  -1362722.67247  20964100.5454   20964102.2234
       237.0004        199.0004
  20276440.9344    -817755.77349   -611151.73847  20276440.3524   20276444.3364
       236.0004        208.0004
  21257087.0824    -945155.02249   -709289.53047  21257086.6354   21257090.3084
       237.0004        194.0004
  24027897.4984    -309869.47849   -213730.91645  24027897.4734   24027902.5534
       208.0004        147.0004
  22902174.0624   -2252216.84549  -1709403.90645  22902174.8744   22902178.1734
       219.0004        158.0004
 06  8 30 17 37 30.0000000  0  7G 1G25G23G20G16G24G13
  23459417.4434     146720.86149    128523.52345  23459416.0844   23459423.6354
       214.0004        154.0004
  23493709.1714     668540.56049    524113.41145  23493708.9244   23493714.3834
       216.0004        158.0004
  20956835.6624   -1822540.53449  -1392472.87147  20956835.1354   20956836.8234
       236.0004        200.0004
  20279275.4864    -802860.22449   -599544.81647  20279274.8004   20279278.9554
       236.0004        208.0004
  21256113.1274    -950272.97749   -713277.54647  21256112.7594   21256116.4994
       237.0004        194.0004
  24028583.7264    -306262.54849   -210920.31945  24028583.3984   24028589.9034
       210.0004        146.0004
  22889187.2764   -2320463.05149  -1762582.73545  22889187.7754   22889191.8594
       219.0004        158.0004
 06  8 30 17 38  0.0000000  0  7G 1G25G23G20G16G24G13
  23470545.4954     205199.13449    174090.95445  23470544.6804   23470550.8544
       212.0004        153.0004
  23509181.0584     749845.67249    587468.01345  23509180.7334   23509184.9304
       217.0004        158.0004
  20949601.3764   -1860557.27049  -1422096.28847  20949601.1434   20949602.3324
       236.0004        200.0004
  20282218.5744    -787394.23049   -587493.39347  20282218.0134   20282222.0514
       236.0004        208.0004
  21255252.0144    -954798.26349   -716803.73847  21255251.5164   21255255.6784
       237.0004        194.0004
  24029358.4624    -302191.55149   -207748.13845  24029358.5114   24029365.3144
       209.0004        146.0004
  22876206.6054   -2388677.00449  -1815736.42945  22876206.0424   22876210.8764
       218.0004        158.0004
 06  8 30 17 38 30.0000000  0  7G 1G25G23G20G16G24G13
  23481698.1174     263806.28049    219758.82645  23481697.8894   23481703.4624
       212.0004        153.0004
  23524651.6534     831144.24749    650817.53445  23524651.1334   23524656.1714
       216.0004        157.0004
  20942398.3664   -1898409.75249  -1451591.71247  20942397.8204   20942399.4154
       236.0004        200.0004
  20285270.3634    -771357.07249   -574996.90547  20285269.6004   20285273.9794
       236.0004        208.0004
  21254503.8724    -958730.26549   -719867.63347  21254503.5034   21254507.4134
       236.0004        194.0004
  24030221.2434    -297657.27649   -204214.93045  24030220.3854   24030226.9464
       206.0004        145.0004
  22863232.2144   -2456857.67649  -1868864.19345  22863232.9134   22863237.5384
       218.0004        158.0004
 06  8 30 17 39  0.0000000  0  7G 1G25G23G20G16G24G13
  23492875.3204     322542.68449    265527.40045  23492874.1824   23492880.6354
       214.0004        154.0004
  23540120.8624     912435.41149    714161.27645  23540121.0234   23540125.8324
       216.0004        157.0004
  20935226.7054   -1936097.07949  -1480958.44847  20935226.0954   20935227.5474
       236.0004        200.0004
  20288430.7784    -754748.99749   -562055.54747  20288430.3124   20288434.3614
       236.0004        208.0004
  21253868.5944    -962068.57549   -722468.90947  21253868.5734   21253872.2564
       236.0004        194.0004
  24031172.1244    -292660.49349   -200321.34845  24031172.7654   24031177.3004
       210.0004        146.0004
  22850264.2754   -2525004.76149  -1921965.80045  22850265.5704   22850268.7124
       219.0004        159.0004
 06  8 30 17 39 30.0000000  0  8G 1G25G23G20G 4G16G24G13
  23504076.7414     381406.57049    311395.32945  23504076.7364   23504081.9214
       212.0004        154.0004
  23555587.9424     993715.42349    777496.33245  23555587.1364   23555592.0374
       216.0004        156.0004
  20928086.1964   -1973620.54249  -1510197.49247  20928085.9384   20928087.1394
       236.0004        200.0004
  20291699.4574    -737572.38549   -548671.17747  20291698.9194   20291703.0704
       236.0004        208.0004
  24697490.5824   -1950982.69859  -1490477.78744  24697490.7034   24697498.6654
       200.0004        129.0004
  21253346.0204    -964815.12949   -724609.07647  21253345.7054   21253349.4404
       236.0004        195.0004
  24032210.5924    -287204.47049   -196069.90445  24032210.2874   24032217.1744
       210.0004        146.0004
  22837302.4384   -2593119.95349  -1975042.52945  22837302.8144   22837306.7224
       220.0004        159.0004
 06  8 30 17 40  0.0000000  0  8G 1G25G23G20G 4G16G24G13
  23515302.5244     440398.26049    357362.84245  23515302.6754   23515307.2684
       214.0004        154.0004
  23571052.7194    1074983.33249    840821.95245  23571052.0204   23571057.0384
       216.0004        155.0004
  20920977.0274   -2010979.25949  -1539308.16747  20920976.4494   20920977.9834
       236.0004        199.0004
  20295076.2154    -719827.48449   -534843.98347  20295075.7214   20295079.9454
       236.0004        208.0004
  24694951.6794   -1964324.71349  -1500874.15444  24694952.6604   24694959.6634
       200.0004        131.0004
  21252936.0234    -966969.73149   -726287.98547  21252935.4694   21252939.7014
       235.0004        195.0004
  24033336.0124    -281290.37649   -191461.52645  24033336.3074   24033342.6424
       211.0004        146.0004
  22824346.6504   -2661202.88149  -2028094.12445  22824345.9944   22824350.2874
       219.0004        159.0004
 06  8 30 17 40 30.0000000  0  8G 1G25G23G20G 4G16G24G13
  23526553.3014     499520.67049    403432.20745  23526553.0164   23526558.1164
       216.0004        155.0004
  23586515.3834    1156240.15749    904138.93845  23586514.2964   23586520.7694
       215.0004        154.0004
  20913899.8774   -2048169.73649  -1568287.75047  20913899.4594   20913900.7484
       236.0004        199.0004
  20298561.5544    -701511.98549   -520572.16847  20298561.0194   20298565.2314
       236.0004        208.0004
  24692504.7234   -1977184.48649  -1510894.77645  24692503.8654   24692511.3854
       203.0004        132.0004
  21252639.1354    -968529.69549   -727503.53947  21252638.4654   21252642.3194
       236.0004        195.0004
  24034548.9794    -274916.65649   -186495.00045  24034548.6084   24034555.7634
       211.0004        147.0004
  22811397.5534   -2729250.77849  -2081118.43045  22811398.4074   22811401.4944
       217.0004        159.0004
 06  8 30 17 41  0.0000000  0  8G 1G25G23G20G 4G16G24G13
  23537829.0604     558774.20349    449603.74745  23537829.0204   23537833.1694
       214.0004        154.0004
  23601975.7854    1237484.92849    967446.52145  23601975.6424   23601980.3344
       217.0004        154.0004
  20906855.0104   -2085191.00549  -1597135.47547  20906854.6964   20906856.0414
       236.0004        199.0004
  20302155.4904    -682625.75049   -505855.62347  20302154.9014   20302159.0044
       236.0004        208.0004
  24690149.5424   -1989561.93349  -1520539.56344  24690150.6444   24690156.6244
       203.0004        131.0004
  21252455.6014    -969494.61949   -728255.41347  21252455.4714   21252459.3624
       236.0004        195.0004
  24035849.1114    -268084.35749   -181171.15145  24035849.0784   24035855.9224
       211.0004        147.0004
  22798455.2734   -2797262.49749  -2134114.52745  22798455.3184   22798458.1734
       220.0004        159.0004
 06  8 30 17 41 30.0000000  0  9G 1G25G23G20G 4G27G16G24G13
  23549129.8514     618160.47949    495878.73345  23549129.1274   23549134.2964
       213.0004        153.0004
  23617433.9524    1318717.91549   1030744.92945  23617434.6204   23617439.4774
       218.0004        154.0004
  20899842.7734   -2122040.67249  -1625849.48847  20899842.2504   20899843.6644
       236.0004        199.0004
  20305858.2794    -663167.58549   -490693.42047  20305857.6674   20305861.8164
       236.0004        208.0004
  24687886.1764   -2001456.36049  -1529807.97344  24687885.9224   24687890.9314
       205.0004        131.0004
                  -1435133.88659  -1092959.90144                  24260022.1534
       204.0004        117.0004
  21252385.4784    -969863.27149   -728542.66747  21252384.9904   21252389.0184
       236.0004        195.0004
  24037236.6374    -260793.47649   -175489.95745  24037236.5174   24037243.4704
       211.0004        147.0004
  22785520.2394   -2865236.59849  -2187081.30945  22785520.2034   22785524.6394
       220.0004        160.0004
 06  8 30 17 42  0.0000000  0  9G 1G25G23G20G 4G27G16G24G13
  23560455.9114     677679.31849    542257.01545  23560455.9164   23560461.0444
       215.0004        152.0004
  23632889.5644    1399937.07549   1094032.54245  23632890.1214   23632894.7894
       217.0004        155.0004
  20892863.2714   -2158718.54449  -1654429.62747  20892862.8124   20892864.2424
       236.0004        199.0004
  20309669.6974    -643138.51849   -475086.35647  20309669.0794   20309673.0574
       236.0004        207.0004
  24685714.5634   -2012868.52049  -1538700.56644  24685713.9864   24685721.1684
       201.0004        128.0004
  24246847.7624   -1504340.92849  -1146887.38545  24246846.0384   24246853.8454
       205.0004        136.0004
  21252428.7474    -969635.94949   -728365.52347  21252428.8204   21252431.7824
       236.0004        195.0004
  24038711.1904    -253045.24749   -169452.37945  24038710.9874   24038717.8274
       210.0004        147.0004
  22772592.3264   -2933173.45449  -2240019.08245  22772592.4924   22772596.3484
       219.0004        160.0004
 06  8 30 17 42 30.0000000  0  9G 1G25G23G20G 4G27G16G24G13
  23571806.8624     737328.50849    588736.85745  23571806.5384   23571812.4694
       212.0004        153.0004
  23648341.9094    1481139.11649   1157306.82945  23648341.9644   23648345.8814
       216.0004        156.0004
  20885916.1814   -2195225.77549  -1682876.80247  20885915.6914   20885917.3504
       236.0004        199.0004
  20313589.2604    -622541.28649   -459036.56847  20313588.9254   20313592.7544
       236.0004        207.0004
  24683634.2374   -2023801.24949  -1547219.58844  24683634.0564   24683640.5324
       201.0004        129.0004
  24233714.4584   -1573355.47149  -1200664.93945  24233713.8694   24233720.0824
       207.0004        139.0004
  21252585.0014    -968814.93449   -727725.75847  21252584.5024   21252588.3724
       236.0004        195.0004
  24040271.7904    -244843.57049   -163061.46645  24040271.4664   24040278.0254
       210.0004        147.0004
  22759671.1014   -3001074.89749  -2292929.27445  22759670.8084   22759676.1044
       221.0004        161.0004
 06  8 30 17 43  0.0000000  0  9G 1G25G23G20G 4G27G16G24G13
  23583182.8904     797109.66449    635319.53645  23583181.8634   23583188.0984
       213.0004        152.0004
  23663790.9254    1562324.01949   1220567.77645  23663791.0784   23663795.1884
       217.0004        156.0004
  20879001.8064   -2231560.62549  -1711189.65847  20879001.2484   20879002.6194
       236.0004        199.0004
  20317617.1084    -601374.99849   -442543.35947  20317616.4574   20317620.3944
       237.0004        207.0004
  24681645.2574   -2034253.85949  -1555364.47444  24681644.9034   24681649.5234
       204.0004        129.0004
  24220618.1024   -1642176.12349  -1254291.38745  24220617.9154   24220624.2704
       206.0004        140.0004
  21252854.3924    -967399.12149   -726622.51447  21252853.6864   21252857.8244
       236.0004        195.0004
  24041918.8284    -236188.60249   -156317.34145  24041918.1364   24041925.4614
       210.0004        146.0004
  22746756.9454   -3068939.30649  -2345810.58645  22746756.2584   22746760.2374
       220.0004        161.0004
 06  8 30 17 43 30.0000000  0  9G 1G25G23G20G 4G27G16G24G13
  23594583.9864     857023.63549    682005.72145  23594583.2104   23594589.6194
       211.0004        151.0004
  23679236.5574    1643491.07849   1283814.79545  23679236.3564   23679241.3404
       218.0004        157.0004
  20872120.5954   -2267721.47249  -1739366.92747  20872120.1124   20872121.3584
       236.0004        199.0004
  20321753.2874    -579639.37549   -425606.51047  20321752.5434   20321756.8304
       237.0004        207.0004
  24679747.4794   -2044226.05749  -1563135.02244  24679747.7264   24679754.1354
       201.0004        128.0004
  24207559.0364   -1710802.39849  -1307766.38145  24207558.6564   24207564.9694
       207.0004        141.0004
  21253237.0874    -965388.08749   -725055.46347  21253236.7604   21253240.6844
       236.0004        195.0004
  24043651.9474    -227080.82249   -149220.37145  24043651.0874   24043658.2174
       210.0004        146.0004
  22733850.0224   -3136765.41849  -2398662.05645  22733849.0544   22733854.2584
       222.0004        162.0004
 06  8 30 17 44  0.0000000  0  9G 1G25G23G20G 4G27G16G24G13
  23606010.8674     917072.15349    728796.72845  23606011.5384   23606016.1264
       213.0004        151.0004
  23694678.8694    1724640.66749   1347048.20645  23694678.6654   23694684.3104
       217.0004        157.0004
  20865272.9974   -2303705.87149  -1767406.70347  20865272.8824   20865273.9104
       236.0004        200.0004
  20325998.0394    -557333.34249   -408225.19047  20325997.4554   20326001.4164
       236.0004        208.0004
  24677941.5104   -2053716.95549  -1570530.56244  24677941.5074   24677946.2364
       202.0004        128.0004
  24194537.0804   -1779232.91649  -1361088.83145  24194536.6314   24194542.7174
       205.0004        142.0004
  21253733.3664    -962780.29149   -723023.40347  21253732.8274   21253736.8324
       236.0004        195.0004
  24045471.4134    -217519.86749   -141770.28545  24045472.0864   24045477.4114
       209.0004        145.0004
  22720950.7664   -3204551.72149  -2451482.50345  22720951.3534   22720954.6874
       221.0004        162.0004
 06  8 30 17 44 30.0000000  0  9G 1G25G23G20G 4G27G16G24G13
  23617463.6004     977255.80649    775693.04845  23617462.8914   23617468.9344
       213.0004        153.0004
  23710117.6234    1805771.55349   1410267.03845  23710117.4374   23710122.4814
       217.0004        158.0004
  20858459.2504   -2339512.64449  -1795308.07147  20858458.8394   20858460.0444
       237.0004        200.0004
  20330351.2054    -534457.38549   -390399.76747  20330350.4714   20330354.6744
       238.0004        208.0004
  24676226.8164   -2062726.98549  -1577551.34244  24676225.7944   24676232.1884
       208.0004        128.0004
  24181552.3674   -1847467.73349  -1414258.77645  24181552.4704   24181556.7244
       206.0004        142.0004
  21254343.1844    -959575.53549   -720526.18047  21254342.6954   21254346.5774
       236.0004        195.0004
  24047376.7874    -207507.09349   -133968.12845  24047375.6784   24047382.7944
       209.0004        146.0004
  22708059.1714   -3272297.49749  -2504271.39246  22708058.9284   22708063.3574
       221.0004        163.0004
 06  8 30 17 45  0.0000000  0  9G 1G25G23G20G 4G27G16G24G13
  23628941.8364    1037574.05749    822694.25245  23628941.2544   23628947.7684
       213.0004        153.0004
  23725552.4254    1886882.01649   1473469.96445  23725552.7024   23725557.4944
       217.0004        158.0004
  20851679.2914   -2375141.87549  -1823071.09147  20851678.9134   20851680.0634
       237.0004        200.0004
  20334812.5564    -511012.74749   -372131.22247  20334811.8934   20334816.1284
       239.0004        208.0004
  24674603.8864   -2071257.27049  -1584198.32344  24674605.0864   24674609.4854
       206.0004        131.0004
  24168604.8794   -1915507.15149  -1467276.47345  24168604.4334   24168610.4584
       206.0004        143.0004
  21255066.4974    -955774.82649   -717564.56947  21255066.0944   21255069.8104
       236.0004        195.0004
  24049367.5914    -197044.61749   -125815.53945  24049367.0504   24049373.9254
       210.0004        146.0004
  22695175.2874   -3340002.98349  -2557028.87546  22695175.1674   22695178.9504
       222.0004        163.0004
 06  8 30 17 45 30.0000000  0  9G 1G25G23G20G 4G27G16G24G13
  23640445.6194    1098026.96549    869800.38345  23640445.4304   23640451.2454
       212.0004        152.0004
  23740983.1454    1967970.62749   1536655.85745  23740983.7394   23740987.5344
       216.0004        157.0004
  20844933.2164   -2410592.74249  -1850695.13447  20844932.6534   20844934.1214
       236.0004        200.0004
  20339382.0934    -486999.72349   -353419.77647  20339381.4794   20339385.6654
       238.0004        208.0004
  24673071.9544   -2079308.69049  -1590472.18344  24673072.3974   24673076.0514
       201.0004        131.0004
  24155694.3924   -1983351.66249  -1520142.29645  24155693.9614   24155699.1074
       208.0004        143.0004
  21255903.0764    -951378.33549   -714138.73347  21255903.0254   21255906.2144
       236.0004        194.0004
  24051444.0864    -186133.71649   -117313.55345  24051443.7724   24051450.4114
       209.0004        146.0004
  22682299.0874   -3407668.00349  -2609754.82846  22682298.5714   22682303.5644
       222.0004        163.0004
 06  8 30 17 46  0.0000000  0  9G 1G25G23G20G 4G27G16G24G13
  23651975.2204    1158614.70849    917011.57845  23651975.4484   23651981.4324
       214.0004        152.0004
  23756409.5194    2049036.26949   1599823.85845  23756409.9504   23756414.2334
       217.0004        157.0004
  20838221.2644   -2445864.03149  -1878179.24547  20838220.4804   20838222.2134
       237.0004        200.0004
  20344059.6044    -462419.09249   -334266.03747  20344059.0214   20344063.3354
       239.0004        208.0004
  24671630.7354   -2086881.80849  -1596373.30444  24671629.1074   24671636.3174
       202.0004        131.0004
  24142821.1574   -2051000.98249  -1572856.01245  24142820.0934   24142826.5504
       208.0004        143.0004
  21256853.0554    -946386.35349   -710248.86347  21256852.9474   21256856.4534
       236.0004        194.0004
  24053605.3744    -174775.95149   -108463.34645  24053605.6954   24053611.7994
       211.0004        147.0004
  22669430.5834   -3475292.13949  -2662448.92346  22669430.2204   22669434.5644
       221.0004        163.0004
 06  8 30 17 46 30.0000000  0  9G 1G25G23G20G 4G27G16G24G13
  23663530.2514    1219336.63549    964327.33245  23663529.8694   23663535.3694
       213.0004        152.0004
  23771831.1174    2130076.96449   1662972.42045  23771831.0044   23771835.6754
       215.0004        156.0004
  20831543.4854   -2480955.91349  -1905523.56247  20831543.0234   20831544.4934
       236.0004        201.0004
  20348845.0204    -437271.98249   -314670.89147  20348844.3384   20348848.5374
       238.0004        208.0004
  24670280.2564   -2093977.74649  -1601902.59044  24670279.8614   24670288.6734
       201.0004        129.0004
  24129984.9904   -2118456.01649  -1625418.34845  24129985.3494   24129990.3014
       209.0004        143.0004
  21257916.1344    -940799.94249   -705895.80847  21257915.5914   21257919.2524
       236.0004        194.0004
  24055851.4464    -162973.40049    -99266.55845  24055850.9914   24055858.0814
       211.0004        147.0004
  22656569.8594   -3542875.57549  -2715111.31646  22656570.3234   22656573.6474
       222.0004        164.0004
 06  8 30 17 47  0.0000000  0  9G 1G25G23G20G 4G27G16G24G13
  23675111.1264    1280194.62149   1011749.10845  23675111.9614   23675117.3274
       213.0004        152.0004
  23787248.0854    2211093.39149   1726102.07345  23787247.7714   23787253.3334
       216.0004        155.0004
  20824900.4484   -2515865.53349  -1932725.85547  20824900.1024   20824901.4364
       236.0004        201.0004
  20353738.3044    -411557.60049   -294633.71447  20353737.5514   20353741.8964
       238.0004        207.0004
  24669021.0374   -2100595.56549  -1607059.34744  24669020.2834   24669027.5064
       206.0004        130.0004
  24117185.9194   -2185715.03449  -1677827.92545  24117185.0504   24117191.4404
       207.0004        143.0004
  21259092.5614    -934617.50649   -701078.32047  21259092.3674   21259095.9094
       237.0004        194.0004
  24058181.9474    -150725.86149    -89723.01245  24058181.3384   24058187.7184
       209.0004        146.0004
  22643717.3254   -3610416.29549  -2767740.42046  22643716.5414   22643721.3664
       223.0004        164.0004
 06  8 30 17 47 30.0000000  0  9G 1G25G23G20G 4G27G16G24G13
  23686718.1204    1341189.11949   1059277.24245  23686717.7374   23686723.6424
       216.0004        153.0004
  23802660.2304    2292084.23949   1789211.80045  23802660.4314   23802665.0174
       215.0004        154.0004
  20818292.1914   -2550592.15449  -1959785.54647  20818291.9564   20818293.1024
       237.0004        201.0004
  20358739.5114    -385276.12349   -274154.64347  20358738.9584   20358742.9914
       239.0004        207.0004
  24667852.6524   -2106736.09549  -1611844.17744  24667852.4414   24667859.8314
       205.0004        131.0004
  24104424.2184   -2252778.39549  -1730085.04845  24104424.3244   24104430.1964
       209.0004        142.0004
  21260382.5054    -927839.20449   -695796.51147  21260382.0144   21260385.4164
       237.0004        194.0004
  24060596.9894    -138034.59849    -79833.72745  24060596.7354   24060602.7984
       211.0004        146.0004
  22630873.0394   -3677913.71049  -2820335.77446  22630873.7624   22630877.5194
       223.0004        164.0004
 06  8 30 17 48  0.0000000  0  9G 1G25G23G20G 4G27G16G24G13
  23698350.9994    1402320.15349   1106911.78545  23698350.5234   23698356.0664
       213.0004        152.0004
  23818067.2004    2373048.29249   1852300.63145  23818066.4964   23818072.4664
       215.0004        153.0004
  20811718.9664   -2585135.01749  -1986702.05047  20811718.7674   20811719.9284
       237.0004        201.0004
  20363848.4784    -358428.43749   -253234.38047  20363847.9614   20363852.1644
       238.0004        207.0004
  24666774.7704   -2112400.02449  -1616257.66345  24666773.2184   24666782.1024
       202.0004        132.0004
  24091699.8064   -2319646.23749  -1782189.79945  24091698.7944   24091704.9824
       207.0004        142.0004
  21261785.6054    -920465.71649   -690050.93447  21261785.3724   21261789.1264
       236.0004        195.0004
  24063096.3024    -124901.38549    -69600.05745  24063095.8654   24063103.3244
       211.0004        146.0004
  22618036.9454   -3745367.41549  -2872897.07446  22618036.1094   22618040.1624
       222.0004        163.0004
 06  8 30 17 48 30.0000000  0  9G 1G25G23G20G 4G27G16G24G13
  23710009.7974    1463587.37749   1154652.43645  23710009.7224   23710015.2034
       213.0004        151.0004
  23833468.7514    2453983.86449   1915367.28545  23833468.8134   23833473.5654
       214.0004        153.0004
  20805180.8094   -2619493.35349  -2013474.76047  20805180.3834   20805181.7124
       237.0004        201.0004
  20369064.8654    -331016.09849   -231874.11847  20369064.2004   20369068.2374
       238.0004        207.0004
  24665787.4994   -2117588.76649  -1620300.84545  24665787.6514   24665794.8854
       203.0004        133.0004
  24079012.1904   -2386319.39749  -1834142.84945  24079010.7384   24079018.1544
       205.0004        142.0004
  21263301.8294    -912497.99149   -683842.30847  21263301.6334   21263305.5904
       236.0004        195.0004
  24065679.2034    -111328.16949    -59023.52945  24065678.8774   24065685.4354
       210.0004        147.0004
  22605209.0804   -3812777.90149  -2925424.70046  22605208.5004   22605213.0194
       221.0004        163.0004
 06  8 30 17 49  0.0000000  0  9G 1G25G23G20G 4G27G16G24G13
  23721695.0014    1524993.35049   1202501.20645  23721695.1824   23721699.7574
       215.0004        152.0004
  23848865.0804    2534892.13749   1978412.65445  23848864.5954   23848869.7384
       214.0004        153.0004
  20798678.2834   -2653664.07349  -2040101.28547  20798677.7654   20798679.3174
       236.0004        200.0004
  20374389.0104    -303037.59249   -210072.69047  20374388.3644   20374392.3774
       238.0004        207.0004
  24664890.8234   -2122300.69149  -1623972.46845  24664889.8024   24664898.5364
       201.0004        134.0004
  24066362.2534   -2452795.30549  -1885942.20745  24066361.5654   24066368.0374
       212.0004        143.0004
  21264931.5094    -903933.88349   -677168.97147  21264931.2744   21264934.5194
       236.0004        195.0004
  24068346.1574     -97314.04749    -48103.44645  24068346.1914   24068352.0834
       209.0004        147.0004
  22592390.0044   -3880142.12249  -2977916.27446  22592390.1544   22592394.3164
       222.0004        163.0004
 06  8 30 17 49 30.0000000  0  9G 1G25G23G20G 4G27G16G24G13
  23733406.4374    1586536.48749   1250456.86445  23733406.1554   23733412.0034
       214.0004        153.0004
  23864255.7134    2615770.15149   2041434.45845  23864255.6704   23864261.6234
       214.0004        153.0004
  20792211.3254   -2687648.27749  -2066582.46947  20792210.7624   20792212.2644
       236.0004        200.0004
  20379820.5324    -274494.80149   -187831.55947  20379819.8844   20379824.0814
       238.0004        207.0004
  24664084.3214   -2126538.23249  -1627274.46045  24664086.2984   24664089.0434
       202.0004        133.0004
  24053749.5834   -2519075.96149  -1937589.41845  24053749.3864   24053754.9654
       208.0004        144.0004
  21266674.2524    -894775.61649   -670032.65247  21266673.8184   21266677.4844
       236.0004        194.0004
  24071096.0834     -82862.44249    -36842.45745  24071096.5774   24071102.8164
       210.0004        146.0004
  22579579.5184   -3947461.56949  -3030372.95346  22579579.2734   22579583.5364
       222.0004        163.0004
 06  8 30 17 50  0.0000000  0  9G 1G25G23G20G 4G27G16G24G13
  23745143.7844    1648216.36649   1298519.07545  23745143.0004   23745149.4244
       212.0004        152.0004
  23879640.2424    2696616.20349   2104431.33945  23879640.8394   23879644.4914
       215.0004        153.0004
  20785779.9484   -2721445.43749  -2092917.90847  20785779.6744   20785780.6314
       237.0004        200.0004
  20385359.1674    -245389.02049   -165151.73347  20385358.6704   20385362.8614
       238.0004        207.0004
  24663368.0284   -2130302.92549  -1630207.99645  24663368.1464   24663373.7094
       204.0004        133.0004
  24041173.7604   -2585162.09849  -1989085.05345  24041173.1224   24041178.9814
       208.0004        143.0004
  21268529.9164    -885024.10049   -662434.06047  21268529.6234   21268533.4104
       237.0004        195.0004
  24073929.0484     -67975.19149    -25242.00745  24073928.0864   24073935.0754
       210.0004        146.0004
  22566777.5624   -4014736.02949  -3082794.57746  22566777.5354   22566781.1764
       222.0004        163.0004
 06  8 30 17 50 30.0000000  0  9G 1G25G23G20G 4G27G16G24G13
  23756907.5194    1710035.97449   1346690.16745  23756906.9764   23756912.7954
       214.0004        152.0004
  23895019.0324    2777432.02649   2167404.66745  23895019.2324   23895024.1664
       216.0004        155.0004
  20779384.8924   -2755051.93049  -2119104.77647  20779384.3824   20779385.5194
       237.0004        200.0004
  20391005.2754    -215718.68849   -142032.00347  20391004.4214   20391008.6734
       237.0004        207.0004
  24662742.0784   -2133592.76449  -1632771.51645  24662742.4194   24662748.6824
       202.0004        133.0004
  24028635.4564   -2651050.83749  -2040426.87645  24028634.9324   24028641.3384
       207.0004        144.0004
  21270498.9234    -874677.20449   -654371.53347  21270498.3604   21270501.8484
       236.0004        195.0004
  24076844.9764     -52651.71349    -13301.64745  24076845.7874   24076851.3714
       210.0004        147.0004
  22553984.6914   -4081962.49649  -3135178.81746  22553983.5924   22553988.7994
       220.0004        163.0004
 06  8 30 17 51  0.0000000  0  9G 1G25G23G20G 4G27G16G24G13
  23768697.9604    1771993.92049   1394969.04645  23768699.3724   23768703.6544
       215.0004        152.0004
  23910391.5314    2858214.84149   2230352.28945  23910391.9604   23910396.1434
       215.0004        155.0004
  20773025.9164   -2788468.27549  -2145143.48147  20773025.2744   20773026.6984
       236.0004        200.0004
  20396758.2814    -185486.09049   -118474.14047  20396757.5894   20396761.9504
       238.0004        206.0004
  24662206.0294   -2136410.09649  -1634966.84645  24662206.9294   24662212.2894
       203.0004        133.0004
  24016134.3534   -2716743.99549  -2091616.29345  24016133.7074   24016139.4174
       208.0004        144.0004
  21272580.7984    -863736.88049   -645846.59947  21272580.5994   21272584.0614
       236.0004        195.0004
  24079843.6204     -36894.85449     -1023.58845  24079843.6214   24079849.9594
       211.0004        147.0004
  22541200.7734   -4149142.08549  -3187526.51746  22541200.5624   22541205.1504
       222.0004        163.0004
 06  8 30 17 51 30.0000000  0  9G 1G25G23G20G 4G27G16G24G13
  23780514.7344    1834090.88349   1443356.25845  23780514.3724   23780520.0764
       213.0004        152.0004
  23925757.6674    2938964.21249   2293273.83345  23925756.7734   23925761.9964
       214.0004        155.0004
  20766703.4534   -2821692.76449  -2171032.68047  20766702.9514   20766704.3244
       236.0004        200.0004
  20402618.2744    -154691.58449    -94478.42947  20402617.8124   20402622.0164
       238.0004        207.0004
  24661759.8814   -2138755.16249  -1636794.17245  24661759.2794   24661766.4784
       203.0004        135.0004
  24003670.6224   -2782241.07949  -2142652.91345  24003670.6154   24003675.9954
       207.0004        144.0004
  21274775.6744    -852202.92949   -636859.09747  21274775.4094   21274778.6364
       236.0004        195.0004
  24082924.3504     -20705.71749     11591.30245  24082924.3784   24082930.8254
       209.0004        147.0004
  22528426.0704   -4216273.55749  -3239836.73346  22528425.8054   22528429.4464
       222.0004        164.0004
 06  8 30 17 52  0.0000000  0  9G 1G25G23G20G 4G27G16G24G13
  23792357.7584    1896327.09049   1491851.96945  23792357.2844   23792363.0874
       213.0004        151.0004
  23941117.1364    3019679.07849   2356168.49945  23941117.5394   23941122.2644
       212.0004        154.0004
  20760417.7544   -2854724.50249  -2196771.68747  20760417.4424   20760418.9464
       237.0004        201.0004
  20408585.1324    -123335.69749    -70045.27647  20408584.5214   20408588.8014
       238.0004        207.0004
  24661403.3814   -2140628.85249  -1638254.19545  24661404.0854   24661409.0744
       204.0004        135.0004
  23991244.1134   -2847542.52149  -2193537.09445  23991243.4684   23991249.4404
       209.0004        144.0004
  21277083.3434    -840075.97449   -627409.52147  21277083.0924   21277086.7704
       236.0004        195.0004
  24086087.0184      -4085.68449     24541.95745  24086086.9794   24086093.5264
       209.0004        147.0004
  22515660.6744   -4283356.32149  -3292108.97546  22515660.9124   22515664.9104
       223.0004        164.0004
 06  8 30 17 52 30.0000000  0  9G 1G25G23G20G 4G27G16G24G13
  23804227.5354    1958702.61249   1540456.22545  23804227.7764   23804232.6784
       213.0004        151.0004
  23956469.8554    3100358.42649   2419035.47345  23956469.1914   23956475.3624
       211.0004        152.0004
  20754168.8784   -2887562.68749  -2222359.87247  20754168.5684   20754169.7964
       237.0004        202.0004
  20414658.5794     -91419.40849    -45175.44747  20414657.9864   20414662.4904
       238.0004        206.0004
  24661136.3374   -2142031.90849  -1639347.49345  24661135.7114   24661142.3734
       202.0004        136.0004
  23978854.7234   -2912648.52549  -2244268.98945  23978854.2754   23978860.0364
       208.0004        145.0004
  21279503.7784    -827356.79549   -617498.46547  21279503.2864   21279507.0294
       237.0004        195.0004
  24089331.3934      12963.74249     37827.22445  24089331.6934   24089338.6274
       211.0004        147.0004
  22502904.5764   -4350389.96449  -3344342.96446  22502904.7434   22502908.4924
       222.0004        165.0004
 06  8 30 17 53  0.0000000  0  9G 1G25G23G20G 4G27G16G24G13
  23816124.1194    2021218.83149   1589170.12945  23816124.3804   23816129.3754
       213.0004        150.0004
  23971815.8924    3181002.07949   2481874.62945  23971815.5074   23971821.1474
       210.0004        151.0004
  20747957.2364   -2920205.26349  -2247795.63747  20747956.7484   20747958.0634
       237.0004        202.0004
  20420838.7724     -58942.44749    -19868.73647  20420838.5084   20420842.5424
       238.0004        206.0004
  24660958.8224   -2142964.35549  -1640074.07145  24660959.1034   24660965.4714
       205.0004        133.0004
  23966502.8054   -2977557.81949  -2294847.60945  23966501.8664   23966508.3814
       207.0004        144.0004
  21282036.9874    -814044.55649   -607125.29147  21282036.5934   21282040.2354
       237.0004        195.0004
  24092657.4074      30441.78049     51446.46945  24092657.2604   24092663.0284
       211.0004        147.0004
  22490158.2414   -4417372.87349  -3396537.40146  22490158.9774   22490162.1384
       224.0004        166.0004
 06  8 30 17 53 30.0000000  0  9G 1G25G23G20G 4G27G16G24G13
  23828047.1624    2083875.04549   1637993.11145  23828046.2874   23828052.6744
       211.0004        150.0004
  23987154.7594    3261608.19949   2544684.54945  23987154.6584   23987159.7024
       209.0004        150.0004
  20741782.8484   -2952651.91649  -2273078.73247  20741782.4634   20741783.7774
       237.0004        202.0004
  20427125.2644     -25906.90749      5873.23747  20427124.4664   20427128.8494
       238.0004        206.0004
  24660870.6074   -2143427.98449  -1640435.34345  24660869.9754   24660876.0274
       201.0004        132.0004
  23954188.1694   -3042271.42349  -2345273.73945  23954187.8914   23954194.3344
       207.0004        145.0004
  21284682.7854    -800140.73049   -596291.13247  21284682.5614   21284686.2854
       236.0004        195.0004
  24096064.5304      48345.67949     65397.52245  24096065.3014   24096070.7884
       212.0004        146.0004
  22477421.4744   -4484305.53449  -3448692.69646  22477422.1444   22477425.5654
       224.0004        167.0004
 06  8 30 17 54  0.0000000  0  9G 1G25G23G20G 4G27G16G24G13
  23839996.5774    2146669.89049   1686924.13345  23839996.7944   23840002.9804
       209.0004        149.0004
  24002486.0224    3342174.48249   2607463.41845  24002485.9854   24002491.3154
       208.0004        150.0004
  20735645.6734   -2984903.09649  -2298209.51347  20735645.1424   20735646.4264
       237.0004        202.0004
  20433517.6454       7685.21449     32048.90847  20433517.2104   20433521.0244
       239.0004        206.0004
  24660871.2114   -2143425.09249  -1640433.09444  24660873.8124   24660875.5024
       201.0004        131.0004
  23941910.5444   -3106791.29149  -2395548.89345  23941909.2014   23941916.2434
       208.0004        145.0004
  21287440.7224    -785647.63249   -584997.80647  21287440.4424   21287443.9444
       236.0004        195.0004
  24099552.2574      66672.56149     79678.19945  24099550.9584   24099558.1564
       210.0004        146.0004
  22464693.9994   -4551188.73549  -3500809.45146  22464693.7964   22464697.9624
       225.0004        168.0004
 06  8 30 17 54 30.0000000  0  9G 1G25G23G20G 4G27G16G24G13
  23851973.1454    2209607.35649   1735966.27645  23851973.1734   23851979.9394
       212.0004        149.0004
  24017810.2104    3422703.31149   2670213.10245  24017809.1574   24017814.7794
       210.0004        151.0004
  20729546.5364   -3016954.33049  -2323184.49347  20729546.2844   20729547.3874
       239.0004        202.0004
  20440016.4814      41836.41849     58660.22047  20440015.9914   20440020.0724
       237.0004        206.0004
  24660961.0834   -2142952.87849  -1640065.12845  24660961.1424   24660967.8994
       204.0004        132.0004
  23929670.2894   -3171113.96449  -2445670.41145  23929669.7244   23929675.7744
       209.0004        145.0004
  21290311.4294    -770561.85449   -573242.65147  21290311.0144   21290314.7114
       235.0004        194.0004
  24103120.4284      85424.44649     94290.05545  24103119.5084   24103126.5334
       210.0004        145.0004
  22451976.8664   -4618017.95649  -3552884.14246  22451977.4094   22451980.4544
       225.0004        168.0004
 06  8 30 17 55  0.0000000  0  9G 1G25G23G20G 4G27G16G24G13
  23863976.7494    2272686.10249   1785118.49445  23863975.8434   23863981.5324
       212.0004        148.0004
  24033126.8034    3503192.22049   2732931.69245  24033126.8134   24033131.8174
       209.0004        150.0004
  20723485.4034   -3048805.87349  -2348003.87047  20723485.0504   20723486.0154
       239.0004        202.0004
  20446621.2394      76544.49849     85705.46647  20446620.6894   20446624.9804
       236.0004        206.0004
  24661139.7034   -2142014.09249  -1639333.61045  24661139.5784   24661144.8174
       202.0004        132.0004
  23917467.0054   -3235241.28749  -2495639.70145  23917466.7924   23917473.2204
       209.0004        146.0004
  21293294.4064    -754885.93749   -561027.65147  21293294.0994   21293297.5834
       236.0004        194.0004
  24106768.9384     104597.96649    109230.46745  24106768.3124   24106775.0854
       210.0004        145.0004
  22439269.9194   -4684794.25149  -3604917.58846  22439270.7064   22439273.4784
       226.0004        169.0004
 06  8 30 17 55 30.0000000  0  9G 1G25G23G20G 4G27G16G24G13
  23876007.3444    2335907.66149   1834382.02045  23876006.1254   23876013.0954
       210.0004        146.0004
  24048435.8554    3583641.58949   2795619.46245  24048436.1344   24048440.7044
       210.0004        150.0004
  20717462.6904   -3080455.49549  -2372665.90547  20717462.3694   20717463.4084
       239.0004        202.0004
  20453332.0154     111809.61749    113184.76747  20453331.4834   20453335.6384
       237.0004        206.0004
  24661407.2764   -2140608.32049  -1638238.21945  24661407.5034   24661413.8874
       203.0004        132.0004
  23905301.4664   -3299171.60449  -2545455.49245  23905301.1844   23905307.1254
       208.0004        145.0004
  21296389.8814    -738619.29249   -548352.33847  21296389.6364   21296393.1374
       236.0004        194.0004
  24110497.6164     124192.76949    124499.13745  24110496.6804   24110503.6634
       209.0004        145.0004
  22426573.2114   -4751515.78349  -3656908.37046  22426573.0574   22426577.7304
       224.0004        169.0004
 06  8 30 17 56  0.0000000  0  9G 1G25G23G20G 4G27G16G24G13
  23888065.0514    2399270.99249   1883756.00245  23888064.4674   23888070.0884
       210.0004        146.0004
  24063736.9444    3664049.30349   2858274.76345  24063736.4924   24063742.2484
       210.0004        150.0004
  20711478.3894   -3111903.52049  -2397170.84747  20711478.0324   20711479.1394
       239.0004        202.0004
  20460148.3824     147629.65049    141096.47247  20460147.6844   20460151.9844
       237.0004        206.0004
  24661763.2554   -2138737.70249  -1636780.60245  24661762.6074   24661771.0664
       201.0004        134.0004
  23893173.1534   -3362906.50949  -2595119.00645  23893172.5714   23893179.3874
       210.0004        146.0004
  21299597.4024    -721763.60249   -535218.04047  21299597.2664   21299600.5984
       235.0004        194.0004
  24114305.9854     144206.02649    140093.86345  24114306.0834   24114311.7924
       210.0004        145.0004
  22413886.7444   -4818183.21549  -3708856.99346  22413887.2194   22413890.8614
       224.0004        169.0004
 06  8 30 17 56 30.0000000  0  9G 1G25G23G20G 4G27G16G24G13
  23900149.8124    2462776.22949   1933240.56445  23900150.3304   23900155.4844
       208.0004        145.0004
  24079029.8734    3744414.32349   2920896.82345  24079030.1344   24079035.3424
       209.0004        149.0004
  20705532.6644   -3143148.59549  -2421517.64947  20705532.2784   20705533.3424
       239.0004        202.0004
  20467070.1444     184003.66349    169439.84647  20467069.3834   20467073.6084
       237.0004        206.0004
  24662207.4214   -2136403.10449  -1634961.44745  24662205.0414   24662212.9804
       201.0004        133.0004
  23881081.9634   -3426446.29649  -2644630.46145  23881081.6414   23881087.2304
       209.0004        145.0004
  21302916.9314    -704319.68749   -521625.36947  21302916.7784   21302920.4604
       236.0004        194.0004
  24118193.7964     164635.80549    156013.14745  24118194.9014   24118200.9884
       209.0004        145.0004
  22401210.8204   -4884795.72249  -3760762.80346  22401211.0944   22401214.8384
       224.0004        169.0004
 06  8 30 17 57  0.0000000  0  9G 1G25G23G20G 4G27G16G24G13
  23912261.6474    2526424.88149   1982836.89545  23912260.2374   23912267.1154
       208.0004        144.0004
  24094314.7484    3824737.06149   2983485.92045  24094314.4834   24094319.8284
       211.0004        148.0004
  20699626.0164   -3174188.42449  -2445704.51947  20699625.6474   20699626.8704
       239.0004        202.0004
  20474097.2834     220931.76649    198214.98447  20474096.4884   20474100.8834
       237.0004        206.0004
  24662739.8854   -2133604.38249  -1632780.63045  24662738.4614   24662745.6724
       204.0004        132.0004
  23869028.1604   -3489789.61149  -2693988.83845  23869027.1064   23869032.7344
       209.0004        144.0004
  21306348.5074    -686286.95549   -507573.89547  21306348.1724   21306351.9164
       236.0004        195.0004
  24122160.6374     185481.83849    172256.80745  24122161.0054   24122167.3754
       210.0004        145.0004
  22388545.6234   -4951351.59149  -3812624.49046  22388545.2834   22388548.8484
       223.0004        169.0004
 06  8 30 17 57 30.0000000  0  9G 1G25G23G20G 4G27G16G24G13
  23924400.8264    2590216.33549   2032544.46645  23924400.6324   23924406.9124
       209.0004        144.0004
  24109591.3204    3905015.86549   3046040.79445  24109590.9474   24109596.4554
       209.0004        147.0004
  20693758.4094   -3205022.56049  -2469731.10347  20693757.6004   20693759.0544
       239.0004        202.0004
  20481229.5914     258412.14049    227420.46047  20481228.9704   20481233.2894
       237.0004        206.0004
  24663360.6374   -2130343.41249  -1630239.61645  24663360.9804   24663367.9614
       203.0004        133.0004
  23857011.3354   -3552937.65149  -2743195.05445  23857010.6454   23857015.9434
       211.0004        145.0004
  21309891.8184    -667666.78649   -493064.67047  21309891.8094   21309895.4004
       237.0004        195.0004
  24126206.3234     206741.57849    188822.82045  24126205.2664   24126213.2104
       210.0004        145.0004
  22375891.1484   -5017850.63049  -3864441.90446  22375890.5034   22375894.8064
       223.0004        168.0004
 06  8 30 17 58  0.0000000  0  9G 1G25G23G20G 4G27G16G24G13
  23936567.2174    2654150.65949   2082363.36345  23936566.4504   23936572.1564
       208.0004        144.0004
  24124859.3444    3985249.55149   3108560.49545  24124860.3674   24124863.8564
       210.0004        146.0004
  20687930.1114   -3235650.32249  -2493596.87747  20687929.4844   20687930.6524
       238.0004        202.0004
  20488466.7594     296443.60349    257055.35247  20488466.1704   20488470.4204
       237.0004        206.0004
  24664068.9974   -2126621.34349  -1627339.33645  24664070.2294   24664075.2114
       205.0004        133.0004
  23845031.6974   -3615890.88749  -2792249.46645  23845030.6694   23845036.4314
       208.0004        145.0004
  21313546.7594    -648460.28449   -478098.56547  21313546.2794   21313550.5344
       236.0004        195.0004
  24130330.2774     228413.07249    205709.68745  24130330.8904   24130336.7414
       209.0004        146.0004
  22363247.6174   -5084292.54349  -3916214.79546  22363247.8064   22363251.4764
       225.0004        169.0004
 06  8 30 17 58 30.0000000  0  9G 1G25G23G20G 4G27G16G24G13
  23948760.9004    2718228.87949   2132294.41245  23948760.1784   23948767.4864
       206.0004        144.0004
  24140118.8734    4065438.27349   3171045.16245  24140119.7134   24140124.0124
       210.0004        146.0004
  20682141.4654   -3266069.96049  -2517300.48547  20682140.9124   20682142.1714
       238.0004        201.0004
  20495808.7964     335026.13749    287119.65247  20495808.3574   20495812.4584
       237.0004        206.0004
  24664865.1254   -2122438.47449  -1624079.98745  24664865.5494   24664871.1494
       204.0004        132.0004
  23833089.2004   -3678648.57249  -2841151.49545  23833088.4664   23833094.9604
       207.0004        145.0004
  21317313.1864    -628667.40549   -462675.55447  21317313.0214   21317316.5144
       236.0004        194.0004
  24134532.4424     250495.27549    222916.58145  24134532.6614   24134539.7634
       211.0004        146.0004
  22350615.3454   -5150675.79549  -3967941.97846  22350615.4514   22350618.7414
       225.0004        169.0004
 06  8 30 17 59  0.0000000  0  9G 1G25G23G20G 4G27G16G24G13
  23960981.9434    2782450.69349   2182337.33145  23960981.5184   23960987.1344
       208.0004        143.0004
  24155369.5314    4145580.20249   3233493.37145  24155370.0654   24155375.0204
       211.0004        146.0004
  20676392.5074   -3296280.73949  -2540841.34247  20676391.6724   20676393.2084
       238.0004        201.0004
  20503255.2784     374157.84149    317611.87747  20503254.6624   20503258.9184
       237.0004        206.0004
  24665748.4464   -2117796.38249  -1620462.77545  24665748.3184   24665754.1594
       202.0004        132.0004
  23821183.8644   -3741211.19249  -2889901.52945  23821183.0784   23821189.6244
       210.0004        145.0004
  21321190.9444    -608289.67149   -446796.80547  21321190.4774   21321194.1574
       236.0004        194.0004
  24138812.2344     272985.71049    240441.56845  24138811.2994   24138818.6734
       209.0004        144.0004
  22337994.2014   -5217000.15949  -4019623.27146  22337995.1184   22337998.2204
       226.0004        170.0004
 06  8 30 17 59 30.0000000  0  9G 1G25G23G20G 4G27G16G24G13
  23973230.5484    2846817.04949   2232492.88245  23973231.3374   23973236.5844
       205.0004        143.0004
  24170611.2824    4225675.59249   3295905.30445  24170611.3644   24170616.0014
       210.0004        146.0004
  20670683.7334   -3326280.37649  -2564217.67247  20670683.0844   20670684.3034
       238.0004        202.0004
  20510806.3274     413838.60649    348531.94047  20510806.0444   20510810.0944
       237.0004        206.0004
  24666719.0154   -2112695.11949  -1616487.79745  24666718.5964   24666726.1514
       198.0004        132.0004
  23809315.8734   -3803578.39949  -2938499.28145  23809315.1944   23809321.5594
       210.0004        147.0004
  21325180.0214    -587326.82149   -430462.12647  21325179.6054   21325183.4554
       235.0004        193.0004
  24143169.7204     295883.82249    258284.22945  24143168.8724   24143175.8274
       209.0004        143.0004
  22325384.6244   -5283263.90449  -4071257.32646  22325384.1384   22325388.0234
       226.0004        170.0004
 06  8 30 18  0  0.0000000  0  9G 1G25G23G20G 4G27G16G24G13
  23985506.4794    2911327.64349   2282760.82845  23985505.6804   23985511.5404
       205.0004        142.0004
  24185843.8844    4305723.21349   3358280.02945  24185843.6694   24185849.6194
       210.0004        145.0004
  20665015.2544   -3356068.49249  -2587429.18147  20665014.8184   20665015.9874
       237.0004        202.0004
  20518461.4404     454066.47149    379878.31947  20518460.7654   20518465.1104
       237.0004        206.0004
  24667776.5234   -2107136.58049  -1612156.45745  24667776.7144   24667783.6434
       200.0004        132.0004
  23797484.7674   -3865750.74249  -2986945.20845  23797484.6344   23797490.5104
       212.0004        147.0004
  21329280.2044    -565780.13749   -413672.50947  21329280.2574   21329283.6404
       235.0004        193.0004
  24147604.1754     319187.17049    276442.65345  24147603.0724   24147611.3444
       210.0004        143.0004
  22312786.6054   -5349467.07649  -4122844.17846  22312787.2494   22312789.6984
       226.0004        170.0004
 06  8 30 18  0 30.0000000  0  9G 1G25G23G20G 4G27G16G24G13
  23997810.0174    2975983.29349   2333141.81445  23997810.6014   23997816.2844
       207.0004        143.0004
  24201067.3014    4385722.50649   3420617.09945  24201067.1304   24201073.0734
       209.0004        144.0004
  20659387.3084   -3385643.57849  -2610474.68847  20659387.0244   20659388.0224
       237.0004        202.0004
  20526220.5934     494841.07049    411650.72747  20526219.8744   20526224.1264
       238.0004        206.0004
  24668921.1514   -2101121.41449  -1607469.32544  24668920.2424   24668928.0114
       201.0004        131.0004
  23785690.8754   -3927727.90049  -3035239.05545  23785690.9794   23785695.5924
       212.0004        149.0004
  21333491.4654    -543650.05349   -396428.29247  21333490.9924   21333494.3584
       236.0004        193.0004
  24152115.4344     342894.51649    294915.88845  24152115.1294   24152121.2714
       211.0004        144.0004
  22300200.2794   -5415608.54749  -4174382.95646  22300199.9834   22300204.8214
       225.0004        170.0004
 06  8 30 18  1  0.0000000  0  9G 1G25G23G20G 4G27G16G24G13
  24010141.0754    3040782.40049   2383634.56545  24010141.9954   24010147.0174
       208.0004        143.0004
  24216280.9334    4465670.82049   3482914.44945  24216281.5974   24216286.2924
       211.0004        144.0004
  20653799.8484   -3415005.92649  -2633354.42847  20653799.3424   20653800.8864
       237.0004        203.0004
  20534083.2724     536159.45349    443846.85647  20534082.8004   20534087.0074
       238.0004        206.0004
  24670152.1984   -2094652.35349  -1602428.50144  24670151.2504   24670157.0704
       202.0004        131.0004
  23773933.8874   -3989511.71349  -3083382.22645  23773934.2884   23773938.6274
       213.0004        150.0004
  21337813.2364    -520939.25449   -378731.56947  21337813.0994   21337816.6054
       235.0004        193.0004
  24156703.0504     367002.21449    313701.09745  24156702.7034   24156709.7934
       212.0004        144.0004
  22287625.5764   -5481688.75349  -4225873.99846  22287625.3084   22287629.7614
       227.0004        170.0004
 06  8 30 18  1 30.0000000  0  9G 1G25G23G20G 4G27G16G24G13
  24022499.8344    3105727.33749   2434240.95045  24022498.7204   24022504.3084
       207.0004        142.0004
  24231485.3054    4545569.95049   3545173.47545  24231485.8714   24231490.2744
       211.0004        144.0004
  20648253.5334   -3444152.15549  -2656065.76347  20648253.2124   20648254.4684
       238.0004        203.0004
  20542049.6134     578022.70649    476467.56147  20542049.1554   20542053.3264
       238.0004        206.0004
  24671469.8724   -2087728.43749  -1597033.28144  24671470.1874   24671475.9554
       201.0004        130.0004
  23762214.0894   -4051100.41049  -3131373.37345  23762213.8724   23762219.2284
       214.0004        151.0004
  21342245.7624    -497646.55649   -360581.42647  21342245.7414   21342249.3064
       236.0004        194.0004
  24161366.8174     391510.36649    332798.34145  24161366.8144   24161373.4044
       209.0004        144.0004
  22275063.1334   -5547704.96849  -4277315.17546  22275063.2254   22275067.5214
       227.0004        171.0004
 06  8 30 18  2  0.0000000  0  9G 1G25G23G20G 4G27G16G24G13
  24034886.1554    3170818.59249   2484961.37645  24034885.6054   24034893.0474
       207.0004        140.0004
  24246680.2084    4625418.96249   3607393.43345  24246680.7624   24246685.2234
       211.0004        143.0004
  20642748.6044   -3473080.97749  -2678607.69647  20642748.3334   20642749.4004
       238.0004        204.0004
  20550119.4344     620429.83149    509512.06447  20550118.9694   20550123.1934
       238.0004        206.0004
  24672874.0644   -2080350.39949  -1591284.16844  24672874.1754   24672879.9984
       204.0004        129.0004
  23750531.2464   -4112494.14949  -3179212.60245  23750531.1394   23750536.5954
       214.0004        153.0004
  21346788.8594    -473772.55749   -341978.32147  21346788.6464   21346792.2194
       236.0004        194.0004
  24166106.3574     416417.66449    352206.60345  24166104.9744   24166113.2544
       208.0004        143.0004
  22262513.0704   -5613656.08149  -4328705.62446  22262513.0434   22262516.4804
       228.0004        171.0004
 06  8 30 18  2 30.0000000  0  9G 1G25G23G20G 4G27G16G24G13
  24047300.4784    3236056.03549   2535795.69745  24047299.8914   24047307.2064
       206.0004        140.0004
  24261865.3974    4705217.02849   3669573.69445  24261865.4604   24261870.5394
       212.0004        142.0004
  20637285.1704   -3501791.55849  -2700979.56647  20637284.6454   20637285.9664
       237.0004        203.0004
  20558292.4964     663379.28349    542979.15547  20558291.8514   20558295.9614
       238.0004        206.0004
  24674364.2054   -2072519.81649  -1585182.43344  24674363.9934   24674369.9644
       204.0004        131.0004
  23738885.4324   -4173693.24349  -3226900.16945  23738885.1624   23738890.4354
       213.0004        153.0004
  21351442.3224    -449318.54449   -322923.25147  21351441.8444   21351445.7934
       236.0004        194.0004
  24170921.5604     441722.00649    371924.25145  24170921.2294   24170928.1484
       211.0004        143.0004
  22249975.3854   -5679541.81849  -4380045.12646  22249975.9324   22249978.6614
       225.0004        170.0004
 06  8 30 18  3  0.0000000  0  9G 1G25G23G20G 4G27G16G24G13
  24059742.6994    3301439.93249   2586744.14445  24059743.1664   24059750.3644
       206.0004        138.0004
  24277040.7454    4784963.29849   3731713.60045  24277040.8044   24277046.4484
       210.0004        141.0004
  20631863.4734   -3530282.71349  -2723180.45947  20631862.9584   20631863.9794
       237.0004        203.0004
  20566568.4634     706869.81149    576867.86347  20566567.9814   20566572.0704
       238.0004        206.0004
  24675940.2814   -2064237.86749  -1578728.97844  24675941.6514   24675946.6634
       202.0004        131.0004
  23727276.5374   -4234697.92949  -3274436.25445  23727276.2384   23727281.9934
       214.0004        154.0004
  21356205.9514    -424285.54649   -303417.02547  21356205.6664   21356209.5784
       236.0004        195.0004
  24175812.0034     467421.28949    391949.63145  24175812.2834   24175818.4324
       209.0004        143.0004
  22237450.3094   -5745361.19949  -4431332.93146  22237450.7234   22237454.1594
       224.0004        170.0004
 06  8 30 18  3 30.0000000  0  9G 1G25G23G20G 4G27G16G24G13
  24072212.5794    3366970.16249   2637806.60345  24072210.8154   24072219.3574
       206.0004        137.0004
  24292205.8644    4864656.75749   3793812.34845  24292206.6754   24292211.3174
       210.0004        141.0004
  20626483.6974   -3558553.51549  -2745209.64747  20626483.2434   20626484.2774
       237.0004        203.0004
  20574947.2124     750900.00849    611177.09247  20574946.5814   20574950.7714
       238.0004        206.0004
  24677601.9514   -2055506.17949  -1571925.09044  24677602.5314   24677608.0074
       203.0004        131.0004
  23715704.7364   -4295508.62749  -3321821.16945  23715705.4194   23715709.7154
       214.0004        154.0004
  21361079.5684    -398674.64149   -283460.48347  21361078.8234   21361082.6994
       235.0004        195.0004
  24180777.1234     493513.63749    412281.31245  24180776.6974   24180784.4544
       209.0004        143.0004
  22224937.9944   -5811113.57249  -4482568.52146  22224937.5064   22224941.7234
       225.0004        170.0004
 06  8 30 18  4  0.0000000  0  9G 1G25G23G20G 4G27G16G24G13
  24084710.6124    3432647.26249   2688983.52845  24084710.7824   24084715.9264
       206.0004        137.0004
  24307360.8314    4944296.73649   3855869.43945  24307358.9964   24307365.5764
       207.0004        138.0004
  20621146.1244   -3586602.38749  -2767065.90347  20621145.7384   20621147.0734
       237.0004        203.0004
  20583428.3974     795469.03249    645906.18847  20583427.6804   20583432.0514
       238.0004        206.0004
  24679349.0444   -2046325.55449  -1564771.33544  24679348.1634   24679357.4844
       200.0004        129.0004
  23704169.8534   -4356125.35649  -3369054.94645  23704169.2554   23704174.8114
       213.0004        154.0004
  21366062.9554    -372486.55849   -263054.19447  21366062.4834   21366066.4384
       236.0004        194.0004
  24185816.6714     519997.29449    432917.91945  24185815.7284   24185824.9134
       207.0004        143.0004
  22212438.7194   -5876797.91449  -4533751.09646  22212438.5594   22212442.7894
       225.0004        171.0004
 06  8 30 18  4 30.0000000  0  9G 1G25G23G20G 4G27G16G24G13
  24097236.7434    3498471.38549   2740274.99645  24097236.4104   24097242.7454
       207.0004        136.0004
  24322505.4854    5023882.70449   3917884.43645  24322504.2114   24322509.8944
       207.0004        136.0004
  20615851.0954   -3614428.10549  -2788748.26747  20615850.6844   20615851.5934
       237.0004        203.0004
  20592011.8704     840575.26549    681053.88747  20592011.4874   20592015.6484
       239.0004        206.0004
  24681181.2874   -2036697.34849  -1557268.82044  24681183.2524   24681187.3614
       202.0004        128.0004
  23692671.7514   -4416548.28849  -3416137.70245  23692671.7654   23692676.4394
       213.0004        153.0004
  21371156.0334    -345722.52149   -242199.10047  21371155.3274   21371159.3234
       236.0004        195.0004
  24190930.3534     546870.29849    453857.89845  24190929.4984   24190937.9524
       207.0004        142.0004
  22199952.5414   -5942413.27449  -4584879.91946  22199952.1434   22199956.1334
       225.0004        171.0004
 06  8 30 18  5  0.0000000  0  9G 1G25G23G20G 4G27G16G24G13
  24109790.4974    3564442.42649   2791680.96545  24109787.7014   24109796.1314
       205.0004        134.0004
  24337639.7364    5103413.58849   3979856.50945  24337640.3424   24337644.2324
       207.0004        136.0004
  20610598.7064   -3642029.68949  -2810255.98847  20610598.2304   20610599.5434
       238.0004        204.0004
  20600697.3644     886217.27849    716619.07747  20600696.8044   20600700.8904
       238.0004        206.0004
  24683098.5144   -2026622.96849  -1549418.68644  24683098.8964   24683103.0124
       203.0004        131.0004
  23681210.3704   -4476777.78449  -3463069.74645  23681209.8604   23681215.2894
       212.0004        152.0004
  21376358.4434    -318383.54449   -220896.00947  21376357.9854   21376361.9724
       236.0004        194.0004
  24196117.8174     574130.40849    475099.53045  24196117.6764   24196124.5034
       208.0004        142.0004
  22187479.6014   -6007959.02849  -4635954.49946  22187479.8474   22187482.5634
       226.0004        171.0004
 06  8 30 18  5 30.0000000  0  9G 1G25G23G20G 4G27G16G24G13
  24122372.3814    3630560.94249   2843201.83045  24122372.7494   24122379.5444
       204.0004        132.0004
  24352763.4654    5182889.03649   4041785.37545  24352763.1634   24352769.3414
       208.0004        136.0004
  20605389.2574   -3669405.77049  -2831587.98947  20605388.9764   20605390.2194
       238.0004        204.0004
  20609484.5424     932394.31649    752601.17047  20609483.9014   20609487.9714
       238.0004        205.0004
  24685100.3994   -2016103.34449  -1541221.59744  24685101.1804   24685107.3854
       203.0004        130.0004
  23669785.8004   -4536813.76249  -3509850.99745  23669784.9194   23669790.5734
       213.0004        152.0004
  21381670.0544    -290470.72549   -199145.76147  21381669.7684   21381673.8224
       235.0004        194.0004
  24201378.8004     601776.37149    496641.80045  24201378.4044   24201385.5904
       207.0004        142.0004
  22175020.0554   -6073434.09349  -4686973.99846  22175020.2334   22175023.0224
       225.0004        171.0004
 06  8 30 18  6  0.0000000  0  9G 1G25G23G20G 4G27G16G24G13
  24134982.7344    3696827.46049   2894838.00544  24134983.1594   24134989.0494
       205.0004        130.0004
  24367876.5414    5262308.70949   4103670.79845  24367878.6694   24367881.6964
       206.0004        135.0004
  20600222.9904   -3696554.72149  -2852743.00947  20600222.3234   20600223.6754
       238.0004        204.0004
  20618373.3144     979105.05949    788999.13947  20618372.8084   20618377.0014
       238.0004        205.0004
  24687186.5354   -2005139.57649  -1532678.40044  24687186.4464   24687193.5834
       200.0004        129.0004
  23658398.1234   -4596656.21549  -3556481.44345  23658397.3624   23658403.7834
       212.0004        153.0004
  21387090.7644    -261984.76049   -176948.91047  21387090.2564   21387094.1224
       235.0004        194.0004
  24206712.8144     629806.34449    518483.32845  24206712.2524   24206719.2544
       206.0004        141.0004
  22162574.2064   -6138837.25449  -4737937.48146  22162574.2594   22162577.4544
       226.0004        172.0004
 06  8 30 18  6 30.0000000  0  9G 1G25G23G20G 4G27G16G24G13
  24147621.0494    3763241.77449   2946589.36844  24147619.5014   24147626.8164
       204.0004        130.0004
  24382978.8304    5341671.64549   4165511.99545  24382979.3954   24382985.2074
       205.0004        134.0004
  20595100.0664   -3723475.68949  -2873720.38147  20595099.5594   20595100.7794
       238.0004        204.0004
  20627363.2724    1026347.61349    825811.50647  20627362.5644   20627366.7664
       238.0004        205.0004
  24689357.0964   -1993733.32649  -1523790.41844  24689355.9554   24689360.9154
       198.0004        126.0004
  23647047.0004   -4656305.93649  -3602961.70845  23647046.8004   23647052.8364
       212.0004        153.0004
  21392620.2464    -232926.87849   -154306.40747  21392619.9874   21392623.5764
       235.0004        193.0004
  24212118.9414     658217.80749    540622.14345  24212119.2494   24212126.1994
       208.0004        140.0004
  22150142.1704   -6204167.81949  -4788844.38746  22150142.9754   22150145.6684
       226.0004        172.0004
 06  8 30 18  7  0.0000000  0  9G 1G25G23G20G 4G27G16G24G13
  24160287.3894    3829804.27949   2998456.21144  24160287.1714   24160292.9724
       203.0004        130.0004
  24398070.2284    5420977.26049   4227308.54745  24398070.4974   24398075.8784
       206.0004        134.0004
  20590020.8464   -3750167.17249  -2894518.93747  20590020.3264   20590021.1644
       237.0004        203.0004
  20636454.2814    1074121.12749    863037.60747  20636453.6204   20636457.7494
       238.0004        205.0004
  24691611.5114   -1981885.63849  -1514558.44744  24691610.5744   24691616.1784
       199.0004        128.0004
  23635732.7504   -4715763.03249  -3649291.87545  23635732.3634   23635738.5494
       213.0004        153.0004
  21398258.4084    -203298.31649   -131219.21647  21398257.8544   21398262.0934
       235.0004        193.0004
  24217597.8414     687009.19849    563056.96345  24217597.3864   24217605.5194
       208.0004        140.0004
  22137724.1324   -6269424.80049  -4839693.96746  22137725.0024   22137727.9184
       226.0004        173.0004
 06  8 30 18  7 30.0000000  0  9G 1G25G23G20G 4G27G16G24G13
  24172982.1624    3896515.28349   3050438.76244  24172981.5534   24172988.3754
       203.0004        129.0004
  24413150.5884    5500224.99649   4289059.98045  24413149.8484   24413156.5944
       204.0004        133.0004
  20584985.5804   -3776627.71749  -2915137.53247  20584985.0714   20584986.0814
       238.0004        203.0004
  20645646.0074    1122423.98649    900676.18947  20645645.4074   20645649.6264
       238.0004        204.0004
  24693949.5914   -1969597.79949  -1504983.53144  24693950.9634   24693956.5084
       204.0004        129.0004
  23624455.0594   -4775027.43749  -3695471.90545  23624455.3104   23624460.4694
       213.0004        153.0004
  21404004.9164    -173099.99949   -107688.06247  21404004.3364   21404008.2594
       235.0004        193.0004
  24223148.7234     716178.49849    585786.27945  24223149.1534   24223155.5454
       211.0004        142.0004
  22125320.3864   -6334607.17149  -4890485.38646  22125320.1004   22125324.4024
       227.0004        173.0004
 06  8 30 18  8  0.0000000  0  9G 1G25G23G20G 4G27G16G24G13
  24185705.2244    3963374.65459   3102536.91944  24185706.6044   24185708.2054
       204.0004        128.0004
  24428219.6284    5579413.25859   4350765.04144  24428220.5054   24428229.6174
       203.0004        129.0004
  20579994.3944   -3802856.55949  -2935575.58947  20579994.0074   20579994.9294
       238.0004        203.0004
  20654938.1384    1171254.58849    938725.98647  20654937.3844   20654941.6494
       238.0004        204.0004
  24696371.4884   -1956871.59649  -1495067.05344  24696370.4094   24696376.2484
       198.0004        128.0004
  23613213.9454   -4834099.92549  -3741502.38945  23613214.1124   23613218.8064
       215.0004        153.0004
  21409859.5034    -142333.98749    -83714.55147  21409859.1934   21409863.3824
       234.0004        192.0004
  24228771.1054     745723.38749    608808.26645  24228771.2214   24228777.7424
       209.0004        141.0004
  22112930.9354   -6399714.43149  -4941218.29546  22112931.0264   22112934.5874
       229.0004        174.0004
 06  8 30 18  8 30.0000000  0  9G 1G25G23G20G 4G27G16G24G13
  24198456.1584    4030381.47659   3154749.99444  24198455.2484   24198459.7564
       201.0004        126.0004
  24443276.9324    5658539.86759   4412421.64144  24443278.3904   24443281.9164
       203.0004        127.0004
  20575047.3464   -3828853.61149  -2955833.02747  20575047.1614   20575048.0394
       237.0004        203.0004
  20664330.2734    1220610.53549    977185.15647  20664329.8824   20664334.0134
       238.0004        204.0004
  24698876.0944   -1943709.34549  -1484810.73744  24698875.1154   24698882.0254
       199.0004        127.0004
  23602009.1784   -4892981.62449  -3787384.19345  23602008.3504   23602014.2184
       217.0004        153.0004
  21415821.8124    -111001.93749    -59299.96547  21415821.4354   21415825.5834
       235.0004        192.0004
  24234464.2524     775640.70249    632120.45145  24234464.3994   24234469.5594
       209.0004        140.0004
  22100555.7184   -6464746.61149  -4991892.69146  22100554.6344   22100559.3194
       227.0004        174.0004
 06  8 30 18  9  0.0000000  0  9G 1G25G23G20G 4G27G16G24G13
  24211235.6844    4097538.48449   3207080.07444  24211236.2104   24211240.7794
       203.0004        126.0004
  24458323.4164    5737609.23049   4474034.10344  24458322.6364   24458330.3754
       201.0004        128.0004
  20570145.1644   -3854614.86849  -2975906.73047  20570144.9254   20570145.8074
       237.0004        204.0004
  20673822.5914    1270492.73249   1016054.38447  20673821.9114   20673826.1084
       237.0004        203.0004
  24701463.7244   -1930110.12349  -1474213.94544  24701461.4844   24701469.0124
       199.0004        126.0004
  23590840.9524   -4951670.67049  -3833115.89745  23590840.0614   23590846.2514
       215.0004        154.0004
  21421892.0764     -79102.56149    -34443.30947  21421891.8434   21421895.4674
       235.0004        192.0004
  24240228.3564     805930.97949    655723.25045  24240228.2094   24240236.3254
       209.0004        141.0004
  22088195.4564   -6529700.16749  -5042505.82846  22088195.3314   22088198.8004
       228.0004        174.0004
 06  8 30 18  9 30.0000000  0  9G 1G25G23G20G 4G27G16G24G13
  24224043.5814    4164843.35649   3259525.38144  24224045.0834   24224050.8334
       203.0004        127.0004
  24473358.2034    5816616.97259   4535598.53644  24473359.4464   24473363.4684
       199.0004        128.0004
  20565287.6004   -3880141.63349  -2995797.71047  20565287.1184   20565288.2674
       238.0004        204.0004
  20683414.2024    1320897.43949   1055330.76647  20683413.7414   20683418.1274
       237.0004        203.0004
  24704133.8474   -1916077.59049  -1463279.53144  24704134.2244   24704139.8634
       200.0004        126.0004
  23579709.0244   -5010169.34549  -3878699.25845  23579709.4874   23579714.2664
       213.0004        155.0004
  21428069.6634     -46639.55249     -9147.45647  21428069.5764   21428073.1534
       236.0004        192.0004
  24246062.5754     836589.76449    679613.20645  24246062.5604   24246069.7184
       210.0004        142.0004
  22075849.8704   -6594576.50549  -5093058.78846  22075849.7574   22075853.7004
       228.0004        174.0004
 06  8 30 18 10  0.0000000  0  9G 1G25G23G20G 4G27G16G24G13
  24236880.1744    4232300.08549   3312089.00744  24236878.4184   24236887.2044
       201.0004        124.0004
  24488381.8454    5895566.08249   4597117.27044  24488381.5664   24488387.5834
       202.0004        127.0004
  20560475.6254   -3905428.69649  -3015501.90047  20560475.0894   20560476.3124
       238.0004        204.0004
  20693105.7354    1371826.75049   1095015.92747  20693105.1614   20693109.3814
       237.0004        203.0004
  24706887.2534   -1901609.45149  -1452005.66644  24706887.3984   24706893.2214
       202.0004        126.0004
  23568613.8904   -5068474.49449  -3924131.81545  23568613.6284   23568619.0814
       213.0004        156.0004
  21434354.8954     -13610.65449     16589.34147  21434354.5454   21434358.6554
       234.0004        192.0004
  24251967.3584     867618.88149    703791.71445  24251967.3324   24251975.1864
       213.0004        143.0004
  22063519.8984   -6659370.88149  -5143547.88946  22063519.8334   22063523.3534
       228.0004        175.0004
 06  8 30 18 10 30.0000000  0  9G 1G25G23G20G 4G27G16G24G13
  24249744.9134    4299905.04849   3364768.16944  24249744.8514   24249750.5394
       200.0004        124.0004
  24503393.4144    5974452.27949   4658586.99144  24503393.5244   24503400.3684
       202.0004        126.0004
  20555708.7364   -3930478.66749  -3035021.34547  20555708.0594   20555709.3864
       238.0004        204.0004
  20702896.0774    1423275.35749   1135105.73947  20702895.2144   20702899.8184
       237.0004        203.0004
  24709722.6294   -1886710.73249  -1440396.29944  24709723.9444   24709728.4854
       203.0004        128.0004
  23557554.7544   -5126590.11749  -3969416.69445  23557554.7944   23557559.7964
       214.0004        155.0004
  21440746.8484      19979.24049     42763.29247  21440746.6904   21440750.2564
       235.0004        192.0004
  24257941.5944     899012.74949    728254.43845  24257941.3874   24257948.4484
       213.0004        143.0004
  22051204.9964   -6724086.09949  -5193975.30146  22051204.7794   22051208.9294
       227.0004        175.0004
 06  8 30 18 11  0.0000000  0  9G 1G25G23G20G 4G27G16G24G13
  24262638.5014    4367660.40249   3417564.45344  24262638.8654   24262647.7484
       201.0004        123.0004
  24518393.3064    6053277.03349   4720008.82844  24518389.8024   24518400.5344
       201.0004        126.0004
  20550987.6414   -3955288.13149  -3054353.39247  20550987.3484   20550988.3984
       238.0004        204.0004
  20712785.3744    1475244.02749   1175600.78547  20712784.7084   20712789.3884
       237.0004        203.0004
  24712639.8744   -1871381.09549  -1428451.13144  24712639.9354   24712646.4414
       202.0004        130.0004
  23546532.0794   -5184514.07649  -4014552.23245  23546531.8454   23546536.6724
       214.0004        155.0004
  21447245.7214      54130.89549     69374.97447  21447244.9914   21447249.0024
       234.0004        191.0004
  24263984.9164     930770.86849    753001.00645  24263984.6634   24263991.1894
       209.0004        143.0004
  22038905.6664   -6788719.20349  -5244338.74646  22038906.2734   22038908.8724
       227.0004        175.0004
 06  8 30 18 11 30.0000000  0  9G 1G25G23G20G 4G27G16G24G13
  24275560.2434    4435565.61249   3470477.56544  24275560.4894   24275566.3094
       198.0004        122.0004
  24533381.2354    6132038.92849   4781381.67544  24533381.6434   24533387.1634
       200.0004        124.0004
  20546312.3774   -3979856.72549  -3073497.74147  20546311.9644   20546313.0824
       238.0004        204.0004
  20722773.2864    1527730.35249   1216499.20547  20722772.6234   20722777.0804
       237.0004        203.0004
  24715638.5914   -1855622.51549  -1416171.72344  24715640.6784   24715645.6394
       203.0004        131.0004
  23535545.7724   -5242247.70049  -4059539.44945  23535544.6614   23535550.2374
       215.0004        155.0004
  21453851.0214      88842.13649     96422.69347  21453850.7684   21453854.3764
       234.0004        191.0004
  24270097.1674     962890.83849    778029.50945  24270096.8024   24270103.1254
       211.0004        142.0004
  22026622.0664   -6853269.92649  -5294637.98746  22026621.9174   22026625.7104
       227.0004        175.0004
 06  8 30 18 12  0.0000000  0  9G 1G25G23G20G 4G27G16G24G13
  24288510.8894    4503621.17249   3523507.83244  24288510.8044   24288518.0114
       199.0004        123.0004
  24548357.1834    6210737.69749   4842705.34944  24548357.5964   24548362.8444
       199.0004        122.0004
  20541683.2634   -4004182.75849  -3092453.08747  20541682.5994   20541684.0504
       238.0004        204.0004
  20732859.3354    1580733.11849   1257800.04747  20732858.7814   20732863.1904
       237.0004        203.0004
  24718718.7044   -1839436.54749  -1403559.27944  24718718.2574   24718726.5554
       203.0004        131.0004
  23524595.7084   -5299791.00249  -4104378.36345  23524595.6714   23524600.2894
       214.0004        155.0004
  21460562.6824     124111.88649    123905.61647  21460562.4324   21460566.0194
       234.0004        191.0004
  24276277.8434     995370.50049    803338.32245  24276277.2034   24276283.8764
       210.0004        142.0004
  22014354.3244   -6917736.82349  -5344871.90446  22014354.7694   22014358.1734
       228.0004        175.0004
 06  8 30 18 12 30.0000000  0  9G 1G25G23G20G 4G27G16G24G13
  24301490.1154    4571826.66649   3576654.92044  24301488.4004   24301496.9324
       199.0004        122.0004
  24563320.8904    6289372.29849   4903979.02844  24563318.4684   24563324.6354
       195.0004        119.0004
  20537100.5014   -4028265.28249  -3111218.68547  20537100.0614   20537101.1734
       238.0004        204.0004
  20743043.3404    1634249.98549   1299501.48247  20743043.0304   20743047.2144
       237.0004        203.0004
  24721879.8234   -1822825.06449  -1390615.28944  24721879.1494   24721886.8434
       201.0004        130.0004
  23513681.6134   -5357144.72749  -4149069.55445  23513681.1274   23513687.0204
       214.0004        155.0004
  21467380.2464     159938.35649    151822.35547  21467379.8024   21467383.7094
       235.0004        190.0004
  24282526.4964    1028207.32449    828925.43845  24282524.9684   24282532.5364
       210.0004        142.0004
  22002102.7794   -6982119.38049  -5395040.11846  22002103.0314   22002106.2274
       229.0004        176.0004
 06  8 30 18 13  0.0000000  0  9G 1G25G23G20G 4G27G16G24G13
  24314497.8554    4640182.26349   3629918.94444  24314494.3564   24314508.2744
       195.0004        121.0004
  24578272.1824    6367942.11149   4965202.23444  24578272.8064   24578276.7504
       198.0004        119.0004
  20532564.2614   -4052103.31249  -3129793.77547  20532563.6924   20532564.9444
       238.0004        204.0004
  20753324.7804    1688279.27749   1341602.21147  20753324.0534   20753328.6934
       237.0004        202.0004
  24725121.8284   -1805789.45649  -1377340.78744  24725121.4354   24725128.2524
       203.0004        131.0004
  23502803.5474   -5414309.49249  -4193613.50645  23502803.3984   23502809.0204
       215.0004        155.0004
  21474303.4124     196320.05949    180171.73447  21474302.8204   21474307.0314
       234.0004        190.0004
  24288842.7834    1061399.20149    854789.21545  24288842.4344   24288848.5254
       208.0004        141.0004
  21989867.4774   -7046416.69449  -5445141.89946  21989867.4224   21989871.4414
       228.0004        177.0004
 06  8 30 18 13 30.0000000  0  9G 1G25G23G20G 4G27G16G24G13
  24327534.4024    4708690.17249   3683301.68144  24327535.0284   24327541.1644
       197.0004        118.0004
  24593211.5904    6446448.74449   5026376.19844  24593211.3744   24593216.2304
       196.0004        117.0004
  20528075.2704   -4075693.16349  -3148175.46947  20528074.8694   20528076.1774
       238.0004        205.0004
  20763703.8554    1742821.50649   1384102.63347  20763703.3474   20763707.4314
       237.0004        202.0004
  24728444.3854   -1788329.31849  -1363735.49344  24728444.6044   24728449.9504
       204.0004        130.0004
  23491961.8614   -5471283.49049  -4238008.80145  23491961.2844   23491967.0454
       214.0004        155.0004
  21481332.4394     233257.77049    208954.36847  21481332.0234   21481335.9574
       235.0004        190.0004
  24295226.4844    1094946.27749    880929.76445  24295226.0654   24295233.0614
       210.0004        141.0004
  21977649.0004   -7110625.28049  -5495174.54446  21977648.4514   21977652.2364
       229.0004        177.0004
 06  8 30 18 14  0.0000000  0  9G 1G25G23G20G 4G27G16G24G13
  24340600.2284    4777351.13348   3736803.66044  24340599.5344   24340607.9274
       192.0004        115.0004
  24608139.1244    6524892.52549   5087501.16444  24608140.5894   24608142.7134
       196.0004        115.0004
  20523633.8694   -4099033.02949  -3166362.37747  20523633.3844   20523634.5684
       238.0004        205.0004
  20774180.3904    1797876.03149   1427002.24647  20774179.7154   20774184.1824
       237.0004        202.0004
  24731847.5814   -1770445.36049  -1349799.96644  24731847.7584   24731853.8474
       201.0004        130.0004
  23481156.4694   -5528065.82649  -4282254.75545  23481155.9544   23481161.8194
       214.0004        155.0004
  21488467.0914     270750.78549    238169.70547  21488466.5444   21488470.6104
       234.0004        189.0004
  24301677.6144    1128847.23649    907346.07845  24301677.1794   24301683.6474
       207.0004        140.0004
  21965447.6794   -7174743.62049  -5545136.87346  21965447.8274   21965450.8224
       229.0004        177.0004
 06  8 30 18 14 30.0000000  0  9G 1G25G23G20G 4G27G16G24G13
  24353694.6294    4846161.47649   3790422.01844  24353695.6374   24353699.4074
       196.0004        115.0004
  24623053.7924    6603268.73849   5148573.48244  24623057.3924   24623056.6434
       197.0004        116.0004
  20519239.5714   -4122125.31649  -3184356.36247  20519239.1764   20519240.4564
       238.0004        205.0004
  20784753.3864    1853437.17449   1470296.62847  20784752.7054   20784757.2164
       236.0004        202.0004
  24735330.1274   -1752143.26149  -1335538.59844  24735329.2484   24735336.4974
       200.0004        128.0004
  23470386.6514   -5584661.27549  -4326355.08545  23470386.5104   23470391.6944
       216.0004        157.0004
  21495706.4354     308793.75649    267813.57947  21495706.5624   21495709.7284
       234.0004        189.0004
  24308194.7824    1163095.50649    934033.01245  24308194.0674   24308201.3084
       207.0004        140.0004
  21953262.9924   -7238774.75649  -5595031.24446  21953263.3624   21953266.4104
       230.0004        177.0004
 06  8 30 18 15  0.0000000  0  9G 1G25G23G20G 4G27G16G24G13
  24366817.4914    4915122.69448   3844157.93944  24366816.6244   24366820.9574
       194.0004        113.0004
  24637955.7504    6681578.53748   5209594.08044  24637954.6794   24637957.8044
       194.0004        116.0004
  20514892.9104   -4144967.34249  -3202155.33747  20514892.6054   20514893.5324
       239.0004        205.0004
  20795422.6314    1909504.64449   1513985.54747  20795421.8994   20795426.5524
       237.0004        202.0004
  24738892.5474   -1733422.95349  -1320951.36744  24738890.6324   24738900.7974
       200.0004        129.0004
  23459652.8244   -5641068.55649  -4370308.78445  23459652.1414   23459658.3674
       215.0004        157.0004
  21503050.3534     347386.49649    297885.84247  21503050.0984   21503053.3304
       234.0004        189.0004
  24314778.0954    1197690.71949    960990.26745  24314778.0794   24314784.2764
       210.0004        140.0004
  21941095.4434   -7302715.54849  -5644855.22446  21941095.1164   21941098.9434
       229.0004        177.0004
 06  8 30 18 15 30.0000000  0  9G 1G25G23G20G 4G27G16G24G13
  24379968.8934    4984233.58148   3898010.55944  24379968.6694   24379974.4364
       193.0004        110.0004
  24652844.4694    6759819.88048   5270561.34144  24652845.8204   24652851.5594
       193.0004        115.0004
  20510593.8824   -4167559.21549  -3219759.38947  20510593.5824   20510594.5814
       239.0004        206.0004
  20806187.6474    1966075.12449   1558066.42447  20806187.4164   20806191.6374
       237.0004        202.0004
  24742533.9354   -1714287.56849  -1306040.70644  24742531.9124   24742539.8414
       201.0004        128.0004
  23448954.2854   -5697289.43749  -4414117.25245  23448953.5374   23448959.4154
       214.0004        157.0004
  21510498.4024     386526.22749    328384.33447  21510498.2324   21510501.9964
       235.0004        189.0004
  24321426.7554    1232629.05749    988214.90245  24321426.8474   24321434.3244
       208.0004        140.0004
  21928944.9754   -7366566.70249  -5694609.34546  21928944.6774   21928949.1384
       230.0004        177.0004
 06  8 30 18 16  0.0000000  0  9G 1G25G23G20G 4G27G16G24G13
  24393148.9744    5053494.80148   3951980.23144                  24393150.7534
       194.0004        111.0004
  24667720.1824    6837993.00948   5331475.43944  24667719.9034   24667726.8654
       194.0004        117.0004
  20506342.7694   -4189898.95549  -3237166.97147  20506342.3754   20506343.5244
       238.0004        205.0004
  20817048.2914    2023147.75349   1602538.58347  20817047.8184   20817052.0714
       237.0004        202.0004
  24746254.0614   -1694738.22349  -1290807.47344  24746254.4354   24746261.2584
       201.0004        129.0004
  23438291.2274   -5753323.48349  -4457780.13345  23438291.8384   23438296.0344
       216.0004        158.0004
  21518050.3784     426211.81749    359308.16847  21518049.7044   21518053.8424
       235.0004        188.0004
  24328140.3544    1267909.07949   1015705.82145  24328140.0094   24328148.5474
       207.0004        140.0004
  21916811.8544   -7430326.41749  -5744292.22546  21916811.5674   21916815.4824
       230.0004        178.0004
 06  8 30 18 16 30.0000000  0  9G 1G25G23G20G 4G27G16G24G13
  24406357.8974    5122908.20948   4006068.54644                  24406357.9004
       192.0004        108.0004
  24682583.3904    6916099.05248   5392337.26044  24682584.8424   24682583.4084
       190.0004        116.0004
  20502140.1724   -4211983.62349  -3254375.79947  20502139.6744   20502140.8444
       238.0004        205.0004
  20828004.3894    2080722.42149   1647401.94247  20828004.0034   20828008.4274
       237.0004        202.0004
  24750052.7834   -1674774.62149  -1275251.45344  24750052.3254   24750059.7084
       200.0004        128.0004
  23427664.1984   -5809169.41549  -4501296.41845  23427664.1364   23427668.7874
       216.0004        158.0004
  21525706.2354     466443.68149    390657.66747  21525705.9544   21525709.7294
       235.0004        188.0004
  24334918.9104    1303530.40149   1043462.66245  24334919.3664   24334925.8014
       206.0004        139.0004
  21904696.6694   -7493991.97149  -5793901.72646  21904696.8044   21904699.8654
       230.0004        178.0004
 06  8 30 18 17  0.0000000  0  8G 1G25G23G20G27G16G24G13
  24419596.3924    5192476.24048   4060277.35544  24419598.4144   24419601.3944
       193.0004        109.0004
  24697434.1714    6994139.84348   5453148.18344  24697434.7324   24697439.7434
       191.0004        117.0004
  20497986.8144   -4233809.48949  -3271382.96647  20497986.3794   20497987.6174
       238.0004        205.0004
  20839056.1864    2138799.70449   1692656.95147  20839056.0024   20839060.1134
       238.0004        202.0004
  23417073.2424   -5864825.54849  -4544664.81845  23417072.8284   23417078.0074
       215.0004        159.0004
  21533466.2324     507222.65549    422433.49747  21533465.9624   21533469.4294
       236.0004        188.0004
  24341762.4224    1339493.21349   1071485.59045  24341762.4594   24341769.0434
       207.0004        140.0004
  21892600.0854   -7557559.84249  -5843435.11246  21892600.1484   21892603.8624
       230.0004        178.0004
 06  8 30 18 17 30.0000000  0  8G 1G25G23G20G27G16G24G13
  24432863.8094    5262195.90148   4114604.29444  24432864.7104
       189.0004        106.0004
  24712271.8544    7072111.92148   5513905.58844  24712268.1634   24712276.6534
       189.0004        117.0004
  20493882.3504   -4255378.27849  -3288189.80947  20493881.8914   20493883.4174
       239.0004        206.0004
  20850202.7084    2197374.74049   1738299.81547  20850202.1354   20850206.3104
       237.0004        202.0004
  23406517.6564   -5920294.95849  -4587887.71745  23406517.3754   23406522.7064
       214.0004        160.0004
  21541329.5204     548544.09149    454632.01747  21541329.4584   21541332.7374
       235.0004        188.0004
  24348670.1934    1375792.13849   1099770.42745  24348670.0074   24348676.0904
       206.0004        140.0004
  21880521.7354   -7621031.96549  -5892893.89146  21880522.6794   21880525.2134
       230.0004        179.0004
 06  8 30 18 18  0.0000000  0  8G 1G25G23G20G27G16G24G13
  24446159.3904    5332066.10148   4169048.49944  24446158.5574
       192.0004        106.0004
  24727096.0304    7150013.60448   5574608.18644  24727095.9884   24727104.4294
       187.0004        114.0004
  20489826.8934   -4276689.98049  -3304796.32147  20489826.5684   20489827.5014
       239.0004        206.0004
  20861443.3794    2256444.77649   1784328.39747  20861442.8844   20861447.1654
       238.0004        201.0004
  23395997.2314   -5975579.29349  -4630966.40445  23395996.7884   23396002.5284
       215.0004        160.0004
  21549295.3494     590404.98549    487250.90147  21549294.7944   21549298.5384
       234.0004        188.0004
  24355640.8764    1412423.54949   1128314.34645  24355639.5824   24355647.1684
       205.0004        139.0004
  21868461.6234   -7684408.38449  -5942278.09046  21868461.5194   21868465.0004
       230.0004        179.0004
 06  8 30 18 18 30.0000000  0  8G 1G25G23G20G27G16G24G13
  24459484.6114    5402088.71148   4223611.52644  24459490.2974
       190.0004        108.0004
  24741907.0854    7227846.19748   5635256.93144  24741907.9844   24741915.4854
       185.0004        113.0004
  20485821.0684   -4297741.13849  -3321199.81647  20485820.9514   20485821.6914
       239.0004        206.0004
  20872778.1194    2316009.23849   1830742.24647  20872777.7674   20872781.9764
       238.0004        201.0004
  23385512.4334   -6030677.31749  -4673899.91345  23385512.4474   23385517.8784
       217.0004        159.0004
  21557363.9104     632805.61049    520290.34947  21557363.5584   21557367.2524
       235.0004        188.0004
  24362674.7544    1449386.89149   1157116.93845  24362675.0214   24362682.6624
       207.0004        140.0004
  21856420.2084   -7747686.27849  -5991585.53146  21856420.0854   21856424.2874
       230.0004        179.0004
 06  8 30 18 19  0.0000000  0  8G 1G25G23G20G27G16G24G13
  24472838.0474    5472262.29458   4278292.05544  24472832.4114
       185.0004        102.0004
  24756704.7814    7305607.78748   5695850.30944  24756705.5894   24756708.2594
       186.0004        110.0004
  20481864.7224   -4318532.26049  -3337400.68347  20481864.5304   20481865.5654
       239.0004        207.0004
  20884206.4634    2376065.21349   1877539.09147  20884205.9454   20884210.0904
       237.0004        201.0004
  23375062.8284   -6085590.83849  -4716689.64345  23375062.7914   23375068.6514
       216.0004        159.0004
  21565534.5774     675742.66149    553747.79347  21565534.1914   21565538.0274
       235.0004        188.0004
  24369771.1274    1486678.57749   1186175.34845  24369771.0194   24369778.2704
       209.0004        141.0004
  21844397.5334   -7810865.89849  -6040816.37746  21844397.9884   21844401.6854
       231.0004        180.0004
 06  8 30 18 19 30.0000000  0  8G 1G25G23G20G27G16G24G13
                   5542588.34558   4333091.64644
       190.0004         98.0004
  24771489.0384    7383299.32358   5756389.13544                  24771493.7224
       185.0004        109.0004
  20477958.3674   -4339060.51449  -3353396.71847  20477957.9654   20477958.8014
       238.0004        206.0004
  20895728.0904    2436612.03749   1924718.41647  20895727.6594   20895731.6224
       236.0004        200.0004
  23364648.4114   -6140319.02449  -4759334.96445  23364648.0614   23364654.7214
       215.0004        159.0004
  21573807.3264     719216.13749    587623.23247  21573806.7544   21573810.4684
       234.0004        188.0004
  24376929.9544    1524297.89149   1215489.06745  24376930.9624   24376936.9754
       208.0004        141.0004
  21832394.1534   -7873944.41449  -6089968.44846  21832393.8784   21832397.5674
       231.0004        180.0004
 06  8 30 18 20  0.0000000  0  8G 1G25G23G20G27G16G24G13
                   5613066.05148   8141493.34143
       184.0004         74.0004
  24786259.6164    7460919.45748   5816872.28144                  24786259.6404
       188.0004        110.0004
  20474102.0264   -4359325.50649  -3369187.62247  20474101.3754   20474102.5614
       238.0004        206.0004
  20907342.6554    2497646.97749   1972278.08447  20907342.1584   20907346.5594
       237.0004        200.0004
  23354268.9274   -6194863.12949  -4801836.83345  23354268.4664   23354274.4824
       214.0004        159.0004
  21582181.6894     763223.62349    621914.77947  21582181.7264   21582185.2904
       235.0004        189.0004
  24384150.4714    1562241.40049   1245055.41345  24384150.1744   24384156.4414
       207.0004        140.0004
  21820409.9154   -7936921.91049  -6139041.80646  21820409.4054   21820413.5504
       231.0004        180.0004
 06  8 30 18 20 30.0000000  0  8G 1G25G23G20G27G16G24G13
                   5683695.77248   8196455.43943
       188.0004         74.0004
  24801016.6964    7538468.27348   5877299.86044  24801013.7454   24801023.2734
       184.0004        109.0004
  20470296.1724   -4379325.50949  -3384772.03747  20470295.8994   20470296.6574
       239.0004        206.0004
  20919049.9234    2559168.73849   2020217.10147  20919049.2644   20919053.8294
       237.0004        200.0004
  23343924.5344   -6249222.63649  -4844194.87445  23343923.9484   23343929.2524
       215.0004        159.0004
  21590657.4084     807763.41149    656621.10947  21590657.0094   21590660.9424
       235.0004        189.0004
  24391432.2314    1600507.53249   1274873.14045  24391432.2834   24391437.9454
       207.0004        140.0004
  21808445.1864   -7999796.64949  -6188035.10046  21808445.1084   21808448.5434
       231.0004        180.0004
 06  8 30 18 21  0.0000000  0  8G 1G25G23G20G27G16G24G13
                   5754477.26348   8251466.21343
       185.0004         74.0004
  24815760.1024    7615944.85648   5937671.20844  24815759.2474   24815766.3134
       188.0004        110.0004
  20466540.9394   -4399059.43149  -3400149.11747  20466540.6694   20466541.4344
       239.0004        206.0004
  20930849.2904    2621174.80249   2068533.49647  20930848.6754   20930853.3984
       237.0004        200.0004
  23333615.1864   -6303398.91549  -4886410.14545  23333614.6254   23333620.3614
       217.0004        160.0004
  21599234.0034     852833.60049    691740.73647  21599233.8924   21599237.5044
       235.0004        189.0004
  24398774.8474    1639093.44749   1304940.05345  24398773.7804   24398781.7074
       208.0004        139.0004
  21796500.2124   -8062567.85049  -6236947.69946  21796500.2374   21796503.8514
       232.0004        180.0004
 06  8 30 18 21 30.0000000  0  8G 1G25G23G20G27G16G24G13
                   5825411.63558   8388568.51443
       181.0004         74.0004
  24830489.9604    7693350.06548   5997986.91244  24830487.8114   24830494.0594
       190.0004        113.0004
  20462836.8424   -4418524.70249  -3415316.85947  20462836.2234   20462837.3894
       238.0004        206.0004
  20942740.7704    2683664.68149   2117226.88447  20942740.3034   20942744.5594
       237.0004        200.0004
  23323340.8164   -6357390.86249  -4928481.76945  23323340.2884   23323346.5004
       217.0004        160.0004
  21607911.4834     898433.70749    727273.28847  21607910.9354   21607914.6244
       235.0004        189.0004
  24406178.1864    1677998.00449   1335255.24845  24406177.6054   24406183.8624
       206.0004        139.0004
  21784575.4554   -8125233.09049  -6285777.73846  21784575.7524   21784578.0334
       233.0004        180.0004
 06  8 30 18 22  0.0000000  0  8G 1G25G23G20G27G16G24G13
                   5896498.15058   8444005.31543
       179.0004         74.0004
  24845205.9644    7770682.58848   6058245.99244  24845207.3814   24845211.6574
       187.0004        112.0004
  20459183.8244   -4437721.32949  -3430275.26547  20459183.2824   20459184.6304
       238.0004        206.0004
  20954723.7274    2746635.33549   2166294.90647  20954723.0674   20954727.3754
       236.0004        200.0004
  23313101.2064   -6411199.92349  -4970410.88645  23313100.5164   23313106.2674
       217.0004        159.0004
  21616689.1954     944561.10949    763216.71047  21616688.7384   21616692.7454
       234.0004        189.0004
  24413641.6284    1717217.88849   1365816.17345  24413641.9274   24413648.6494
       208.0004        139.0004
  21772670.9224   -8187791.88049  -6334524.82846  21772671.0834   21772673.9604
       233.0004        180.0004
 06  8 30 18 22 30.0000000  0  8G 1G25G23G20G27G16G24G13
                   5967737.39358   8499619.80043
       176.0004         74.0004
  24859908.1334    7847942.51648   6118448.52244  24859910.6124   24859913.9224
       193.0004        113.0004
  20455582.4134   -4456646.90049  -3445022.46347  20455581.7254   20455583.1934
       238.0004        206.0004
  20966797.8144    2810085.29949   2215736.41847  20966797.1184   20966801.5644
       237.0004        199.0004
  23302896.4524   -6464826.20849  -5012197.57145  23302895.7014   23302901.4994
       217.0004        160.0004
  21625566.9894     991214.41449    799569.92647  21625566.5224   21625570.4844
       233.0004        188.0004
  24421164.7064    1756751.22649   1396621.31645  24421163.8404   24421172.1154
       206.0004        139.0004
  21760786.9344   -8250242.79949  -6383187.86846  21760787.2804   21760790.2544
       233.0004        181.0004
 06  8 30 18 23  0.0000000  0  8G 1G25G23G20G27G16G24G13
                   6039128.14158   8635185.42043
       181.0004         74.0004
  24874596.2234    7925128.40048   6178593.34544  24874594.8364   24874603.0274
       192.0004        112.0004
  20452032.5304   -4475301.46149  -3459558.47247  20452032.2434   20452033.3994
       239.0004        207.0004
  20978962.5854    2874011.50449   2265549.02747  20978962.0374   20978966.2454
       237.0004        199.0004
  23292726.2354   -6518270.90349  -5053842.76345  23292725.5724   23292731.7564
       216.0004        160.0004
  21634544.2814    1038390.66249    836330.64147  21634543.6574   21634547.3894
       234.0004        188.0004
  24428746.7594    1796594.81049   1427668.23645  24428747.1204   24428753.0044
       203.0004        139.0004
  21748923.5034   -8312585.58549  -6431766.64646  21748923.2044   21748926.6934
       233.0004        181.0004
 06  8 30 18 23 30.0000000  0  8G 1G25G23G20G27G16G24G13
                   6110671.43658   8690966.93943
       179.0004         74.0004
  24889270.2234    8002240.69148   6238680.79044  24889269.1974   24889275.9864
       194.0004        111.0004
  20448534.7684   -4493682.55649  -3473881.40147  20448534.3844   20448535.3104
       239.0004        206.0004
  20991217.7234    2938412.68349   2315731.74447  20991217.0734   20991221.2134
       237.0004        199.0004
  23282590.5734   -6571533.81849  -5095346.31645  23282590.1584   23282596.6734
       216.0004        160.0004
  21643620.9934    1086088.94749    873498.12647  21643620.5934   21643624.2854
       233.0004        188.0004
  24436387.3074    1836746.77749   1458955.46845  24436387.7814   24436394.1654
       207.0004        138.0004
  21737081.0474   -8374818.15049  -6480259.54246  21737081.2824   21737084.4394
       233.0004        182.0004
 06  8 30 18 24  0.0000000  0  8G 1G25G23G20G27G16G24G13
                   6182367.31858   8746929.82343
       183.0004         74.0004
  24903930.2524    8079279.40148   6298710.95944  24903929.3784   24903933.4894
       188.0004        110.0004
  20445089.1754   -4511789.16749  -3487990.44647  20445088.6304   20445089.8264
       239.0004        206.0004
  21003562.9954    3003287.41349   2366283.46547  21003562.4964   21003566.9634
       237.0004        199.0004
  23272489.5084   -6624615.02849  -5136708.26045  23272489.3714   23272494.6674
       217.0004        160.0004
  21652796.7874    1134307.87149    911071.31547  21652796.2814   21652800.7814
       233.0004        188.0004
  24444086.4374    1877205.39749   1490481.61845  24444086.6914   24444094.1224
       207.0004        138.0004
  21725259.8834   -8436938.88849  -6528665.28846  21725259.9554   21725263.5374
       233.0004        182.0004
 06  8 30 18 24 30.0000000  0  7G 1G23G20G27G16G24G13
                   6254216.27658   8881327.49143
       183.0004         74.0004
  20441696.1814   -4529619.39449  -3501884.12547  20441695.7294   20441696.5654
       240.0004        206.0004
  21015998.0104    3068633.61649   2417202.56247  21015997.5884   21016001.5274
       237.0004        199.0004
  23262423.0344   -6677515.03949  -5177929.02245  23262422.3104   23262428.6284
       218.0004        161.0004
  21662071.2714    1183045.79849    949048.90847  21662071.1404   21662074.6014
       233.0004        188.0004
  24451843.4204    1917968.48349   1522245.02945  24451842.6524   24451850.7204
       205.0004        138.0004
  21713460.1874   -8498946.80949  -6576983.12946  21713460.3344   21713463.6364
       233.0004        183.0004
 06  8 30 18 25  0.0000000  0  7G 1G23G20G27G16G24G13
                   6326218.53658   8937425.46643
       186.0004         74.0004
  20438356.2034   -4547171.17849  -3515560.83947  20438355.9214   20438356.8974
       240.0004        206.0004
  21028522.4524    3134449.82549   2468487.89347  21028522.1374   21028526.2234
       237.0004        199.0004
  23252391.0214   -6730233.89849  -5219008.62045  23252390.6554   23252395.7824
       218.0004        161.0004
  21671444.1964    1232300.95549    987429.54247  21671443.9124   21671447.7134
       233.0004        188.0004
  24459657.7394    1959033.65349   1554243.82645  24459657.6114   24459664.3014
       206.0004        137.0004
  21701682.3064   -8560839.76749  -6625211.39246  21701682.6884   21701685.4764
       233.0004        183.0004
 06  8 30 18 25 30.0000000  0  7G 1G23G20G27G16G24G13
                   6398371.36158   8993619.52343
       187.0004         74.0004
  20435068.8144   -4564446.44249  -3529022.08147  20435068.5764   20435069.6514
       240.0004        207.0004
  21041135.3574    3200730.75449   2520135.34947  21041134.8554   21041139.5464
       237.0004        199.0004
  23242392.8314   -6782774.58349  -5259949.38445  23242392.3074   23242398.5694
       218.0004        161.0004
  21680914.7224    1282068.80949   1026209.68247  21680913.9964   21680918.6754
       232.0004        188.0004
  24467528.7694    2000395.55349   1586473.84445  24467528.5424   24467535.0404
       209.0004        137.0004
  21689925.9574   -8622619.33849  -6673351.30046  21689925.8774   21689929.4804
       232.0004        183.0004
 06  8 30 18 26  0.0000000  0  6G23G20G27G16G24G13
  20431835.8824   -4581435.89949  -3542260.62547  20431835.5854   20431836.5154
       241.0004        207.0004
  21053837.7644    3267482.37949   2572149.58147  21053837.4224   21053841.8414
       237.0004        199.0004
  23232429.9194   -6835129.95249  -5300745.75045  23232430.1134   23232434.8854
       218.0004        161.0004
  21690483.8944    1332355.30349   1065393.94747  21690483.6714   21690487.7424
       232.0004        188.0004
  24475457.3904    2042060.06049   1618939.64545  24475456.2244   24475463.2764
       206.0004        136.0004
  21678193.0114   -8684276.16449  -6721395.57246  21678192.8694   21678196.6554
       232.0004        183.0004
 06  8 30 18 26 30.0000000  0  6G23G20G27G16G24G13
  20428656.1634   -4598145.56149  -3555281.13747  20428655.4464   20428656.6754
       240.0004        207.0004
  21066627.9324    3334695.10149   2624523.10647  21066627.5874   21066631.9764
       237.0004        199.0004
  23222500.7824   -6887308.08349  -5341404.00845  23222500.1184   23222506.0574
       217.0004        162.0004
  21700150.0674    1383150.94949   1104974.95947  21700150.0294   21700153.4354
       233.0004        188.0004
  24483441.6724    2084017.37149   1651633.61145  24483440.2674   24483446.5464
       205.0004        135.0004
  21666482.2584   -8745816.88549  -6769349.36246  21666482.7364   21666485.9424
       232.0004        184.0004
 06  8 30 18 27  0.0000000  0  6G23G20G27G16G24G13
  20425530.0314   -4614573.61249  -3568082.21947  20425529.7504   20425530.6954
       242.0004        207.0004
  21079505.5884    3402367.53449   2677254.84847  21079504.8724   21079509.7744
       238.0004        199.0004
  23212605.2954   -6939308.90549  -5381924.09945  23212604.4484   23212610.8144
       219.0004        162.0004
  21709912.8324    1434454.37749   1144951.64147  21709912.6204   21709915.9554
       233.0004        188.0004
  24491481.0744    2126265.59249   1684554.26945  24491481.0604   24491487.9684
       205.0004        135.0004
  21654793.9474   -8807239.64249  -6817211.23846  21654794.2784   21654797.5644
       235.0004        184.0004
 06  8 30 18 27 30.0000000  0  6G23G20G27G16G24G13
  20422458.4124   -4630715.07749  -3580659.97947  20422457.9574   20422458.8414
       240.0004        207.0004
  21092471.0244    3470501.07849   2730345.89747  21092470.5664   21092475.0014
       238.0004        199.0004
  23202744.2964   -6991128.83049  -5422303.24946  23202744.1244   23202749.4384
       219.0004        163.0004
  21719772.5434    1486267.71449   1185325.65447  21719772.1054   21719775.8464
       232.0004        188.0004
  24499576.0914    2168805.96749   1717702.57145  24499575.1574   24499583.3524
       205.0004        134.0004
  21643128.9704   -8868539.25249  -6864977.15846  21643129.2934   21643132.4164
       232.0004        184.0004
 06  8 30 18 28  0.0000000  0  6G23G20G27G16G24G13
  20419440.6294   -4646573.49149  -3593017.18247  20419439.9464   20419441.1854
       240.0004        207.0004
  21105522.8624    3539088.69349   2783790.77447  21105522.0614   21105526.6774
       237.0004        199.0004
  23192916.7344   -7042773.30849  -5462545.68346  23192916.3284   23192921.9924
       219.0004        163.0004
  21729728.0054    1538583.69649   1226091.35746  21729727.4934   21729731.1634
       232.0004        187.0004
  24507725.4244    2211631.02949   1751072.72445  24507723.8764   24507732.0874
       202.0004        134.0004
  21631486.7364   -8929719.28149  -6912649.89146  21631486.1044   21631490.3674
       233.0004        184.0004
 06  8 30 18 28 30.0000000  0  6G23G20G27G16G24G13
  20416477.7494   -4662143.74849  -3605149.85947  20416477.3074   20416478.5764
       241.0004        207.0004
  21118661.4854    3608132.29949   2837590.95747  21118661.1854   21118665.3094
       238.0004        198.0004
  23183123.2034   -7094239.00749  -5502648.81246  23183122.9184   23183127.8184
       218.0004        163.0004
  21739779.4284    1591404.32849   1267250.26946  21739778.4854   21739783.0814
       231.0004        186.0004
  24515929.3114    2254741.85749   1784665.53045  24515929.9154   24515935.6134
       203.0004        134.0004
  21619868.2274   -8990774.80549  -6960225.61446  21619868.4864   21619872.0954
       232.0004        185.0004
 06  8 30 18 29  0.0000000  0  6G23G20G27G16G24G13
  20413569.4704   -4677426.68549  -3617058.63547  20413568.7204   20413569.9974
       241.0004        208.0004
  21131886.0004    3677627.08949   2891742.72647  21131885.4504   21131889.3914
       237.0004        198.0004
  23173362.9104   -7145529.03849  -5542615.04946  23173361.8554   23173368.0874
       216.0004        163.0004
  21749925.9444    1644725.08449   1308798.90446  21749925.8004   21749929.1294
       231.0004        186.0004
  24524186.6104    2298133.69449   1818477.29545  24524186.4094   24524193.5054
       203.0004        133.0004
  21608273.2634   -9051706.75849  -7007705.03846  21608273.2644   21608276.5524
       233.0004        185.0004
 06  8 30 18 29 30.0000000  0  6G23G20G27G16G24G13
  20410716.7364   -4692417.81949  -3628740.04547  20410716.3454   20410717.4404
       241.0004        208.0004
  21145196.4174    3747573.78849   2946246.62047  21145195.3964   21145199.9194
       236.0004        197.0004
  23163636.6074   -7196640.72049  -5582442.30546  23163635.8994   23163642.1864
       217.0004        163.0004
  21760168.0214    1698547.38449   1350738.34946  21760167.7294   21760171.4364
       230.0004        186.0004
  24532497.4674    2341807.57649   1852508.85445  24532497.5254   24532502.5184
       201.0004        132.0004
  21596702.6864   -9112510.61049  -7055084.65846  21596703.1344   21596706.3074
       234.0004        186.0004
 06  8 30 18 30  0.0000000  0  6G23G20G27G16G24G13
  20407919.1534   -4707119.27449  -3640195.72447  20407918.7424   20407919.7974
       241.0004        208.0004
  21158591.8464    3817967.33449   3001098.71047  21158591.4124   21158595.7514
       236.0004        197.0004
  23153943.6344   -7247577.80749  -5622133.50546  23153943.0394   23153948.3184
       217.0004        163.0004
  21770504.4234    1752865.67949   1393064.27746  21770503.7344   21770508.1674
       231.0004        185.0004
  24540860.7394    2385757.64649   1886755.63445  24540858.8274   24540867.9064
       201.0004        132.0004
  21585156.1724   -9173188.35349  -7102365.99946  21585156.5674   21585160.1494
       233.0004        186.0004
 06  8 30 18 30 30.0000000  0  6G23G20G27G16G24G13
  20405177.3324   -4721527.70649  -3651423.06547  20405177.1404   20405178.0814
       243.0004        208.0004
  21172072.2044    3888807.15349   3056298.55347  21172071.7004   21172076.2024
       238.0004        196.0004
  23144284.0074   -7298339.19049  -5661687.79846  23144283.4564   23144289.3354
       220.0004        164.0004
  21780935.1904    1807679.72349   1435776.51046  21780934.9824   21780938.9514
       233.0004        186.0004
  24549276.5984    2429983.18549   1921217.04545  24549276.8494   24549283.0664
       206.0004        133.0004
  21573634.2234   -9233736.71249  -7149546.51646  21573633.9244   21573637.9644
       236.0004        186.0004
 06  8 30 18 31  0.0000000  0  6G23G20G27G16G24G13
  20402491.1304   -4735644.10949  -3662422.86747  20402490.7904   20402491.7134
       239.0004        208.0004
  21185636.5654    3960088.58349   3111842.49547  21185635.9894   21185640.5504
       236.0004        196.0004
  23134657.3434   -7348927.43649  -5701107.19446  23134657.0004   23134662.6324
       218.0004        165.0004
  21791459.5954    1862985.46449   1478871.87546  21791459.6764   21791463.3194
       232.0004        186.0004
  24557744.1874    2474479.50849   1955889.46145  24557743.3484   24557750.8194
       207.0004        133.0004
  21562136.7224   -9294156.54449  -7196626.89246  21562137.0934   21562139.7564
       233.0004        186.0004
 06  8 30 18 31 30.0000000  0  6G23G20G27G16G24G13
  20399861.0804   -4749465.19649  -3673192.54447  20399860.6804   20399861.9144
       239.0004        208.0004
  21199284.9784    4031811.30349   3167730.30047  21199284.2214   21199288.8824
       235.0004        196.0004
  23125063.9364   -7399341.16549  -5740390.59046  23125064.0614   23125069.6104
       219.0004        165.0004
  21802077.5014    1918782.44549   1522350.04246  21802077.3964   21802081.1504
       231.0004        185.0004
  24566262.9674    2519245.90949   1990772.34545  24566262.3704   24566269.4834
       203.0004        134.0004
  21550664.1864   -9354444.87449  -7243604.80346  21550664.3364   21550667.9354
       233.0004        185.0004
 06  8 30 18 32  0.0000000  0  6G23G20G27G16G24G13
  20397287.5614   -4762989.12249  -3683730.66747  20397287.0524   20397288.1244
       239.0004        208.0004
  21213017.0534    4103973.86949   3223960.84247  21213016.6644   21213021.0904
       234.0004        196.0004
  23115503.8054   -7449580.08749  -5779537.78446  23115503.9504   23115509.1644
       219.0004        166.0004
  21812788.5354    1975069.38749   1566209.98046  21812787.9614   21812791.8594
       231.0004        185.0004
  24574832.9464    2564280.54749   2025864.22945  24574833.3174   24574839.7944
       205.0004        134.0004
  21539217.1424   -9414599.51349  -7290478.53146  21539217.2404   21539219.9974
       233.0004        185.0004
 06  8 30 18 32 30.0000000  0  6G23G20G27G16G24G13
  20394770.5884   -4776215.94349  -3694037.27847  20394770.0844   20394771.2354
       239.0004        208.0004
  21226832.1034    4176572.44849   3280531.14447  21226831.6104   21226836.3554
       235.0004        195.0004
  23105976.4474   -7499646.40549  -5818550.47946  23105976.1264   23105981.8864
       218.0004        165.0004
  21823592.1794    2031842.61349   1610448.84446  21823591.7324   21823595.3924
       231.0004        185.0004
  24583453.1074    2609579.15649   2061161.78345  24583452.7104   24583459.5044
       206.0004        134.0004
  21527795.4734   -9474620.65349  -7337248.23746  21527795.2974   21527798.3394
       234.0004        186.0004
 06  8 30 18 33  0.0000000  0  6G23G20G27G16G24G13
  20392310.7944   -4789142.37049  -3704109.81947  20392310.3174   20392311.4584
       239.0004        208.0004
  21240730.1514    4249606.95949   3337441.11847  21240729.8994   21240734.2934
       235.0004        195.0004
  23096482.2784   -7549538.49849  -5857427.42446  23096482.8084   23096487.7224
       219.0004        165.0004
  21834488.2674    2089101.93249   1655066.48546  21834487.8394   21834491.2604
       230.0004        183.0004
  24592123.4874    2655141.67449   2096664.99645  24592124.3274   24592129.4544
       205.0004        135.0004
  21516399.9324   -9534504.49849  -7383910.96546  21516400.1564   21516403.4724
       234.0004        186.0004
 06  8 30 18 33 30.0000000  0  6G23G20G27G16G24G13
  20389908.1274   -4801768.64249  -3713948.47547  20389907.7814   20389908.8344
       240.0004        208.0004
  21254710.3934    4323073.29849   3394687.58947  21254709.7014   21254714.2414
       235.0004        195.0004
  23087020.9044   -7599258.78249  -5896170.47646  23087021.3584   23087026.5844
       219.0004        166.0004
  21845476.0424    2146843.54649   1700059.94246  21845475.6824   21845479.0974
       230.0004        182.0004
  24600843.2854    2700963.53149   2132370.29045  24600843.4014   24600849.4454
       205.0004        135.0004
  21505030.4364   -9594251.29249  -7430466.89446  21505030.7074   21505033.9394
       234.0004        186.0004
 06  8 30 18 34  0.0000000  0  6G23G20G27G16G24G13
  20387562.9514   -4814092.86249  -3723551.76747  20387562.6844   20387563.5374
       240.0004        208.0004
  21268772.4824    4396970.00249   3452269.40747  21268772.0654   21268776.7224
       235.0004        195.0004
  23077592.0924   -7648807.14349  -5934779.56946  23077591.8364   23077597.3514
       218.0004        166.0004
  21856555.5124    2205066.29249   1745428.30946  21856555.1724   21856558.7074
       231.0004        183.0004
  24609611.8984    2747042.94749   2168276.26945  24609611.4904   24609619.3564
       204.0004        134.0004
  21493687.3724   -9653859.45849  -7476914.80846  21493687.6404   21493691.2504
       233.0004        186.0004
 06  8 30 18 34 30.0000000  0  6G23G20G27G16G24G13
  20385275.6354   -4826112.78849  -3732917.93747  20385275.0284   20385276.1684
       240.0004        208.0004
  21282916.0844    4471294.94049   3510184.91947  21282915.7944   21282920.1334
       235.0004        194.0004
  23068196.1014   -7698183.14749  -5973254.34446  23068195.7704   23068201.5254
       218.0004        165.0004
  21867726.2514    2263768.72449   1791170.45246  21867726.1584   21867730.0464
       230.0004        182.0004
  24618429.2024    2793378.30149   2204381.71445  24618429.2564   24618435.7044
       205.0004        133.0004
  21482371.2374   -9713326.04349  -7523252.39946  21482370.9544   21482374.7584
       233.0004        187.0004
 06  8 30 18 35  0.0000000  0  6G23G20G27G16G24G13
  20383046.1644   -4837828.70049  -3742047.22247  20383045.5014   20383046.9774
       239.0004        208.0004
  21297140.4594    4546044.50649   3568431.30747  21297139.6874   21297144.6884
       236.0004        194.0004
  23058832.4444   -7747389.11649  -6011596.63146  23058832.3534   23058837.6854
       219.0004        166.0004
  21878987.4314    2322946.55349   1837283.03946  21878987.0824   21878991.2754
       232.0004        182.0004
  24627294.3864    2839965.26149   2240683.17645  24627294.3294   24627300.3224
       205.0004        134.0004
  21471081.8984   -9772651.62749  -7569480.12446  21471082.2694   21471085.8044
       233.0004        187.0004
 06  8 30 18 35 30.0000000  0  6G23G20G27G16G24G13
  20380875.0634   -4849237.74749  -3750937.38847  20380874.5844   20380875.7804
       239.0004        208.0004
  21311445.5264    4621218.05849   3627008.07747  21311445.1244   21311450.0194
       235.0004        194.0004
  23049501.3734   -7796424.27549  -6049805.82646  23049500.8034   23049507.3254
       220.0004        167.0004
  21890339.0624    2382599.63749   1883765.95646  21890338.8444   21890342.0654
       231.0004        182.0004
  24636207.4074    2886803.06349   2277180.10445  24636208.3584   24636214.0214
       205.0004        135.0004
  21459819.9244   -9831833.79549  -7615596.08946  21459820.4754   21459823.4144
       234.0004        187.0004
 06  8 30 18 36  0.0000000  0  6G23G20G27G16G24G13
  20378762.2054   -4860340.57749  -3759588.94547  20378761.7374   20378763.0274
       239.0004        208.0004
  21325830.3714    4696810.91749   3685911.57647  21325829.9154   21325834.3094
       235.0004        194.0004
  23040202.4064   -7845290.56849  -6087883.43646  23040202.1104   23040207.8404
       218.0004        166.0004
  21901780.3294    2442723.70049   1930615.85946  21901779.8234   21901783.7604
       232.0004        183.0004
  24645167.2914    2933887.15449   2313868.94745  24645167.9254   24645173.9484
       204.0004        135.0004
  21448585.3494   -9890872.17749  -7661600.02047  21448585.6034   21448588.9614
       234.0004        188.0004
 06  8 30 18 36 30.0000000  0  6G23G20G27G16G24G13
  20376708.2934   -4871133.90149  -3767999.32447  20376707.7994   20376708.9874
       239.0004        208.0004
  21340294.9744    4772822.71149   3745141.52647  21340294.2124   21340298.8014
       235.0004        193.0004
  23030935.7444   -7893987.08349  -6125828.73646  23030935.4654   23030941.5474
       219.0004        167.0004
  21913311.1334    2503318.31549   1977832.43446  21913311.3404   21913314.6544
       232.0004        183.0004
  24654173.8994    2981216.62149   2350749.01845  24654174.6804   24654179.4494
       207.0004        135.0004
  21437378.6454   -9949763.86449  -7707489.63247  21437378.8814   21437381.8634
       234.0004        188.0004
 06  8 30 18 37  0.0000000  0  6G23G20G27G16G24G13
  20374713.2904   -4881617.87649  -3776168.65847  20374713.0704   20374714.0164
       239.0004        208.0004
  21354838.5854    4849249.76749   3804695.04847  21354837.8334   21354842.6664
       235.0004        193.0004
  23021701.1224   -7942515.54249  -6163643.08746  23021699.5494   23021706.6174
       218.0004        167.0004
  21924930.8544    2564380.30349   2025413.19746  21924930.5764   21924934.1694
       231.0004        183.0004
  24663226.5324    3028787.76849   2387817.39945  24663226.8234   24663232.5784
       206.0004        137.0004
  21426199.8774  -10008508.65849  -7753264.78547  21426200.2504   21426203.1294
       235.0004        189.0004
 06  8 30 18 37 30.0000000  0  6G23G20G27G16G24G13
  20372777.5454   -4891790.26649  -3784095.19347  20372777.1304   20372778.0534
       239.0004        208.0004
  21369460.8714    4926090.30249   3864570.76847  21369460.5704   21369464.8914
       235.0004        192.0004
  23012498.4454   -7990875.96749  -6201326.49946  23012497.8994   23012504.3544
       218.0004        167.0004
  21936639.1624    2625907.79149   2073356.67746  21936639.3614   21936642.3724
       232.0004        183.0004
  24672324.7884    3076598.46349   2425072.43145  24672324.3254   24672331.6774
       206.0004        137.0004
  21415049.5854  -10067104.10649  -7798923.56047  21415050.0394   21415053.0654
       235.0004        189.0004
 06  8 30 18 38  0.0000000  0  6G23G20G27G16G24G13
  20370901.3424   -4901649.80349  -3791777.95247  20370901.0894   20370901.7824
       239.0004        208.0004
  21384161.5224    5003342.10149   3924766.94647  21384161.0734   21384165.5454
       235.0004        192.0004
  23003327.5844   -8039068.77049  -6238879.29646  23003327.7584   23003333.2134
       219.0004        167.0004
  21948435.6424    2687898.62249   2121661.21646  21948435.5044   21948438.2244
       231.0004        182.0004
  24681467.9534    3124646.22549   2462512.21345  24681468.3854   24681475.0004
       204.0004        135.0004
  21403927.9134  -10125549.06649  -7844465.08247  21403928.2194   21403931.4914
       235.0004        190.0004
 06  8 30 18 38 30.0000000  0  6G23G20G27G16G24G13
  20369085.0084   -4911194.79049  -3799215.60547  20369084.8264   20369085.5644
       240.0004        208.0004
  21398939.9014    5081002.94249   3985281.85947  21398939.0734   21398944.0954
       235.0004        192.0004
  22994188.5634   -8087094.37649  -6276301.81646  22994188.4654   22994193.6824
       220.0004        167.0004
  21960319.9584    2750351.11849   2170325.48646  21960319.7874   21960323.3874
       230.0004        182.0004
  24690655.8934    3172928.88549   2500135.01145  24690654.8654   24690661.9394
       204.0004        134.0004
  21392835.2194  -10183841.63749  -7889887.85447  21392835.3884   21392838.8124
       235.0004        189.0004
 06  8 30 18 39  0.0000000  0  6G23G20G27G16G24G13
  20367328.4564   -4920425.79749  -3806408.59747  20367328.0424   20367329.1454
       240.0004        209.0004
  21413795.3304    5159068.60249   4046112.21947  21413794.8684   21413799.2964
       235.0004        192.0004
  22985081.0294   -8134954.87549  -6313595.67646  22985081.3094   22985086.8274
       219.0004        167.0004
  21972291.2544    2813260.68349   2219345.91146  21972290.9494   21972294.4644
       231.0004        182.0004
  24699887.5644    3221441.94749   2537937.35245  24699887.6644   24699894.6874
       205.0004        134.0004
  21381771.4384  -10241982.03949  -7935192.05947  21381771.8774   21381775.0754
       235.0004        190.0004
 06  8 30 18 39 30.0000000  0  6G23G20G27G16G24G13
  20365632.2374   -4929339.80549  -3813354.57947  20365631.9364   20365632.9634
       240.0004        209.0004
  21428727.6794    5237538.19049   4107257.32047  21428726.9014   21428731.9554
       235.0004        192.0004
  22976005.2284   -8182649.37549  -6350760.18146  22976004.8534   22976010.0734
       219.0004        168.0004
  21984349.5104    2876627.03149   2268722.27746  21984349.2624   21984352.9724
       230.0004        182.0004
  24709162.9554    3270184.36649   2575918.40745  24709162.3734   24709170.0684
       206.0004        134.0004
  21370737.2054  -10299967.12749  -7980375.23447  21370737.5064   21370740.7914
       235.0004        190.0004
 06  8 30 18 40  0.0000000  0  6G23G20G27G16G24G13
  20363996.7344   -4937934.41149  -3820051.67147  20363996.3594   20363997.4744
       240.0004        209.0004
  21443736.5294    5316410.14349   4168715.95747  21443735.7714   21443740.5154
       235.0004        192.0004
  22966960.8584   -8230177.53449  -6387795.07746  22966959.7854   22966966.2974
       220.0004        168.0004
  21996494.3884    2940448.75649   2318453.47846  21996493.7944   21996498.2074
       230.0004        182.0004
  24718481.6664    3319154.60149   2614076.98045  24718481.9614   24718489.0964
       203.0004        134.0004
  21359733.0694  -10357794.42849  -8025435.45847  21359733.2044   21359736.5614
       235.0004        191.0004
 06  8 30 18 40 30.0000000  0  6G23G20G27G16G24G13
  20362422.0084   -4946209.50349  -3826499.79947  20362421.5494   20362422.5664
       240.0004        209.0004
  21458821.3384    5395681.25649   4230485.62547  21458821.0274   21458825.1404
       234.0004        191.0004
  22957947.9054   -8277540.69749  -6424701.40946  22957947.6644   22957953.5554
       220.0004        168.0004
  22008725.2764    3004722.61349   2368536.98546  22008725.1174   22008728.7314
       230.0004        182.0004
  24727842.9954    3368349.24349   2652410.43545  24727842.5614   24727849.4734
       200.0004        133.0004
  21348759.0534  -10415463.19249  -8070372.15047  21348758.9724   21348763.1874
       235.0004        191.0004
 06  8 30 18 41  0.0000000  0  6G23G20G27G16G24G13
  20360908.3684   -4954163.58549  -3832697.79347  20360908.0474   20360909.0274
       239.0004        208.0004
  21473981.6274    5475348.93249   4292564.30347  21473981.3224   21473985.7464
       235.0004        191.0004
  22948966.1224   -8324739.94449  -6461480.01046  22948965.7624   22948971.4714
       220.0004        169.0004
  22021041.7564    3069446.13649   2418970.89046  22021041.5504   22021045.3044
       230.0004        182.0004
  24737246.2644    3417765.35949   2690916.44245  24737246.5414   24737253.2304
       199.0004        133.0004
  21337815.4204  -10472972.17549  -8115184.33547  21337815.7084   21337819.1424
       235.0004        191.0004
 06  8 30 18 41 30.0000000  0  6G23G20G27G16G24G13
  20359456.0234   -4961795.59349  -3838644.81947  20359455.5224   20359456.6934
       239.0004        209.0004
  21489216.8554    5555410.56949   4354949.96947  21489216.2954   21489221.0334
       235.0004        191.0004
  22940015.5844   -8371775.59049  -6498131.12346  22940015.7584   22940020.8274
       221.0004        169.0004
  22033443.4784    3134617.25149   2469753.57246  22033443.4844   22033447.0984
       230.0004        182.0004
  24746691.5554    3467400.55349   2729593.17545  24746692.3414   24746700.2184
       200.0004        133.0004
  21326902.5764  -10530319.69149  -8159870.69947  21326902.3934   21326905.9094
       235.0004        191.0004
 06  8 30 18 42  0.0000000  0  6G23G20G27G16G24G13
  20358065.0054   -4969105.30649  -3844340.70747  20358064.5454   20358065.8034
       239.0004        209.0004
  21504526.4424    5635862.79049   4417639.98847  21504526.1264   21504530.3564
       234.0004        190.0004
  22931095.8574   -8418649.13049  -6534655.94146  22931096.1824   22931100.7254
       222.0004        169.0004
  22045929.6504    3200232.36349   2520882.21346  22045929.3014   22045933.0154
       229.0004        181.0004
  24756177.9804    3517251.09549   2768437.69745  24756179.0644   24756184.9874
       203.0004        134.0004
  21316020.5454  -10587505.11749  -8204430.77447  21316020.6464   21316024.2644
       235.0004        191.0004
 06  8 30 18 42 30.0000000  0  6G23G20G27G16G24G13
  20356735.9484   -4976089.60249  -3849783.02147  20356735.6854   20356736.9124
       240.0004        209.0004
  21519910.1344    5716704.30749   4480633.34347  21519909.4374   21519913.9914
       234.0004        190.0004
  22922207.2134   -8465359.97449  -6571053.98246  22922207.3064   22922212.1394
       222.0004        169.0004
  22058500.1444    3266290.61449   2572356.15746  22058499.9584   22058503.4724
       228.0004        181.0004
  24765704.7854    3567315.60449   2807448.96945  24765703.4704   24765710.7174
       202.0004        132.0004
  21305169.8494  -10644525.98849  -8248862.61847  21305170.1084   21305173.8834
       236.0004        191.0004
 06  8 30 18 43  0.0000000  0  6G23G20G27G16G24G13
  20355468.9314   -4982748.09349  -3854971.46147  20355468.6424   20355469.7764
       240.0004        209.0004
  21535367.2184    5797931.89249   4543927.53847  21535366.6464   21535371.5774
       234.0004        190.0004
  22913349.1544   -8511909.14449  -6607326.02246  22913348.5894   22913353.8784
       221.0004        169.0004
  22071154.3954    3332788.86749   2624172.97446  22071153.8384   22071158.1264
       229.0004        180.0004
  24775271.6384    3617590.60649   2846624.25544  24775271.8864   24775280.1704
       198.0004        131.0004
  21294350.7044  -10701381.15249  -8293165.33047  21294350.8984   21294354.1174
       236.0004        192.0004
 06  8 30 18 43 30.0000000  0  6G23G20G27G16G24G13
  20354264.2794   -4989078.61549  -3859904.35047  20354263.8064   20354265.0944
       239.0004        209.0004
  21550897.4554    5879543.81249   4607521.20447  21550896.9154   21550901.5304
       233.0004        189.0004
  22904521.8564   -8558296.56249  -6643472.03946  22904521.6204   22904527.5204
       221.0004        169.0004
  22083891.9674    3399725.55549   2676331.41146  22083891.2704   22083895.8484
       227.0004        180.0004
  24784878.2144    3668074.42949   2885962.26345  24784879.5154   24784885.1394
       202.0004        132.0004
  21283563.5544  -10758067.92349  -8337336.84347  21283563.6164   21283566.9424
       236.0004        192.0004
 06  8 30 18 44  0.0000000  0  6G23G20G27G16G24G13
  20353122.2524   -4995079.99749  -3864580.75647  20353121.8074   20353122.9834
       240.0004        209.0004
  21566500.3314    5961537.53149   4671412.38747  21566499.3134   21566504.4794
       233.0004        189.0004
  22895725.3224   -8604522.70249  -6679492.37646  22895725.4994   22895730.6164
       222.0004        169.0004
  22096712.6124    3467098.59349   2728829.86246  22096712.5244   22096716.3054
       228.0004        179.0004
  24794524.4624    3718764.64149   2925461.08045  24794524.1684   24794531.5084
       202.0004        133.0004
  21272808.6734  -10814585.26449  -8381376.32247  21272808.6514   21272811.8484
       236.0004        192.0004
 06  8 30 18 44 30.0000000  0  6G23G20G27G16G24G13
  20352042.7804   -5000752.52349  -3869000.91047  20352042.3444   20352043.4134
       239.0004        209.0004
  21582175.1134    6043909.07449   4735597.97147  21582174.7714   21582179.0634
       233.0004        188.0004
  22886958.9854   -8650590.19449  -6715389.10646  22886958.9084   22886963.7984
       222.0004        170.0004
  22109615.4944    3534903.64649   2781664.95346  22109615.2624   22109618.5284
       228.0004        179.0004
  24804209.0694    3769656.78249   2965117.24145  24804209.3234   24804216.5434
       202.0004        132.0004
  21262086.0784  -10870932.89149  -8425283.56147  21262086.5144   21262089.4164
       236.0004        192.0004
 06  8 30 18 45  0.0000000  0  6G23G20G27G16G24G13
  20351026.4414   -5006093.60549  -3873162.79547  20351026.0484   20351027.3724
       240.0004        209.0004
  21597921.5184    6126656.67849   4800076.58847  21597921.0704   21597925.9184
       233.0004        188.0004
  22878222.9714   -8696498.17249  -6751161.51546  22878222.1164   22878227.8814
       222.0004        171.0004
  22122600.3304    3603139.58149   2834835.80546  22122600.0834   22122603.9104
       228.0004        179.0004
  24813931.6384    3820749.59549   3004929.76945  24813930.9334   24813939.0624
       203.0004        132.0004
  21251396.3884  -10927107.88549  -8469056.27947  21251396.6344   21251399.8274
       238.0004        192.0004
 06  8 30 18 45 30.0000000  0  6G23G20G27G16G24G13
  20350073.3264   -5011102.29549  -3877065.67447  20350072.9784   20350074.2544
       240.0004        209.0004
  21613738.8924    6209777.35949   4864845.91747  21613738.1804   21613743.1754
       233.0004        188.0004
  22869517.2204   -8742247.37049  -6786810.20646  22869517.3734   22869521.7514
       223.0004        170.0004
  22135666.6714    3671803.69449   2888340.29546  22135666.5974   22135670.2394
       228.0004        179.0004
  24823691.9784    3872040.05249   3044896.31645  24823690.6474   24823699.6084
       201.0004        133.0004
  21240739.6874  -10983109.15849  -8512693.62147  21240739.7924   21240742.9784
       238.0004        193.0004
 06  8 30 18 46  0.0000000  0  6G23G20G27G16G24G13
  20349183.6994   -5015777.39449  -3880708.61247  20349183.3734   20349184.3154
       240.0004        209.0004
  21629626.8994    6293269.23549   4929904.48546  21629626.6414   21629631.0564
       232.0004        187.0004
  22860841.4604   -8787838.47949  -6822335.71646  22860840.3004   22860846.1564
       221.0004        170.0004
  22148814.0954    3740893.61449   2942176.58946  22148813.9054   22148818.0624
       228.0004        179.0004
  24833489.4064    3923525.46649   3085014.77445  24833489.0334   24833498.4684
       201.0004        133.0004
  21230116.4214  -11038934.86049  -8556194.16047  21230116.4964   21230119.6044
       238.0004        193.0004
 06  8 30 18 46 30.0000000  0  6G23G20G27G16G24G13
  20348357.5514   -5020118.91749  -3884091.62147  20348357.2954   20348358.0244
       239.0004        208.0004
  21645584.6644    6377127.83549   4995248.81446  21645584.4444   21645588.8724
       232.0004        187.0004
  22852195.3024   -8833273.77749  -6857739.81846  22852195.3044   22852200.2354
       222.0004        170.0004
  22162041.8884    3810405.82049   2996341.92746  22162041.6784   22162045.1084
       229.0004        179.0004
  24843322.9814    3975201.58949   3125281.84145  24843322.1964   24843330.8994
       201.0004        134.0004
  21219526.5954  -11094584.86849  -8599557.79247  21219526.8974   21219529.9554
       238.0004        193.0004
 06  8 30 18 47  0.0000000  0  6G23G20G27G16G24G13
  20347595.5664   -5024123.28549  -3887211.91047  20347595.1934   20347596.1814
       240.0004        208.0004
  21661612.1984    6461352.90749   5060878.69646  21661611.4084   21661616.9894
       233.0004        187.0004
  22843579.2124   -8878551.53349  -6893021.16046  22843579.4194   22843583.6574
       222.0004        170.0004
  22175349.8734    3880339.39049   3050835.60346  22175349.3154   22175353.6094
       229.0004        179.0004
  24853192.7144    4027067.96349   3165697.14345  24853192.1434   24853200.8254
       201.0004        135.0004
  21208970.9094  -11150055.49549  -8642781.65547  21208971.1154   21208974.0304
       238.0004        193.0004
 06  8 30 18 47 30.0000000  0  6G23G20G27G16G24G13
  20346897.9634   -5027789.29449  -3890068.54147  20346897.7264   20346898.6454
       240.0004        208.0004
  21677709.0424    6545941.66749   5126791.97346  21677708.2854   21677713.0404
       233.0004        187.0004
  22834992.9244   -8923672.41549  -6928180.26146  22834992.5844   22834998.2204
       223.0004        170.0004
  22188737.6284    3950692.41349   3105656.12046  22188737.3274   22188741.1294
       228.0004        179.0004
  24863098.2374    4079121.88149   3206258.58645  24863097.1364   24863106.6814
       202.0004        135.0004
  21198449.6324  -11205345.11949  -8685864.47147  21198449.6294   21198453.0394
       237.0004        193.0004
 06  8 30 18 48  0.0000000  0  5G23G20G27G16G13
  20346264.9394   -5031115.89549  -3892660.70647  20346264.6544   20346265.4724
       239.0004        208.0004
  21693874.5134    6630891.42349   5192986.55146  21693874.2634   21693878.6524
       232.0004        187.0004
  22826436.3874   -8968637.26549  -6963217.78246  22826436.0574   22826441.1444
       224.0004        171.0004
  22202204.6854    4021462.21149   3160801.40146  22202204.1544   22202208.4544
       228.0004        179.0004
  21187963.0704  -11260452.16149  -8728805.01347  21187963.3984   21187966.4454
       237.0004        194.0004
 06  8 30 18 48 30.0000000  0  5G23G20G27G16G13
  20345698.6224   -5034091.59249  -3894979.43347  20345698.3464   20345699.5524
       239.0004        208.0004
  21710110.0604    6716209.84849   5259468.40346  21710109.2544   21710114.3124
       233.0004        187.0004
  22817911.3654   -9013436.28449  -6998126.08546  22817910.6794   22817916.5784
       223.0004        171.0004
  22215752.4924    4092656.29949   3216277.29546  22215752.1954   22215756.2534
       228.0004        178.0004
  21177513.5354  -11315364.53349  -8771593.86847  21177513.5924   21177517.4064
       237.0004        194.0004
 06  8 30 18 49  0.0000000  0  5G23G20G27G16G13
  20345196.3844   -5036731.03649  -3897036.14247  20345196.0744   20345197.1834
       240.0004        209.0004
  21726412.2944    6801878.38649   5326223.07446  21726411.2784   21726416.7794
       233.0004        186.0004
  22809414.8004   -9058085.86749  -7032917.95446  22809414.7414   22809419.3474
       223.0004        171.0004
  22229377.6614    4164256.77049   3272069.86646  22229377.8524   22229380.7134
       229.0004        178.0004
  21167098.3554  -11370096.56849  -8814242.19247  21167098.3534   21167101.9664
       237.0004        194.0004
 06  8 30 18 49 30.0000000  0  5G23G20G27G16G13
  20344758.8404   -5039030.56949  -3898827.99547  20344758.4974   20344759.5644
       240.0004        209.0004
  21742781.0564    6887896.61949   5393250.22446  21742780.6664   21742785.4764
       232.0004        186.0004
  22800947.0174   -9102584.34049  -7067592.06646  22800946.1434   22800952.3454
       223.0004        171.0004
  22243080.1284    4236263.44549   3328178.95146  22243080.0464   22243083.0034
       228.0004        177.0004
  21156718.2814  -11424644.25449  -8856746.88047  21156718.7284   21156721.9194
       238.0004        194.0004
 06  8 30 18 50  0.0000000  0  5G23G20G27G16G13
  20344386.4454   -5040987.61149  -3900352.96247  20344386.0354   20344387.2744
       240.0004        210.0004
  21759216.1154    6974263.21149   5460548.83046  21759215.8884   21759220.4954
       232.0004        186.0004
  22792508.0994   -9146930.99449  -7102147.88146  22792508.1254   22792512.4984
       223.0004        172.0004
  22256859.5554    4308674.62749   3384603.24246  22256859.3774   22256862.6064
       228.0004        177.0004
  21146373.8554  -11479004.68949  -8899105.64947  21146374.0004   21146377.3924
       236.0004        194.0004
 06  8 30 18 50 30.0000000  0  5G23G20G27G16G13
  20344079.5854   -5042600.32849  -3901609.62747  20344079.1974   20344080.3414
       240.0004        210.0004
  21775717.0884    7060976.12849   5528117.29846  21775716.1654   21775721.4144
       233.0004        185.0004
  22784098.0564   -9191126.44349  -7136585.88046  22784097.0584   22784102.7394
       223.0004        172.0004
  22270715.6514    4381488.72949   3441341.48046  22270715.4254   22270718.0484
       229.0004        177.0004
  21136065.4124  -11533175.87949  -8941316.95847  21136065.4564   21136068.8614
       237.0004        194.0004
 06  8 30 18 51  0.0000000  0  5G23G20G27G16G13
  20343838.5764   -5043866.94749  -3902596.60647  20343838.1644   20343839.2614
       240.0004        210.0004
  21792283.5574    7148033.30249   5595954.01446  21792283.1464   21792287.7554
       232.0004        185.0004
  22775716.7994   -9235170.17449  -7170905.65846  22775716.6594   22775721.4894
       223.0004        172.0004
  22284648.1544    4454704.16049   3498392.45546  22284647.6794   22284650.6124
       228.0004        176.0004
  21125793.5064  -11587155.08949  -8983378.67247  21125793.6674   21125796.8724
       237.0004        194.0004
 06  8 30 18 51 30.0000000  0  5G23G20G27G16G13
  20343663.6664   -5044786.03549  -3903312.79047  20343663.2654   20343664.4424
       240.0004        209.0004
  21808915.0114    7235432.11949   5664056.94646  21808914.7034   21808919.2904
       232.0004        184.0004
  22767364.1954   -9279063.00449  -7205107.85346  22767364.0824   22767368.6194
       224.0004        172.0004
  22298656.4574    4528318.14949   3555753.99646  22298656.0224   22298659.9464
       227.0004        176.0004
  21115558.4264  -11640940.78249  -9025289.59447  21115558.5434   21115561.9414
       237.0004        195.0004
 06  8 30 18 52  0.0000000  0  5G23G20G27G16G13
  20343555.1804   -5045356.35449  -3903757.19547  20343554.7704   20343555.8674
       240.0004        209.0004
  21825610.9954    7323170.00349   5732424.08846  21825610.5944   21825615.3084
       232.0004        184.0004
  22759040.3534   -9322805.32549  -7239192.74346  22759040.4344   22759044.4674
       224.0004        172.0004
  22312740.0884    4602328.21349   3613424.15646  22312738.9524   22312743.5874
       227.0004        176.0004
  21105360.5434  -11694531.16549  -9067048.32047  21105360.7434   21105364.1084
       238.0004        195.0004
 06  8 30 18 52 30.0000000  0  5G23G20G27G16G13
  20343513.1894   -5045576.86949  -3903929.02947  20343512.8294   20343514.1394
       240.0004        209.0004
  21842371.0004    7411243.94649   5801053.09746  21842370.6414   21842375.3104
       232.0004        184.0004
  22750744.9744   -9366398.04649  -7273161.07346  22750744.7574   22750749.5234
       223.0004        172.0004
  22326898.5954    4676731.74049   3671400.90946  22326897.7304   22326902.7064
       226.0004        175.0004
  21095200.1914  -11747924.45849  -9108653.46847  21095200.3874   21095204.0054
       238.0004        195.0004
 06  8 30 18 53  0.0000000  0  5G23G20G27G16G13
  20343538.1504   -5045445.83049  -3903826.93147  20343537.5924   20343538.8074
       239.0004        208.0004
  21859194.5394    7499652.06849   5869942.49746  21859194.1254   21859198.5834
       232.0004        184.0004
  22742478.0994   -9409841.12049  -7307012.79146  22742477.3814   22742483.0854
       224.0004        173.0004
  22341131.6154    4751526.89649   3729682.83546  22341131.1574   22341134.5654
       225.0004        174.0004
  21085077.6344  -11801118.61249  -9150103.45247  21085077.6254   21085080.8564
       238.0004        195.0004
 06  8 30 18 53 30.0000000  0  5G23G20G27G16G13
  20343630.2784   -5044961.60649  -3903449.62047  20343629.9584   20343630.8784
       239.0004        208.0004
  21876081.1354    7588391.61649   5939090.15146  21876080.7744   21876085.3854
       232.0004        183.0004
  22734239.5064   -9453135.05149  -7340748.30846  22734238.7244   22734244.4434
       224.0004        174.0004
  22355438.7204    4826711.26449   3788268.03546  22355438.0324   22355441.4144
       226.0004        173.0004
  21074993.3564  -11854111.64149  -9191396.71347  21074993.2664   21074996.5274
       238.0004        196.0004
 06  8 30 18 54  0.0000000  0  5G23G20G27G16G13
  20343789.4474   -5044125.31849  -3902797.97347  20343789.0284   20343790.0124
       239.0004        208.0004
  21893029.9474    7677458.06449   6008492.53446  21893029.4214   21893034.4834
       232.0004        183.0004
  22726028.7664   -9496282.67249  -7374369.80846  22726028.9984   22726032.9504
       224.0004        174.0004
  22369819.0364    4902280.23549   3847152.92346  22369818.7174   22369822.2584
       226.0004        173.0004
  21064947.3314  -11906904.11449  -9232533.69847  21064947.1914   21064950.7334
       238.0004        196.0004
 06  8 30 18 54 30.0000000  0  5G23G20G27G16G13
  20344016.3514   -5042932.79749  -3901868.73647  20344015.8214   20344016.9124
       239.0004        208.0004
  21910040.8894    7766850.87349   6078149.21446  21910040.5154   21910045.3184
       232.0004        184.0004
  22717846.3434   -9539281.91449  -7407875.68246  22717846.4024   22717851.5584
       225.0004        175.0004
  22384272.4824    4978233.81449   3906337.50546  22384272.2214   22384275.9824
       226.0004        174.0004
  21054940.3034  -11959491.31149  -9273510.72847  21054940.3884   21054943.6464
       238.0004        196.0004
 06  8 30 18 55  0.0000000  0  5G23G20G27G16G13
  20344311.0394   -5041384.41949  -3900662.21147  20344310.7274   20344311.7154
       240.0004        208.0004
  21927113.2124    7856566.38849   6148057.36146  21927112.8864   21927117.7114
       232.0004        184.0004
  22709691.7614   -9582134.57749  -7441267.34846  22709690.6984   22709696.3154
       224.0004        175.0004
  22398798.4904    5054568.50649   3965819.06346  22398798.3954   22398802.4014
       226.0004        173.0004
  21044972.3864  -12011873.01949  -9314327.63347  21044972.5294   21044975.5274
       238.0004        196.0004
 06  8 30 18 55 30.0000000  0  5G23G20G27G16G13
  20344673.8234   -5039478.09249  -3899176.76447  20344673.5664   20344674.3564
       240.0004        208.0004
  21944246.5644    7946602.44249   6218215.28146  21944246.2344   21944250.8034
       231.0004        184.0004
  22701564.9484   -9624840.65149  -7474544.78446  22701564.3144   22701569.7924
       223.0004        174.0004
  22413396.6284    5131282.12849   4025595.90446  22413396.6084   22413400.8454
       226.0004        173.0004
  21035044.0494  -12064046.79849  -9354982.51647  21035043.7924   21035047.4334
       238.0004        196.0004
 06  8 30 18 56  0.0000000  0  5G23G20G27G16G13
  20345104.9684   -5037212.49449  -3897411.36747  20345104.6374   20345105.5404
       240.0004        209.0004
  21961440.4714    8036956.54349   6288621.02646  21961440.0214   21961444.3594
       231.0004        183.0004
  22693466.0744   -9667400.26049  -7507708.09446  22693465.9304   22693471.7044
       223.0004        175.0004
  22428066.4314    5208372.53149   4085666.31846  22428066.2934   22428069.4244
       225.0004        172.0004
  21025155.6914  -12116010.45349  -9395473.66947  21025155.6184   21025158.9354
       238.0004        196.0004
 06  8 30 18 56 30.0000000  0  5G23G20G27G16G13
  20345604.2674   -5034588.63049  -3895366.80247  20345603.8524   20345604.8694
       240.0004        209.0004
  21978693.9244    8127623.94549   6359270.89946  21978692.9284   21978698.1354
       230.0004        182.0004
  22685394.6054   -9709816.26349  -7540759.50146  22685395.3084   22685399.4414
       224.0004        175.0004
  22442807.0264    5285834.91749   4146026.59446  22442806.5184   22442811.5514
       224.0004        171.0004
  21015307.1874  -12167764.66049  -9435801.61947  21015307.3454   21015310.2134
       238.0004        196.0004
 06  8 30 18 57  0.0000000  0  5G23G20G27G16G13
  20346172.4284   -5031602.86549  -3893040.23847  20346172.2884   20346173.1694
       240.0004        209.0004
  21996006.8654    8218604.43649   6430164.73946  21996006.3024   21996011.2754
       229.0004        181.0004
  22677350.6964   -9752087.47449  -7573698.09046  22677349.5384   22677355.5554
       224.0004        176.0004
  22457618.3534    5363669.14149   4206676.60546  22457617.7054   22457621.8464
       222.0004        170.0004
  21005499.3664  -12219305.11649  -9475963.01047  21005499.5154   21005502.5854
       238.0004        197.0004
 06  8 30 18 57 30.0000000  0  5G23G20G27G16G13
  20346809.5534   -5028254.98149  -3890431.49547  20346809.2274   20346810.1944
       240.0004        209.0004
  22013378.7154    8309894.10049   6501299.49346  22013378.1354   22013383.3724
       227.0004        180.0004
  22669334.0104   -9794215.05349  -7606524.76246  22669333.5074   22669338.8094
       225.0004        176.0004
  22472499.8134    5441871.90149   4267613.79446  22472499.4924   22472503.3184
       223.0004        169.0004
  20995732.4274  -12270630.64149  -9515956.91747  20995732.1874   20995735.7144
       238.0004        197.0004
 06  8 30 18 58  0.0000000  0  5G23G20G27G16G13
  20347515.7064   -5024544.32349  -3887540.08647  20347515.3284   20347516.1424
       240.0004        210.0004
  22030808.7534    8401489.43849   6572672.42546  22030807.5594   22030812.9524
       227.0004        179.0004
  22661344.4854   -9836200.27349  -7639240.48946  22661344.1284   22661349.7394
       225.0004        176.0004
  22487450.8004    5520439.83549   4328835.54246  22487450.6224   22487454.3474
       223.0004        169.0004
  20986006.5384  -12321740.42749  -9555782.71747  20986006.5004   20986009.7614
       238.0004        197.0004
 06  8 30 18 58 30.0000000  0  5G23G20G27G16G13
  20348291.0584   -5020469.86149  -3884365.18347  20348290.6814   20348291.7304
       240.0004        210.0004
  22048296.3984    8493387.83749   6644281.51446  22048296.1624   22048301.1734
       227.0004        179.0004
  22653381.9994   -9878043.50349  -7671845.58346  22653381.9404   22653386.9104
       226.0004        177.0004
  22502470.8784    5599370.47849   4390339.91046  22502470.7944   22502473.9664
       224.0004        170.0004
  20976322.0404  -12372632.66649  -9595438.99547  20976322.1844   20976325.3404
       238.0004        198.0004
 06  8 30 18 59  0.0000000  0  6G 8G23G20G27G16G13
                   -916700.09359   -679380.55943                  24680896.9344
       204.0004         89.0004
  20349135.8764   -5016030.27649  -3880905.77147  20349135.3774   20349136.5324
       240.0004        210.0004
  22065841.2294    8585586.33349   6716124.43546  22065840.9764   22065845.5114
       227.0004        178.0004
  22645446.3754   -9919745.64949  -7704340.73346  22645446.3144   22645450.7294
       226.0004        177.0004
  22517559.4264    5678661.16249   4452124.83346  22517558.9584   22517562.1444
       225.0004        171.0004
  20966679.2804  -12423305.56449  -9634924.35847  20966679.5104   20966682.7674
       238.0004        198.0004
 06  8 30 18 59 30.0000000  0  6G 8G23G20G27G16G13
  24666585.2004    -991863.83749   -737949.65244  24666584.1394   24666591.6964
       204.0004        125.0004
  20350050.3514   -5011224.66349  -3877161.14547  20350049.8344   20350050.9134
       240.0004        209.0004
  22083442.6034    8678082.07749   6788198.99046  22083442.5414   22083447.5484
       227.0004        178.0004
  22637537.3864   -9961307.70549  -7736726.73846  22637536.4104   22637541.6094
       226.0004        177.0004
  22532715.9814    5758309.05049   4514188.10346  22532715.2964   22532719.7554
       225.0004        171.0004
  20957078.5774  -12473757.53649  -9674237.57247  20957078.5664   20957082.0734
       238.0004        198.0004
 06  8 30 19  0  0.0000000  0  6G 8G23G20G27G16G13
  24652302.9114   -1066919.80649   -796434.78744  24652303.3164   24652307.8984
       205.0004        131.0004
  20351034.2524   -5006054.23749  -3873132.25147  20351033.9324   20351034.7164
       240.0004        209.0004
  22101099.5114    8770869.76049   6860501.02446  22101098.9984   22101103.9924
       227.0004        178.0004
  22629654.4264  -10002732.65349  -7769005.89346  22629654.6264   22629659.8034
       225.0004        177.0004
  22547939.5174    5838308.69649   4576525.45646  22547939.3564   22547943.3664
       225.0004        172.0004
  20947519.7774  -12523989.37149  -9713379.25547  20947520.0144   20947522.9404
       238.0004        198.0004
 06  8 30 19  0 30.0000000  0  6G 8G23G20G27G16G13
  24638041.8774   -1141864.23849   -854832.97845  24638040.8994   24638047.7184
       205.0004        132.0004
  20352088.4734   -5000514.23949  -3868815.37447  20352088.0334   20352089.1464
       242.0004        209.0004
  22118812.2194    8863950.43849   6933031.37146  22118811.2464   22118816.8764
       227.0004        177.0004
  22621798.2084  -10044017.25449  -7801175.70446  22621797.5754   22621803.2824
       227.0004        178.0004
  22563230.2684    5918661.94449   4639138.34646  22563229.6114   22563233.6594
       224.0004        172.0004
  20938003.9454  -12573995.23349  -9752344.85247  20938003.8824   20938007.3864
       238.0004        198.0004
 06  8 30 19  1  0.0000000  0  6G 8G23G20G27G16G13
  24623801.1594   -1216699.43149   -913146.07145  24623799.1394   24623807.4854
       203.0004        132.0004
  20353212.8734   -4994605.59549  -3864211.24247  20353212.5244   20353213.7674
       241.0004        209.0004
  22136579.7494    8957319.34749   7005786.31546  22136579.5554   22136584.0614
       227.0004        177.0004
  22613968.2594  -10085164.23249  -7833238.26046  22613968.2564   22613973.1304
       226.0004        178.0004
  22578587.4244    5999364.14849   4702023.14846  22578586.9894   22578591.3844
       224.0004        172.0004
  20928531.1014  -12623775.46149  -9791134.62947  20928531.3394   20928534.6594
       239.0004        198.0004
 06  8 30 19  1 30.0000000  0  6G 8G23G20G27G16G13
  24609581.5274   -1291423.68349   -971372.72045  24609581.3314   24609588.4404
       207.0004        132.0004
  20354407.9304   -4988325.52949  -3859317.69847  20354407.5274   20354408.6894
       242.0004        209.0004
  22154401.9334    9050975.11349   7078764.77646  22154401.9474   22154407.0764
       227.0004        177.0004
  22606164.6404  -10126172.66049  -7865192.85846  22606164.4184   22606168.8974
       227.0004        178.0004
  22594010.8044    6080414.17249   4765178.97146  22594010.8324   22594014.3744
       225.0004        172.0004
  20919101.8274  -12673326.75249  -9829746.01847  20919101.9374   20919105.1874
       238.0004        198.0004
 06  8 30 19  2  0.0000000  0  6G 8G23G20G27G16G13
  24595383.4904   -1366035.69849  -1029511.89045  24595383.1014   24595390.1354
       203.0004        133.0004
  20355674.1864   -4981671.46749  -3854132.72247  20355674.0004   20355674.9144
       242.0004        209.0004
  22172278.4374    9144916.41549   7151965.73046  22172277.9714   22172283.1234
       227.0004        176.0004
  22598387.5154  -10167041.86949  -7897038.97246  22598387.1424   22598391.4554
       226.0004        178.0004
  22609500.1044    6161810.84649   4828604.95246  22609499.1894   22609504.4214
       224.0004        172.0004
  20909716.7514  -12722645.62949  -9868176.30347  20909716.7544   20909719.9354
       238.0004        198.0004
 06  8 30 19  2 30.0000000  0  6G 8G23G20G27G16G13
  24581206.6264   -1440535.56349  -1087563.69045  24581206.1554   24581213.1414
       206.0004        134.0004
  20357011.6274   -4974643.02749  -3848656.02347  20357011.1644   20357012.2214
       241.0004        209.0004
  22190208.6264    9239140.15849   7225386.78646  22190207.6294   22190213.8304
       227.0004        176.0004
  22590636.6784  -10207772.64249  -7928777.22146  22590636.2484   22590640.1204
       226.0004        178.0004
  22625054.7574    6243551.02949   4892298.56146  22625053.3514   22625057.7824
       224.0004        171.0004
  20900376.1614  -12771730.77649  -9906424.45447  20900376.3914   20900379.5944
       239.0004        198.0004
 06  8 30 19  3  0.0000000  0  6G 8G23G20G27G16G13
  24567050.9524   -1514924.62649  -1145529.14245  24567050.2554   24567055.8314
       206.0004        134.0004
  20358420.4624   -4967239.41649  -3842886.97847  20358420.1294   20358421.2184
       241.0004        209.0004
  22208191.7584    9333642.33149   7299024.79646  22208191.5494   22208195.8384
       227.0004        175.0004
  22582911.8444  -10248366.76349  -7960408.98046  22582911.5564   22582916.9544
       226.0004        178.0004
  22640674.1014    6325631.03149   4956256.98646  22640674.2774   22640678.2064
       224.0004        172.0004
  20891080.1624  -12820581.52949  -9944489.96647  20891080.3064   20891083.3194
       238.0004        198.0004
 06  8 30 19  3 30.0000000  0  6G 8G23G20G27G16G13
  24552916.6024   -1589202.23849  -1203407.75845  24552915.7604   24552920.9274
       205.0004        135.0004
  20359900.8494   -4959459.98349  -3836825.09047  20359900.4444   20359901.7324
       242.0004        209.0004
  22226227.4054    9428420.36349   7372877.75846  22226226.9734   22226232.5814
       227.0004        175.0004
  22575212.9704  -10288824.62149  -7991934.56546  22575212.1964   22575218.1874
       226.0004        178.0004
  22656357.6804    6408048.56449   5020478.41846  22656357.0204   22656360.8164
       224.0004        171.0004
  20881829.1844  -12869195.62149  -9982371.06347  20881829.2504   20881832.5024
       238.0004        198.0004
 06  8 30 19  4  0.0000000  0  6G 8G23G20G27G16G13
  24538802.9774   -1663369.19649  -1261200.14445  24538800.7224   24538807.7334
       205.0004        136.0004
  20361452.9064   -4951303.94749  -3830469.74147  20361452.4104   20361453.5594
       241.0004        209.0004
  22244315.1064    9523471.24949   7446943.33046  22244315.1914   22244319.4354
       227.0004        175.0004
  22567539.7494  -10329147.31549  -8023354.82746  22567539.2784   22567544.7944
       225.0004        179.0004
  22672104.8744    6490800.72649   5084960.60946  22672104.5794   22672108.4384
       223.0004        170.0004
  20872623.4884  -12917572.04149 -10020066.96147  20872623.7634   20872626.7604
       239.0004        199.0004
 06  8 30 19  4 30.0000000  0  6G 8G23G20G27G16G13
  24524710.3484   -1737425.63349  -1318906.41945  24524709.4574   24524715.8744
       206.0004        136.0004
  20363076.7934   -4942770.17249  -3823820.05147  20363076.4164   20363077.2654
       242.0004        209.0004
  22262454.1394    9618791.79049   7521219.02346  22262454.1044   22262458.2604
       227.0004        174.0004
  22559892.1304  -10369335.72849  -8054670.44846  22559891.8724   22559896.8644
       226.0004        179.0004
  22687915.1374    6573884.57749   5149701.24946  22687914.3444   22687919.1124
       223.0004        169.0004
  20863463.4264  -12965708.70849 -10057576.03847  20863463.6654   20863466.5434
       239.0004        199.0004
 06  8 30 19  5  0.0000000  0  6G 8G23G20G27G16G13
  24510639.0144   -1811370.94849  -1376526.08845  24510639.1784   24510645.6754
       206.0004        138.0004
  20364772.9044   -4933857.10649  -3816874.81447  20364772.6714   20364773.3974
       242.0004        208.0004
  22280644.0014    9714379.72049   7595703.06846  22280643.8914   22280647.9974
       227.0004        174.0004
  22552270.0104  -10409390.06649  -8085881.60146  22552270.1884   22552274.8134
       226.0004        179.0004
  22703788.2024    6657297.82249   5214698.56146  22703788.5044   22703792.0624
       223.0004        170.0004
  20854349.3984  -13013603.20749 -10094896.41947  20854349.2544   20854352.7434
       239.0004        200.0004
 06  8 30 19  5 30.0000000  0  6G 8G23G20G27G16G13
  24496588.6474   -1885205.83449  -1434059.71745  24496587.0664   24496595.3924
       205.0004        139.0004
  20366541.2404   -4924564.55049  -3809633.86747  20366540.9074   20366542.1074
       242.0004        208.0004
  22298884.0384    9810231.55349   7670392.76046  22298884.0144   22298888.3524
       227.0004        174.0004
  22544673.2174  -10449311.52549  -8116989.21046  22544672.6384   22544677.1664
       226.0004        179.0004
  22719723.3464    6741037.45249   5279950.19846  22719723.4934   22719726.8614
       222.0004        171.0004
  20845281.6364  -13061254.57549 -10132027.34947  20845281.7024   20845285.4464
       239.0004        200.0004
 06  8 30 19  6  0.0000000  0  6G 8G23G20G27G16G13
  24482559.5094   -1958930.43349  -1491507.42445  24482560.9764   24482565.0914
       208.0004        139.0004
  20368382.0114   -4914891.28849  -3802096.26347  20368381.5434   20368382.7864
       241.0004        209.0004
  22317173.7604    9906344.35449   7745285.80246  22317173.4224   22317178.7884
       227.0004        174.0004
  22537101.5554  -10489100.48149  -8147993.57446  22537101.3494   22537106.6084
       226.0004        179.0004
  22735720.0994    6825100.86649   5345454.11646  22735720.1484   22735724.4124
       223.0004        171.0004
  20836260.4994  -13108660.86849 -10168967.31147  20836260.4074   20836264.0034
       239.0004        200.0004
 06  8 30 19  6 30.0000000  0  6G 8G23G20G27G16G13
  24468551.4034   -2032544.22749  -1548868.77545  24468550.7154   24468557.2654
       207.0004        140.0004
  20370295.4574   -4904836.13149  -3794261.08147  20370295.0884   20370296.1454
       241.0004        208.0004
  22335512.7144   10002715.63649   7820380.25146  22335512.4764   22335517.2464
       226.0004        174.0004
  22529554.9754  -10528757.64149  -8178895.22746  22529554.4944   22529560.0214
       226.0004        179.0004
  22751778.0484    6909485.73849   5411208.53646  22751778.2024   22751780.6954
       223.0004        170.0004
  20827286.4004  -13155819.90249 -10205714.60847  20827286.6594   20827289.9834
       239.0004        200.0004
 06  8 30 19  7  0.0000000  0  6G 8G23G20G27G16G13
  24454563.9754   -2106048.50949  -1606144.78445  24454563.2084   24454570.1434
       205.0004        139.0004
  20372281.4974   -4894399.24649  -3786128.45347  20372281.1234   20372282.1214
       241.0004        208.0004
  22353900.0244   10099341.39549   7895672.99446  22353899.3484   22353904.1174
       226.0004        173.0004
  22522033.1864  -10568284.85549  -8209695.63446  22522033.4814   22522038.0434
       226.0004        179.0004
  22767896.4634    6994188.21949   5477210.44946  22767896.6634   22767900.1554
       222.0004        169.0004
  20818359.5804  -13202730.99849 -10242268.70847  20818359.8294   20818363.1064
       239.0004        201.0004
 06  8 30 19  7 30.0000000  0  6G 8G23G20G27G16G13
  24440597.5084   -2179441.72049  -1663334.24145  24440596.8074   24440601.9534
       205.0004        139.0004
  20374340.8024   -4883577.58549  -3777695.99547  20374340.3084   20374341.6954
       241.0004        208.0004
  22372335.5164   10196220.25949   7971162.97646  22372334.9054   22372340.4634
       226.0004        173.0004
  22514536.3134  -10607681.04349  -8240393.93246  22514535.9114   22514541.3274
       226.0004        179.0004
  22784075.0194    7079207.22849   5543459.00946  22784074.2744   22784079.2964
       220.0004        167.0004
  20809480.5204  -13249390.90549 -10278627.06947  20809480.8164   20809483.6604
       239.0004        201.0004
 06  8 30 19  8  0.0000000  0  6G 8G23G20G27G16G13
  24426652.1874   -2252724.67349  -1720437.78745  24426650.7924   24426656.9144
       204.0004        139.0004
  20376473.2534   -4872371.37349  -3768963.89047  20376473.1814   20376474.1674
       241.0004        208.0004
  22390818.5634   10293348.74149   8046847.45046  22390818.0994   22390823.0334
       226.0004        172.0004
  22507064.1614  -10646947.40049  -8270991.07246  22507063.8244   22507068.8464
       227.0004        179.0004
  22800313.0964    7164539.21349   5609951.42046  22800312.6524   22800317.5874
       220.0004        166.0004
  20800649.4414  -13295798.46249 -10314788.79547  20800649.5304   20800652.5374
       239.0004        201.0004
 06  8 30 19  8 30.0000000  0  6G 8G23G20G27G16G13
  24412727.8054   -2325897.38649  -1777455.41945  24412726.9014   24412733.0864
       207.0004        140.0004
  20378679.1204   -4860779.66249  -3759931.39347  20378679.0844   20378679.8664
       240.0004        208.0004
  22409348.5374   10390724.04249   8122724.26846  22409348.3314   22409353.0914
       225.0004        172.0004
  22499616.5264  -10686084.81549  -8301487.73746  22499616.5604   22499621.8764
       227.0004        179.0004
  22816610.3644    7250181.68749   5676685.78446  22816610.2094   22816613.3094
       220.0004        166.0004
  20791866.7964  -13341951.65049 -10350752.31247  20791866.9604   20791870.0724
       240.0004        201.0004
 06  8 30 19  9  0.0000000  0  6G 8G23G20G27G16G13
  24398824.3664   -2398959.97649  -1834387.25645  24398823.2464   24398831.6044
       205.0004        141.0004
  20380958.6304   -4848800.75549  -3750597.19147  20380958.3164   20380959.4294
       239.0004        208.0004
  22427924.9134   10488343.51049   8198791.32946  22427923.9814   22427928.5104
       225.0004        171.0004
  22492193.4294  -10725093.52249  -8331884.11646  22492193.5184   22492198.1184
       226.0004        179.0004
  22832966.3104    7336132.43049   5743660.36446  22832966.1064   22832969.6844
       220.0004        164.0004
  20783132.9354  -13387848.43049 -10386516.03147  20783132.9264   20783136.4514
       239.0004        201.0004
 06  8 30 19  9 30.0000000  0  7G 8G23G19G20G27G16G13
  24384941.6404   -2471914.24349  -1891234.68245  24384941.2964   24384947.9954
       206.0004        141.0004
  20383311.5894   -4836435.92249  -3740962.25947  20383311.1774   20383312.3204
       239.0004        208.0004
                  -1826919.20559  -1380085.90843
       205.0004         74.0004
  22446546.8384   10586202.28449   8275044.87546  22446546.6694   22446550.6914
       224.0004        171.0004
  22484794.2694  -10763976.25549  -8362182.32646  22484793.4714   22484798.8094
       227.0004        180.0004
  22849379.8904    7422386.66949   5810871.44345  22849379.4744   22849384.2334
       220.0004        162.0004
  20774447.8244  -13433488.87749 -10422080.00547  20774448.1194   20774451.0334
       239.0004        201.0004
 06  8 30 19 10  0.0000000  0  7G 8G23G19G20G27G16G13
  24371079.9714   -2544757.61749  -1947995.71245  24371079.9124   24371085.6404
       205.0004        140.0004
  20385738.5824   -4823681.94949  -3731024.11047  20385738.3274   20385739.3714
       239.0004        208.0004
                  -1902450.06649  -1438941.22644                  24213848.5014
       202.0004        123.0004
  22465214.1414   10684299.79949   8351484.43146  22465213.4264   22465218.7524
       223.0004        170.0004
  22477419.4214  -10802731.33549  -8392381.06746  22477419.3564   22477424.0484
       228.0004        180.0004
  22865851.2414    7508944.14849   5878318.80345  22865850.7314   22865854.9434
       221.0004        162.0004
  20765812.2874  -13478868.81249 -10457440.98547  20765812.2374   20765815.2654
       239.0004        201.0004
 06  8 30 19 10 30.0000000  0  7G 8G23G19G20G27G16G13
  24357239.0034   -2617491.54349  -2004671.44045  24357236.8464   24357244.3824
       206.0004        140.0004
  20388239.5944   -4810539.12949  -3720782.95747  20388239.1364   20388240.4754
       239.0004        208.0004
  24199483.8794   -1977926.92249  -1497754.30545  24199481.4084   24199487.6864
       202.0004        134.0004
  22483925.9854   10782631.70749   8428106.65546  22483925.7824   22483930.9394
       223.0004        169.0004
  22470068.5404  -10841360.64149  -8422481.79546  22470068.1464   22470073.0214
       228.0004        180.0004
  22882379.5304    7595800.86549   5945999.34246  22882379.2194   22882383.4204
       219.0004        163.0004
  20757226.3904  -13523987.74549 -10492598.58447  20757226.2714   20757229.6504
       240.0004        201.0004
 06  8 30 19 11  0.0000000  0  7G 8G23G19G20G27G16G13
  24343419.0644   -2690115.62149  -2061261.58945  24343418.5724   24343424.6134
       209.0004        140.0004
  20390814.9264   -4797005.54349  -3710237.31447  20390814.3234   20390815.8384
       239.0004        208.0004
  24185131.4904   -2053346.01349  -1556522.38245  24185130.4034   24185136.6314
       201.0004        136.0004
  22502682.2534   10881196.20349   8504910.09746  22502682.1774   22502686.5154
       223.0004        169.0004
  22462741.5874  -10879863.94649  -8452484.34846  22462741.7574   22462746.3764
       227.0004        180.0004
  22898964.4094    7682954.88349   6013911.52846  22898964.6074   22898967.5254
       219.0004        163.0004
  20748690.6484  -13568842.95949 -10527550.69547  20748690.6104   20748694.0874
       241.0004        201.0004
 06  8 30 19 11 30.0000000  0  7G 8G23G19G20G27G16G13
  24329620.2874   -2762629.70949  -2117766.04145  24329620.0254   24329625.3944
       209.0004        141.0004
  20393464.8674   -4783079.90149  -3699386.17247  20393464.3684   20393465.7934
       239.0004        208.0004
  24170791.2894   -2128704.13049  -1615242.96245  24170788.9314   24170794.4454
       204.0004        136.0004
  22521482.4204   10979990.95749   8581892.97846  22521482.3724   22521487.1004
       222.0004        169.0004
  22455438.5014  -10918241.57149  -8482388.98046  22455438.0344   22455443.1564
       227.0004        180.0004
  22915605.3974    7770403.94549   6082053.62845  22915605.1874   22915610.3034
       221.0004        161.0004
  20740205.6034  -13613432.11849 -10562295.48947  20740205.7044   20740208.7624
       240.0004        201.0004
 06  8 30 19 12  0.0000000  0  7G 8G23G19G20G27G16G13
  24315842.2804   -2835033.74949  -2174184.75645  24315841.8334   24315846.5824
       207.0004        141.0004
  20396189.5314   -4768761.72149  -3688229.16547  20396189.0324   20396190.3574
       238.0004        207.0004
  24156463.1734   -2203998.38949  -1673913.78345  24156462.0294   24156466.6534
       203.0004        136.0004
  22540325.4734   11079011.98149   8659052.15446  22540325.0184   22540329.8674
       222.0004        169.0004
  22448159.1014  -10956494.85149  -8512196.71146  22448159.0434   22448163.8004
       228.0004        180.0004
  22932302.0134    7858145.08249   6150423.32145  22932301.1384   22932305.6344
       220.0004        159.0004
  20731771.4474  -13657754.00749 -10596832.01947  20731771.7034   20731774.7084
       240.0004        201.0004
 06  8 30 19 12 30.0000000  0  7G 8G23G19G20G27G16G13
  24302084.8884   -2907328.09549  -2230517.99745  24302083.6084   24302090.0384
       206.0004        140.0004
  20398989.0334   -4754050.27949  -3676765.71447  20398988.6744   20398990.0604
       239.0004        208.0004
  24142147.8104   -2279226.22749  -1732532.83345  24142146.7304   24142152.7724
       202.0004        136.0004
  22559211.1064   11178256.77049   8736385.70546  22559209.7544   22559215.8584
       222.0004        169.0004
  22440903.3474  -10994624.30249  -8541907.95746  22440903.0464   22440907.3524
       227.0004        180.0004
  22949053.6454    7946175.41249   6219018.35945  22949053.3314   22949057.0154
       219.0004        160.0004
  20723388.5154  -13701806.78149 -10631158.84947  20723388.7564   20723391.7224
       241.0004        201.0004
 06  8 30 19 13  0.0000000  0  7G 8G23G19G20G27G16G13
  24288348.5334   -2979511.82449  -2286765.03745  24288347.3574   24288354.9704
       207.0004        140.0004
  20401863.7924   -4738943.59949  -3664994.28247  20401863.3244   20401864.6744
       239.0004        208.0004
  24127845.7444   -2354383.69549  -1791097.06845  24127844.2014   24127849.5164
       206.0004        138.0004
  22578139.0704   11277723.44249   8813892.14146  22578138.0204   22578143.8264
       223.0004        169.0004
  22433671.2174  -11032629.40049  -8571522.29246  22433670.8534   22433675.9294
       228.0004        180.0004
  22965860.0084    8034493.45649   6287837.58745  22965859.1874   22965864.6524
       220.0004        161.0004
  20715057.3974  -13745587.17449 -10665273.43547  20715057.3444   20715060.9634
       241.0004        202.0004
 06  8 30 19 13 30.0000000  0  7G 8G23G19G20G27G16G13
  24274633.2884   -3051586.38249  -2342927.00745  24274633.9514   24274638.6644
       208.0004        141.0004
  20404813.6454   -4723442.10049  -3652915.20247  20404813.4024   20404814.4784
       239.0004        208.0004
  24113557.5824   -2429468.87649  -1849604.97245  24113556.9024   24113561.7994
       205.0004        139.0004
  22597108.5264   11377407.75149   8891568.16246  22597108.5574   22597113.8184
       222.0004        169.0004
  22426462.2964  -11070512.27749  -8601041.39946  22426461.9834   22426466.7654
       228.0004        181.0004
  22982720.3664    8123095.16549   6356877.84145  22982720.0844   22982724.2554
       220.0004        162.0004
  20706778.1384  -13789094.95949 -10699175.59847  20706778.1864   20706781.6234
       241.0004        202.0004
 06  8 30 19 14  0.0000000  0  7G 8G23G19G20G27G16G13
  24260938.8864   -3123551.95149  -2399004.03245  24260938.0824   24260943.8184
       207.0004        141.0004
  20407838.7074   -4707545.43049  -3640528.20147  20407838.2784   20407839.6694
       239.0004        208.0004
  24099283.5854   -2504479.07749  -1908054.46945  24099281.6244   24099288.0384
       205.0004        141.0004
  22616118.7554   11477306.67349   8969411.41446  22616117.7974   22616124.2804
       222.0004        169.0004
  22419276.4194  -11108274.02449  -8630466.11046  22419276.3184   22419281.2294
       228.0004        181.0004
  22999634.1284    8211977.60549   6426136.85445  22999633.6554   22999638.0814
       220.0004        162.0004
  20698551.0804  -13832328.52949 -10732864.08847  20698551.4014   20698554.6684
       241.0004        203.0004
 06  8 30 19 14 30.0000000  0  7G 8G23G19G20G27G16G13
  24247264.7714   -3195409.40149  -2454996.80445  24247263.0194   24247270.3104
       207.0004        141.0004
  20410939.0974   -4691252.79249  -3627832.65247  20410938.7014   20410940.0544
       239.0004        208.0004
  24085024.2874   -2579411.51049  -1966443.36245  24085024.0354   24085027.8494
       206.0004        142.0004
  22635168.9834   11577416.45249   9047418.97546  22635167.8694   22635174.2744
       222.0004        169.0004
  22412113.4814  -11145915.71849  -8659797.29246  22412113.6174   22412117.7884
       229.0004        181.0004
  23016600.7724    8301137.81049   6495612.31745  23016599.6904   23016604.0054
       220.0004        161.0004
  20690376.4504  -13875286.63249 -10766337.93047  20690376.4804   20690379.9934
       241.0004        203.0004
 06  8 30 19 15  0.0000000  0  7G 8G23G19G20G27G16G13
  24233611.6514   -3267155.72049  -2510903.00745  24233609.9614   24233617.8294
       206.0004        140.0004
  20414115.5684   -4674560.31249  -3614825.53847  20414115.2424   20414116.4044
       239.0004        207.0004
  24070781.0114   -2654260.56649  -2024767.27945  24070780.1164   24070786.0674
       206.0004        143.0004
  22654259.5014   11677737.36049   9125591.06346  22654259.3434   22654264.4324
       223.0004        168.0004
  22404973.9134  -11183434.52949  -8689032.70446  22404974.3294   22404978.7284
       229.0004        182.0004
  23033620.2324    8390575.71149   6565304.16145  23033619.9574   23033623.7624
       222.0004        160.0004
  20682255.1794  -13917963.99149 -10799593.00747  20682255.2834   20682258.4804
       241.0004        202.0004
 06  8 30 19 15 30.0000000  0  7G 8G23G19G20G27G16G13
  24219979.2674   -3338793.76649  -2566724.82945  24219978.8184   24219985.2334
       207.0004        141.0004
  20417367.6914   -4657470.06149  -3601508.47247  20417367.2714   20417368.7754
       239.0004        207.0004
  24056553.5974   -2729025.78349  -2083025.86545  24056552.3854   24056557.5864
       204.0004        143.0004
  22673389.1044   11778263.63249   9203923.16646  22673388.8894   22673393.3164
       223.0004        168.0004
  22397857.0134  -11220834.14949  -8718175.24946  22397857.3164   22397861.8024
       230.0004        182.0004
  23050691.6004    8480286.36849   6635208.53745  23050690.9794   23050695.4414
       220.0004        161.0004
  20674187.1834  -13960361.55649 -10832630.06647  20674187.3884   20674190.6094
       241.0004        203.0004
 06  8 30 19 16  0.0000000  0  7G 8G23G19G20G27G16G13
  24206367.6844   -3410322.70749  -2622461.62645  24206367.4904   24206373.8314
       207.0004        142.0004
  20420695.8474   -4639980.46849  -3587880.23047  20420695.4474   20420696.6734
       239.0004        207.0004
  24042342.9234   -2803703.16949  -2141216.01645  24042341.5634   24042348.1774
       207.0004        144.0004
  22692557.4444   11878993.58549   9282413.97646  22692557.1104   22692562.7914
       223.0004        168.0004
  22390762.8964  -11258114.38249  -8747224.76346  22390762.8474   22390767.0504
       230.0004        182.0004
  23067814.5744    8570267.63949   6705323.78945  23067814.7644   23067818.4954
       222.0004        161.0004
  20666172.9844  -14002476.77349 -10865447.11147  20666172.8564   20666176.2624
       239.0004        203.0004
 06  8 30 19 16 30.0000000  0  7G 8G23G19G20G27G16G13
  24192776.9304   -3481743.02749  -2678113.77745  24192776.7594   24192783.3034
       207.0004        143.0004
  20424100.1414   -4622091.01149  -3573940.40047  20424099.8304   20424101.1824
       239.0004        207.0004
  24028149.3194   -2878290.44049  -2199335.94845  24028148.4294   24028153.8594
       206.0004        146.0004
  22711763.7664   11979923.43049   9361060.55746  22711763.8834   22711768.1624
       222.0004        168.0004
  22383691.1654  -11295276.61449  -8776182.32746  22383690.6834   22383695.2694
       229.0004        182.0004
  23084988.4844    8660516.45349   6775647.50945  23084988.5554   23084992.0864
       221.0004        161.0004
  20658212.7074  -14044308.14049 -10898042.97647  20658212.9774   20658216.1334
       239.0004        202.0004
 06  8 30 19 17  0.0000000  0  7G 8G23G19G20G27G16G13
  24179206.6044   -3553056.67849  -2733682.79145  24179207.0434   24179212.8574
       210.0004        145.0004
  20427580.3124   -4603802.52149  -3559689.63747  20427580.0314   20427581.4944
       239.0004        207.0004
  24013973.2904   -2952786.11949  -2257384.51245  24013972.1434   24013977.4104
       205.0004        146.0004
  22731007.2874   12081048.97449   9439859.62946  22731006.2124   22731011.9354
       223.0004        168.0004
  22376641.4264  -11332322.95449  -8805049.58946  22376640.8844   22376645.8674
       229.0004        182.0004
  23102212.5164    8751028.74949   6846176.54645  23102212.5014   23102215.1594
       220.0004        161.0004
  20650306.5044  -14085855.20949 -10930417.30947  20650306.3704   20650310.1154
       238.0004        202.0004
 06  8 30 19 17 30.0000000  0  7G 8G23G19G20G27G16G13
  24165656.7964   -3624261.46549  -2789166.98245  24165655.7354   24165662.6554
       207.0004        143.0004
  20431137.0574   -4585111.94049  -3545125.55947  20431136.7384   20431138.1674
       240.0004        207.0004
  23999815.7664   -3027184.62149  -2315357.36045  23999813.9954   23999820.4694
       206.0004        145.0004
  22750288.0374   12182369.76949   9518810.84046  22750287.5144   22750293.0414
       222.0004        167.0004
  22369614.1014  -11369251.39149  -8833824.97946  22369613.6294   22369618.3544
       229.0004        182.0004
  23119486.5834    8841804.31649   6916910.71345  23119486.0634   23119490.7724
       220.0004        160.0004
  20642455.2104  -14127113.87549 -10962566.91847  20642455.0464   20642458.5524
       239.0004        202.0004
 06  8 30 19 18  0.0000000  0  7G 8G23G19G20G27G16G13
  24152127.5274   -3695356.98349  -2844566.01945  24152126.3414   24152133.3494
       208.0004        142.0004
  20434770.5294   -4566018.01449  -3530247.18247  20434770.1934   20434771.4014
       239.0004        207.0004
  23985677.1844   -3101482.92249  -2373252.11845  23985676.7124   23985681.3794
       207.0004        146.0004
  22769605.3734   12283882.83049   9597911.87046  22769605.0304   22769610.1734
       221.0004        166.0004
  22362609.1894  -11406062.55449  -8862508.97546  22362609.2484   22362613.7604
       230.0004        182.0004
  23136810.1464    8932840.26749   6987847.78445  23136809.9304   23136813.1014
       220.0004        160.0004
  20634659.1694  -14168082.28249 -10994490.35147  20634659.3634   20634662.5774
       239.0004        202.0004
 06  8 30 19 18 30.0000000  0  7G 8G23G19G20G27G16G13
  24138619.1144   -3766343.08249  -2899879.80845  24138618.5324   24138625.3484
       206.0004        142.0004
  20438480.9284   -4546519.89549  -3515053.85447  20438480.6644   20438481.5354
       239.0004        207.0004
  23971558.4694   -3175677.65749  -2431066.18045  23971557.7764   23971561.9564
       206.0004        145.0004
  22788958.7474   12385585.63349   9677160.74946  22788958.4324   22788963.7184
       221.0004        166.0004
  22355626.4634  -11442756.87849  -8891101.92446  22355626.3624   22355630.3614
       229.0004        182.0004
  23154182.9704    9024134.70049   7058986.27045  23154182.1234   23154186.3634
       219.0004        160.0004
  20626918.8424  -14208758.14849 -11026185.82547  20626919.1414   20626922.1934
       240.0004        203.0004
 06  8 30 19 19  0.0000000  0  7G 8G23G19G20G27G16G13
  24125131.3584   -3837221.04249  -2955109.32745  24125131.2294   24125137.2034
       209.0004        143.0004
  20442268.2064   -4526617.77149  -3499545.72147  20442267.8524   20442269.2864
       240.0004        208.0004
  23957459.7434   -3249766.81549  -2488797.96245  23957459.5864   23957463.7874
       205.0004        144.0004
  22808347.4074   12487473.99449   9756554.20746  22808347.4804   22808352.8874
       221.0004        165.0004
  22348665.5744  -11479335.91049  -8919605.05646  22348664.9114   22348670.1644
       228.0004        182.0004
  23171604.1604    9115683.53349   7130322.98545  23171604.1724   23171607.5424
       217.0004        159.0004
  20619234.3734  -14249140.41949 -11057652.52947  20619234.4714   20619237.7684
       239.0004        203.0004
 06  8 30 19 19 30.0000000  0  7G 8G23G19G20G27G16G13
  24111664.5944   -3907990.78149  -3010254.51445  24111664.6424   24111670.1844
       211.0004        145.0004
  20446132.5514   -4506310.59249  -3483721.95547  20446131.9974   20446133.5104
       240.0004        208.0004
  23943381.6254   -3323747.09949  -2546444.92345  23943380.3734   23943386.8374
       206.0004        144.0004
  22827770.9534   12589545.37749   9836090.30346  22827770.1944   22827775.4204
       221.0004        164.0004
  22341726.6114  -11515800.01549  -8948018.62146  22341725.8254   22341731.4374
       230.0004        182.0004
  23189073.3404    9207484.61149   7201856.24745  23189073.6184   23189076.1144
       217.0004        157.0004
  20611606.1404  -14289226.95149 -11088888.78247  20611606.1024   20611609.3814
       239.0004        203.0004
 06  8 30 19 20  0.0000000  0  7G 8G23G19G20G27G16G13
  24098218.0534   -3978653.30949  -3065316.15845  24098217.6314   24098224.0324
       210.0004        146.0004
  20450073.9534   -4485598.61349  -3467582.76147  20450073.6994   20450074.8044
       239.0004        208.0004
  23929324.7144   -3397616.56249  -2604005.54145  23929323.5244   23929329.1774
       205.0004        145.0004
  22847228.8034   12691796.22149   9915766.21846  22847228.8534   22847234.4254
       222.0004        164.0004
  22334809.2824  -11552150.82849  -8976343.91346  22334808.8944   22334813.5884
       229.0004        182.0004
  23206589.8554    9299534.13349   7273583.11445  23206589.5624   23206592.8074
       218.0004        157.0004
  20604034.3814  -14329016.94049 -11119893.96447  20604034.6944   20604037.6304
       240.0004        203.0004
 06  8 30 19 20 30.0000000  0  7G 8G23G19G20G27G16G13
  24084792.0004   -4049207.95549  -3120293.73845  24084791.4264   24084797.8744
       211.0004        146.0004
  20454092.6644   -4464480.18849  -3451126.85247  20454092.1174   20454093.5624
       238.0004        208.0004
  23915289.8014   -3471371.11849  -2661476.58145  23915289.2804   23915293.9734
       206.0004        144.0004
  22866720.4294   12794224.37049   9995580.29546  22866719.6494   22866724.5474
       221.0004        163.0004
  22327913.4964  -11588388.12649  -9004580.74846  22327913.3674   22327918.5524
       228.0004        183.0004
  23224153.3604    9391830.61649   7345502.41545  23224152.8444   23224156.9184
       218.0004        157.0004
  20596519.5794  -14368507.62249 -11150665.92147  20596519.8564   20596523.0204
       240.0004        204.0004
 06  8 30 19 21  0.0000000  0  7G 8G23G19G20G27G16G13
  24071386.2264   -4119655.03149  -3175187.51845  24071385.2174   24071391.8974
       210.0004        144.0004
  20458188.7854   -4442954.88549  -3434353.90347  20458188.5414   20458189.4984
       239.0004        207.0004
  23901277.2034   -3545008.32149  -2718856.19645  23901276.2614   23901281.1244
       205.0004        144.0004
  22886244.9634   12896826.22849  10075529.73545  22886245.0724   22886250.0784
       219.0004        162.0004
  22321039.1574  -11624513.05249  -9032730.02046  22321038.8564   22321044.3224
       229.0004        183.0004
  23241763.1104    9484370.70849   7417611.52945  23241762.2634   23241766.8564
       216.0004        156.0004
  20589061.9804  -14407697.67049 -11181203.61847  20589062.1894   20589065.3944
       240.0004        204.0004
 06  8 30 19 21 30.0000000  0  7G 8G23G19G20G27G16G13
  24058001.1274   -4189993.32449  -3229996.52345  24058000.8934   24058005.9184
       212.0004        143.0004
  20462362.7304   -4421020.84949  -3417262.45847  20462362.4014   20462363.5314
       239.0004        207.0004
  23887287.6134   -3618523.66049  -2776140.84245  23887286.3264   23887291.3564
       207.0004        144.0004
  22905802.2114   12999600.38949  10155613.43745  22905801.9134   22905807.1044
       219.0004        161.0004
  22314186.3874  -11660524.59749  -9060790.94646  22314185.6914   22314190.9804
       229.0004        183.0004
  23259419.0444    9577153.27449   7489909.58545  23259418.1804   23259423.0314
       216.0004        155.0004
  20581662.2574  -14446583.45649 -11211504.22647  20581662.4724   20581665.5144
       239.0004        204.0004
 06  8 30 19 22  0.0000000  0  7G 8G23G19G20G27G16G13
  24044636.4774   -4260225.07749  -3284722.50945  24044636.3554   24044642.3484
       213.0004        144.0004
  20466614.2284   -4398678.82849  -3399853.10547  20466613.8784   20466615.0274
       239.0004        207.0004
  23873321.6024   -3691915.57549  -2833329.32145  23873321.2144   23873325.0894
       208.0004        144.0004
  22925391.3944   13102542.47049  10235827.98745  22925391.1624   22925396.5714
       219.0004        161.0004
  22307354.7464  -11696424.95049  -9088765.22146  22307354.2004   22307359.3994
       229.0004        183.0004
  23277120.2764    9670174.08849   7562393.29145  23277120.6554   23277124.3064
       215.0004        155.0004
  20574320.4424  -14485164.86749 -11241567.66447  20574320.5844   20574323.6224
       240.0004        204.0004
 06  8 30 19 22 30.0000000  0  7G 8G23G19G20G27G16G13
  24031292.3124   -4330349.44949  -3339364.82145  24031291.7834   24031297.5834
       213.0004        145.0004
  20470943.6224   -4375927.63649  -3382124.92047  20470943.3314   20470944.4874
       239.0004        206.0004
  23859379.8534   -3765180.45049  -2890418.79145  23859378.5564   23859383.4844
       205.0004        144.0004
  22945012.1344   13205650.13049  10316171.55445  22945011.0194   22945017.5314
       218.0004        160.0004
  22300544.2334  -11732214.43649  -9116653.10846  22300544.2944   22300548.8234
       229.0004        183.0004
  23294866.5164    9763430.98349   7635060.96845  23294865.8804   23294871.2664
       216.0004        156.0004
  20567037.0014  -14523439.50949 -11271392.05247  20567036.8574   20567040.5364
       239.0004        204.0004
 06  8 30 19 23  0.0000000  0  7G 8G23G19G20G27G16G13
  24017968.4614   -4400367.10849  -3393923.98445  24017966.9974   24017973.0364
       211.0004        146.0004
  20475350.9934   -4352767.05349  -3364077.72747  20475350.4904   20475351.9414
       239.0004        206.0004
  23845462.5944   -3838315.80649  -2947407.34145  23845461.3514   23845466.2384
       208.0004        145.0004
  22964663.7834   13308919.91449  10396641.44445  22964662.7154   22964669.6784
       218.0004        159.0004
  22293754.6404  -11767894.12949  -9144455.44146  22293753.9654   22293759.1304
       229.0004        183.0004
  23312657.1884    9856921.06849   7707910.35145  23312657.8134   23312660.9604
       216.0004        157.0004
  20559812.2454  -14561405.81449 -11300976.17947  20559812.3684   20559815.7074
       240.0004        204.0004
 06  8 30 19 23 30.0000000  0  7G 8G23G19G20G27G16G13
  24004664.8054   -4470277.73149  -3448399.75545  24004664.9364   24004669.9554
       211.0004        147.0004
  20479836.3664   -4329195.95049  -3345710.64347  20479835.7154   20479837.4074
       238.0004        206.0004
  23831570.7894   -3911317.95149  -3004292.06245  23831570.6774   23831574.3364
       206.0004        145.0004
  22984345.7794   13412349.46449  10477235.83045  22984344.5694   22984351.1874
       217.0004        159.0004
  22286985.8174  -11803463.96349  -9172172.18846  22286985.4314   22286990.5564
       229.0004        183.0004
  23330491.7744    9950642.05749   7780939.63945  23330491.4474   23330496.2734
       214.0004        157.0004
  20552646.6784  -14599061.25749 -11330318.08247  20552646.7894   20552649.8614
       240.0004        204.0004
 06  8 30 19 24  0.0000000  0  7G 8G23G19G20G27G16G13
  23991381.5194   -4540081.43749  -3502792.21445  23991380.8034   23991387.9204
       211.0004        145.0004
  20484400.1254   -4305213.36749  -3327022.93447  20484399.9654   20484401.1324
       239.0004        206.0004
  23817704.9514   -3984183.84049  -3061070.61045  23817703.2974   23817708.0654
       206.0004        145.0004
  23004057.5764   13515935.86749  10557952.42945  23004056.9734   23004063.3124
       216.0004        158.0004
  22280237.9884  -11838924.35049  -9199803.63646  22280237.7324   22280242.9784
       230.0004        184.0004
  23348369.8424   10044591.60149   7854147.03445  23348370.3804   23348373.5014
       215.0004        156.0004
  20545540.5244  -14636404.41349 -11359416.64747  20545540.5384   20545543.8854
       239.0004        204.0004
 06  8 30 19 24 30.0000000  0  7G 8G23G19G20G27G16G13
  23978118.4464   -4609778.74749  -3557101.77545  23978117.8644   23978123.2254
       209.0004        145.0004
  20489042.1734   -4280819.31749  -3308014.59247  20489041.7424   20489043.0864
       239.0004        206.0004
  23803865.3574   -4056910.91849  -3117740.99345  23803864.4584   23803869.3064
       204.0004        145.0004
  23023798.6774   13619676.11449  10638788.92945  23023799.3254   23023804.6214
       216.0004        159.0004
  22273510.7694  -11874276.50649  -9227350.74946  22273510.2704   22273515.3404
       229.0004        184.0004
  23366290.7724   10138766.46149   7927530.00345  23366290.2944   23366294.3894
       215.0004        155.0004
  20538494.1284  -14673433.46749 -11388270.45047  20538494.2464   20538497.3704
       240.0004        204.0004
 06  8 30 19 25  0.0000000  0  7G 8G23G19G20G27G16G13
  23964875.4054   -4679370.78549  -3611329.29545  23964875.8224   23964881.5424
       209.0004        146.0004
  20493762.4574   -4256014.12549  -3288685.88447  20493762.0944   20493763.4144
       238.0004        205.0004
  23790052.4654   -4129497.00249  -3174301.49945  23790050.7114   23790056.7114
       206.0004        145.0004
  23043568.2874   13723566.00449  10719742.01845  23043567.7604   23043573.7674
       216.0004        158.0004
  22266803.7634  -11909521.91949  -9254814.68546  22266803.1934   22266808.4454
       230.0004        184.0004
  23384253.8954   10233163.10349   8001085.80145  23384254.3084   23384257.7864
       213.0004        153.0004
  20531507.7084  -14710147.39049 -11416878.69747  20531507.9134   20531510.8124
       239.0004        205.0004
 06  8 30 19 25 30.0000000  0  7G 8G23G19G20G27G16G13
  23951652.8484   -4748856.16249  -3665473.70045  23951652.9364   23951657.6174
       212.0004        146.0004
  20498561.4244   -4230795.34749  -3269034.90747  20498561.0814   20498562.4374
       238.0004        205.0004
  23776267.4124   -4201937.61249  -3230748.65745  23776266.7634   23776271.3934
       206.0004        145.0004
  23063366.1804   13827604.14449  10800810.62245  23063365.8144   23063371.0864
       216.0004        158.0004
  22260117.2504  -11944659.43549  -9282194.55146  22260116.4124   22260121.7024
       229.0004        184.0004
  23402258.9654   10327780.49249   8074813.58145  23402258.6734   23402262.0264
       212.0004        152.0004
  20524581.9154  -14746542.67949 -11445238.66447  20524581.9584   20524585.2554
       239.0004        205.0004
 06  8 30 19 26  0.0000000  0  7G 8G23G19G20G27G16G13
  23938450.6514   -4818233.83349  -3719534.18045  23938450.2864   23938456.4284
       210.0004        147.0004
  20503439.4044   -4205161.60349  -3249060.57847  20503439.2144   20503440.4534
       238.0004        205.0004
  23762510.9424   -4274228.56049  -3287079.18545  23762509.3174   23762514.6764
       207.0004        146.0004
  23083191.9504   13931788.74949  10881993.35245  23083191.9594   23083197.1874
       216.0004        159.0004
  22253451.3324  -11979688.98649  -9309490.28346  22253451.0364   22253456.0664
       230.0004        184.0004
  23420305.8024   10422616.98049   8148712.09345  23420305.2804   23420308.8194
       211.0004        151.0004
  20517717.2204  -14782616.88749 -11473348.43747  20517717.4004   20517720.6634
       239.0004        205.0004
 06  8 30 19 26 30.0000000  0  7G 8G23G19G20G27G16G13
  23925268.4764   -4887505.84749  -3773512.32945  23925266.7924   23925273.9104
       210.0004        147.0004
  20508396.1184   -4179113.99849  -3228763.75347  20508395.5934   20508396.7934
       238.0004        205.0004
  23748782.9954   -4346368.54749  -3343292.09145  23748781.4914   23748786.4944
       206.0004        146.0004
  23103044.7584   14036115.35349  10963286.73845  23103043.7664   23103049.9814
       217.0004        158.0004
  22246805.5094  -12014613.09149  -9336703.85146  22246804.9074   22246809.9544
       229.0004        184.0004
  23438393.4734   10517668.24149   8222777.95945  23438393.1684   23438397.8074
       211.0004        150.0004
  20510913.7084  -14818369.57849 -11501207.66747  20510914.2704   20510916.8324
       239.0004        205.0004
 06  8 30 19 27  0.0000000  0  7G 8G23G19G20G27G16G13
  23912106.5604   -4956671.77949  -3827407.81145  23912105.7544   23912112.2904
       209.0004        147.0004
  20513431.8054   -4152651.33749  -3208143.51247  20513431.6574   20513432.7254
       239.0004        205.0004
  23735084.4924   -4418353.88649  -3399384.47945  23735083.0444   23735087.8304
       206.0004        146.0004
  23122924.1544   14140581.50549  11044688.86245  23122924.2634   23122929.5504
       217.0004        159.0004
  22240179.8024  -12049431.16649  -9363834.80146  22240178.8954   22240184.8954
       230.0004        185.0004
  23456521.6274   10612932.36949   8297009.69645  23456520.8984   23456524.2414
       209.0004        149.0004
  20504171.9344  -14853798.06649 -11528814.27947  20504172.1474   20504175.1444
       240.0004        205.0004
 06  8 30 19 27 30.0000000  0  7G 8G23G19G20G27G16G13
  23898964.7084   -5025732.56449  -3881221.37745  23898964.3814   23898970.9674
       213.0004        149.0004
  20518546.4234   -4125774.04149  -3187200.18247  20518546.1164   20518547.4354
       238.0004        205.0004
  23721415.8774   -4490182.58749  -3455354.80645  23721414.9964   23721420.5174
       207.0004        148.0004
  23142829.3314   14245183.52149  11126196.85245  23142829.3134   23142834.8374
       218.0004        159.0004
  22233573.9294  -12084145.12849  -9390884.62046  22233573.8674   22233578.6604
       230.0004        185.0004
  23474689.4524   10708405.56749   8371404.34445  23474688.5914   23474694.4854
       209.0004        146.0004
  20497491.9484  -14888901.78549 -11556167.82347  20497491.9624   20497494.6504
       240.0004        205.0004
 06  8 30 19 28  0.0000000  0  7G 8G23G19G20G27G16G13
  23885843.1564   -5094687.76249  -3934952.64445  23885842.9754   23885848.0854
       213.0004        150.0004
  20523740.1554   -4098480.83349  -3165932.76247  20523739.8714   20523741.1804
       238.0004        205.0004
  23707777.7904   -4561850.80949  -3511200.09545  23707776.5384   23707781.6854
       209.0004        150.0004
  23162759.9154   14349919.08249  11207808.90545  23162759.2154   23162766.3704
       218.0004        160.0004
  22226987.9584  -12118754.75849  -9417853.14646  22226987.6374   22226992.4294
       229.0004        185.0004
  23492896.7804   10804086.23649   8445960.67145  23492896.1564   23492899.8634
       210.0004        145.0004
  20490874.2754  -14923677.87849 -11583266.07947  20490874.3734   20490877.2994
       239.0004        205.0004
 06  8 30 19 28 30.0000000  0  7G 8G23G19G20G27G16G13
  23872741.6014   -5163536.96549  -3988601.35045  23872740.6664   23872746.8794
       213.0004        150.0004
  20529013.2094   -4070770.59749  -3144340.37947  20529012.8304   20529013.8854
       238.0004        205.0004
  23694170.9254   -4633354.94949  -3566917.52245  23694170.2474   23694174.4894
       209.0004        150.0004
  23182715.5324   14454785.97849  11289523.30545  23182714.8104   23182721.1944
       217.0004        159.0004
  22220421.8334  -12153259.98449  -9444740.30746  22220420.8034   22220425.6364
       230.0004        185.0004
  23511143.2714   10899972.22649   8520676.98145  23511141.8854   23511146.3924
       211.0004        144.0004
  20484319.3804  -14958124.13249 -11610107.31047  20484319.5614   20484322.5774
       240.0004        205.0004
 06  8 30 19 29  0.0000000  0  7G 8G23G19G20G27G16G13
  23859660.0524   -5232280.55249  -4042167.72745  23859659.1624   23859665.8144
       212.0004        149.0004
  20534365.7894   -4042642.69349  -3122422.55847  20534365.4154   20534366.7614
       239.0004        205.0004
  23680595.7894   -4704692.10549  -3622504.83345  23680594.3564   23680599.2014
       208.0004        150.0004
  23202695.4654   14559780.58749  11371337.20645  23202695.5284   23202701.5794
       218.0004        159.0004
  22213875.2974  -12187661.83449  -9471546.93246  22213874.7454   22213879.4514
       231.0004        185.0004
  23529428.2754   10996060.50049   8595550.93445  23529427.7864   23529432.4434
       212.0004        145.0004
  20477827.5604  -14992238.86549 -11636690.21747  20477827.5854   20477830.6624
       240.0004        205.0004
 06  8 30 19 29 30.0000000  0  7G 8G23G19G20G27G16G13
  23846598.2544   -5300919.81349  -4095652.81645  23846596.9944   23846603.9774
       211.0004        149.0004
  20539797.6884   -4014098.15549  -3100180.06747  20539797.4744   20539798.6784
       239.0004        206.0004
  23667052.8284   -4775860.60449  -3677960.72645  23667051.3214   23667056.3924
       208.0004        150.0004
  23222698.9164   14664899.36049  11453247.87245  23222699.0604   23222703.9364
       216.0004        158.0004
  22207348.1824  -12221961.96749  -9498274.28746  22207347.9034   22207352.9194
       230.0004        186.0004
  23547751.1364   11092347.32149   8670579.59245  23547751.1914   23547755.4344
       213.0004        147.0004
  20471399.0314  -15026021.19149 -11663014.09947  20471399.3154   20471402.0974
       240.0004        205.0004
 06  8 30 19 30  0.0000000  0  7G 8G23G19G20G27G16G13
  23833556.6224   -5369453.78149  -4149055.86945  23833555.8434   23833561.5524
       212.0004        149.0004
  20545309.1614   -3985135.31749  -3077611.63647  20545309.0094   20545310.2434
       239.0004        206.0004
  23653542.7964   -4846855.86549  -3733281.63745  23653542.1344   23653547.1114
       209.0004        150.0004
  23242725.6854   14770140.67349  11535254.01045  23242725.7964   23242731.1194
       216.0004        157.0004
  22200840.5774  -12256159.29249  -9524921.54046  22200840.2484   22200845.3754
       229.0004        186.0004
  23566111.5544   11188831.72749   8745762.20345  23566111.8004   23566116.3674
       213.0004        148.0004
  20465034.3084  -15059467.98349 -11689076.53347  20465034.3924   20465037.4874
       240.0004        205.0004
 06  8 30 19 30 30.0000000  0  7G 8G23G19G20G27G16G13
  23820534.8444   -5437883.16549  -4202377.41345  23820534.2974   23820540.6864
       211.0004        150.0004
  20550900.3134   -3955754.01849  -3054717.13247  20550899.9584   20550901.3004
       238.0004        206.0004
  23640066.2184   -4917675.44749  -3788465.64645  23640065.5634   23640070.4114
       209.0004        151.0004
  23262775.0614   14875500.91549  11617352.83945  23262773.9074   23262780.6144
       216.0004        157.0004
  22194352.2434  -12290255.40349  -9551489.91546  22194351.7504   22194356.8194
       230.0004        186.0004
  23584508.9654   11285510.51249   8821096.27245  23584508.6244   23584513.6104
       213.0004        149.0004
  20458733.7484  -15092577.79849 -11714876.38347  20458733.9234   20458736.9684
       240.0004        205.0004
 06  8 30 19 31  0.0000000  0  7G 8G23G19G20G27G16G13
  23807533.0764   -5506208.42149  -4255617.82145  23807532.8984   23807539.0114
       213.0004        151.0004
  20556571.0154   -3925954.37849  -3031496.65247  20556570.7424   20556571.8524
       239.0004        206.0004
  23626623.5834   -4988316.73649  -3843510.72645  23626622.2104   23626628.3614
       209.0004        150.0004
  23282846.5354   14980976.73049  11699541.70145  23282846.0914   23282851.8094
       216.0004        157.0004
  22187882.9934  -12324251.27649  -9577980.19146  22187882.8884   22187887.7434
       230.0004        186.0004
  23602942.7544   11382380.48049   8896579.31645  23602943.0434   23602947.3144
       214.0004        149.0004
  20452497.5004  -15125349.59549 -11740412.84747  20452497.5214   20452500.7584
       239.0004        205.0004
 06  8 30 19 31 30.0000000  0  7G 8G23G19G20G27G16G13
  23794551.1374   -5574429.36849  -4308776.94145  23794550.4754   23794557.0004
       212.0004        150.0004
  20562321.5544   -3895735.23549  -3007949.27947  20562321.1514   20562322.4724
       238.0004        205.0004
  23613215.6024   -5058776.50049  -3898414.35445  23613214.2324   23613218.9184
       207.0004        150.0004
  23302939.6174   15086565.84749  11781818.85245  23302938.8414   23302944.2104
       216.0004        157.0004
  22181432.9214  -12358147.06449  -9604392.47446  22181432.7944   22181437.3384
       231.0004        186.0004
  23621412.5654   11479439.63949   8972209.79345  23621412.1174   23621416.9914
       213.0004        149.0004
  20446325.9704  -15157780.82849 -11765683.93047  20446325.8134   20446329.0624
       239.0004        205.0004
 06  8 30 19 32  0.0000000  0  7G 8G23G19G20G27G16G13
  23781588.6044   -5642546.90549  -4361855.50945  23781587.8694   23781594.1484
       212.0004        150.0004
  20568151.7514   -3865096.92049  -2984075.27547  20568151.2154   20568152.4224
       238.0004        205.0004
  23599842.5054   -5129052.03449  -3953174.42845  23599840.7904   23599846.0174
       207.0004        149.0004
  23323053.4874   15192264.60849  11864181.44845  23323052.3974   23323060.0634
       215.0004        155.0004
  22175001.5924  -12391943.87049  -9630727.63046  22175001.6464   22175006.0904
       231.0004        187.0004
  23639917.7714   11576684.69349   9047985.14545  23639917.4364   23639922.7014
       213.0004        150.0004
  20440219.4994  -15189870.41349 -11790688.79647  20440219.6404   20440222.7274
       239.0004        206.0004
 06  8 30 19 32 30.0000000  0  7G 8G23G19G20G27G16G13
  23768645.7904   -5710561.75549  -4414854.04245  23768645.3194   23768650.8334
       213.0004        150.0004
  20574061.7114   -3834039.77749  -2959874.92647  20574061.2344   20574062.4384
       239.0004        205.0004
  23586504.8934   -5199141.04059  -4007789.16745  23586503.6834   23586509.0424
       208.0004        148.0004
  23343187.4754   15298069.48749  11946626.72845  23343187.1184   23343193.5744
       215.0004        156.0004
  22168588.9964  -12425642.55549  -9656986.34246  22168588.9654   22168593.1944
       231.0004        187.0004
  23658457.6784   11674112.39549   9123902.77045  23658457.7704   23658461.5994
       213.0004        149.0004
  20434178.2784  -15221617.18149 -11815426.54047  20434178.6724   20434181.0474
       240.0004        206.0004
 06  8 30 19 33  0.0000000  0  7G 8G23G19G20G27G16G13
  23755722.8764   -5778472.06049  -4467771.12145  23755722.2564   23755727.9514
       213.0004        151.0004
  20580051.9134   -3802561.03749  -2935346.05647  20580051.5374   20580052.7844
       238.0004        205.0004
  23573203.8554   -5269038.31349  -4062254.49845  23573202.6414   23573207.4484
       209.0004        149.0004
  23363341.5154   15403980.02249  12029154.34345  23363340.6064   23363347.1994
       215.0004        156.0004
  22162195.3184  -12459241.99449  -9683167.71547  22162195.0224   22162199.8204
       231.0004        188.0004
  23677032.2814   11771722.43249   9199962.50045  23677031.9224   23677036.5924
       212.0004        151.0004
  20428203.1274  -15253016.98249 -11839893.92247  20428203.2094   20428205.9774
       240.0004        206.0004
 06  8 30 19 33 30.0000000  0  7G 8G23G19G20G27G16G13
  23742819.7964   -5846278.26249  -4520607.08045  23742819.6084   23742824.9284
       214.0004        151.0004
  20586122.3594   -3770660.47849  -2910488.48847  20586121.7944   20586123.2154
       238.0004        205.0004
  23559939.8244   -5338741.04449  -4116568.23545  23559937.9944   23559943.7774
       208.0004        150.0004
  23383515.0754   15509992.65449  12111761.50345  23383514.4804   23383520.9494
       215.0004        156.0004
  22155820.2964  -12492742.95349  -9709272.33646  22155819.6654   22155824.3744
       231.0004        187.0004
  23695641.1004   11869512.07649   9276162.16245  23695641.2694   23695646.2744
       211.0004        150.0004
  20422294.2824  -15284068.09449 -11864089.58947  20422294.3304   20422297.5514
       239.0004        206.0004
 06  8 30 19 34  0.0000000  0  7G 8G23G19G20G27G16G13
  23729936.4334   -5913981.18649  -4573362.56145  23729935.7274   23729942.3824
       212.0004        152.0004
  20592272.9904   -3738338.81049  -2885302.79147  20592272.5464   20592273.9204
       238.0004        205.0004
  23546713.1494   -5408246.95449  -4170728.62245  23546712.5304   23546716.6894
       209.0004        150.0004
  23403707.4304   15616103.97449  12194445.56945  23403707.3614   23403713.5114
       215.0004        156.0004
  22149463.7504  -12526146.69349  -9735301.20846  22149463.6154   22149468.2804
       231.0004        187.0004
  23714283.2724   11967477.69849   9352498.95145  23714282.6644   23714289.0984
       210.0004        149.0004
  20416451.9294  -15314769.76149 -11888012.95847  20416451.8844   20416455.1824
       238.0004        206.0004
 06  8 30 19 34 30.0000000  0  7G 8G23G19G20G27G16G13
  23717072.6984   -5981580.31049  -4626037.16945  23717071.6334   23717078.5404
       214.0004        152.0004
  20598504.0614   -3705594.59749  -2859787.84547  20598503.6734   20598505.0754
       238.0004        205.0004
  23533524.8584   -5477552.20049  -4224732.63945  23533523.9104   23533528.4284
       209.0004        149.0004
  23423918.1694   15722311.91849  12277204.93445  23423917.4194   23423924.3964
       215.0004        155.0004
  22143125.8094  -12559452.81149  -9761254.00947  22143125.6434   22143130.5034
       231.0004        188.0004
  23732958.7894   12065617.84849   9428971.72945  23732959.4044   23732963.2844
       209.0004        148.0004
  20410676.6564  -15345118.99449 -11911661.71247  20410676.8624   20410679.8544
       239.0004        206.0004
 06  8 30 19 35  0.0000000  0  7G 8G23G19G20G27G16G13
  23704228.5474   -6049077.33549  -4678632.21745  23704227.7754   23704233.6114
       213.0004        153.0004
  20604815.3014   -3672428.70349  -2833944.30647  20604814.9034   20604816.1874
       238.0004        204.0004
  23520375.0254   -5546655.25349  -4278579.10145  23520373.3944   23520378.2554
       209.0004        149.0004
  23444146.5264   15828612.28149  12360036.30745  23444146.9354   23444153.3074
       215.0004        155.0004
  22136806.1234  -12592663.23349  -9787132.24547  22136805.6584   22136810.3534
       231.0004        188.0004
  23751666.6974   12163928.32749   9505577.24545  23751666.0044   23751670.5044
       208.0004        147.0004
  20404968.4804  -15375115.58449 -11935035.67647  20404968.6044   20404971.5854
       239.0004        206.0004
 06  8 30 19 35 30.0000000  0  7G 8G23G19G20G27G16G13
  23691403.9284   -6116470.74849  -4731146.52845  23691403.1034   23691410.2394
       214.0004        153.0004
  20611207.0974   -3638839.51049  -2807770.92347  20611206.8984   20611208.0984
       238.0004        204.0004
  23507264.4404   -5615551.34649  -4332264.30645  23507263.8004   23507268.2394
       209.0004        150.0004
  23464392.2904   15935003.87349  12442938.77245  23464391.8304   23464398.4064
       216.0004        154.0004
  22130504.7554  -12625777.06949  -9812935.21946  22130504.7404   22130509.0224
       231.0004        187.0004
  23770406.9484   12262408.44649   9582314.96245  23770406.7504   23770411.7944
       208.0004        145.0004
  20399328.0204  -15404756.17649 -11958132.24047  20399328.1294   20399330.8054
       239.0004        205.0004
 06  8 30 19 36  0.0000000  0  7G 8G23G19G20G27G16G13
  23678598.8264   -6183761.91549  -4783581.16745  23678598.5774   23678604.7194
       215.0004        154.0004
  20617679.3854   -3604827.78149  -2781268.29447  20617679.1784   20617680.5544
       238.0004        204.0004
  23494193.6734   -5684238.56549  -4385786.74745  23494192.9094   23494196.6444
       208.0004        150.0004
  23484654.5874   16041482.38949  12525908.94345  23484654.1724   23484660.1474
       214.0004        154.0004
  22124221.4144  -12658796.16349  -9838664.37246  22124221.2104   22124225.8664
       232.0004        187.0004
  23789178.5774   12361054.28249   9659181.81845  23789177.8654   23789183.3144
       206.0004        143.0004
  20393755.5514  -15434039.97949 -11980950.78647  20393756.0364   20393758.5364
       240.0004        206.0004
 06  8 30 19 36 30.0000000  0  7G 8G23G19G20G27G16G13
  23665813.3454   -6250950.41349  -4835935.79745  23665813.2684   23665818.6424
       213.0004        154.0004
  20624232.2194   -3570392.45649  -2754435.59447  20624231.8914   20624233.1754
       238.0004        204.0004
  23481163.3414   -5752713.20149  -4439143.54045  23481162.3104   23481166.3424
       208.0004        150.0004
  23504933.0054   16148045.73149  12608945.24645  23504933.5434   23504938.8944
       215.0004        153.0004
  22117956.1754  -12691720.02549  -9864319.31846  22117955.8484   22117960.3234
       232.0004        187.0004
  23807981.4814   12459864.20549   9736176.49345  23807980.7884   23807985.2224
       204.0004        142.0004
  20388251.4584  -15462964.47449 -12003489.35547  20388251.8474   20388254.4344
       240.0004        206.0004
 06  8 30 19 37  0.0000000  0  7G 8G23G19G20G27G16G13
  23653047.2274   -6318036.82749  -4888210.87545  23653047.0564   23653051.6564
       213.0004        154.0004
  20630865.6014   -3535533.88249  -2727273.08247  20630865.4894   20630866.5444
       238.0004        204.0004
  23468173.9774   -5820972.96449  -4492332.89445  23468173.3524   23468177.2194
       210.0004        149.0004
  23525226.9864   16254690.59949  12692045.05045  23525227.2744   23525233.0754
       216.0004        152.0004
  22111708.8504  -12724549.79649  -9889900.94046  22111708.2934   22111713.2414
       232.0004        187.0004
  23826815.0904   12558835.33949   9813296.77845  23826814.9194   23826818.4634
       206.0004        142.0004
  20382816.0514  -15491528.08349 -12025746.70347  20382816.0104   20382818.9254
       239.0004        206.0004
 06  8 30 19 37 30.0000000  0  7G 8G23G19G20G27G16G13
  23640300.3644   -6385021.16349  -4940406.42445  23640300.0314   23640305.9984
       213.0004        154.0004
  20637579.6354   -3500251.70749  -2699780.50247  20637579.2514   20637580.4824
       238.0004        203.0004
  23455226.0404   -5889014.69549  -4545352.36045  23455225.1364   23455229.0774
       209.0004        149.0004
  23545535.9264   16361413.98749  12775206.04245  23545536.5044   23545541.3764
       215.0004        151.0004
  22105479.3654  -12757285.97449  -9915409.64547  22105479.0554   22105484.0724
       232.0004        188.0004
  23845678.8154   12657964.73649   9890540.39745  23845678.5804   23845683.8844
       206.0004        142.0004
  20377449.4804  -15519729.52449 -12047721.85547  20377449.6354   20377452.5324
       240.0004        206.0004
 06  8 30 19 38  0.0000000  0  7G 8G23G19G20G27G16G13
  23627572.9524   -6451903.48149  -4992522.46945  23627573.1514   23627577.4784
       213.0004        153.0004
  20644374.2984   -3464545.35649  -2671957.39247  20644373.8374   20644375.4484
       237.0004        203.0004
  23442320.2344   -5956835.22549  -4598199.47045  23442319.6104   23442323.3184
       211.0004        149.0004
  23565859.3304   16468213.37249  12858426.25245  23565858.9554   23565865.2994
       214.0004        151.0004
  22099267.6104  -12789928.98649  -9940845.74147  22099267.3264   22099271.9924
       232.0004        188.0004
  23864572.3634   12757250.06849   9967905.54045  23864572.5804   23864575.7424
       209.0004        144.0004
  20372152.1944  -15547566.80349 -12069413.23847  20372152.2724   20372155.3334
       240.0004        206.0004
 06  8 30 19 38 30.0000000  0  7G 8G23G19G20G27G16G13
  23614865.0224   -6518684.49649  -5044559.59645  23614864.3804   23614870.4894
       214.0004        154.0004
  20651249.7364   -3428414.73449  -2643803.68247  20651249.4574   20651250.3974
       237.0004        203.0004
  23429457.1244   -6024431.66749  -4650871.95445  23429455.5454   23429460.1024
       210.0004        150.0004
  23586196.5554   16575085.72249  12941703.33145  23586196.7864   23586202.9454
       214.0004        150.0004
  22093073.3684  -12822479.86549  -9966210.04747  22093073.1944   22093078.1634
       231.0004        188.0004
  23883495.0694   12856688.97449  10045390.35445  23883495.4504   23883499.5864
       207.0004        144.0004
  20366924.6324  -15575037.96049 -12090819.33747  20366924.6114   20366927.7054
       239.0004        206.0004
 06  8 30 19 39  0.0000000  0  7G 8G23G19G20G27G16G13
  23602176.1244   -6585364.89749  -5096518.31645  23602175.4244   23602180.7404
       214.0004        153.0004
  20658205.7904   -3391860.48749  -2615319.87547  20658205.2724   20658206.4844
       237.0004        203.0004
  23416636.9964   -6091801.58049  -4703367.92645  23416635.5214   23416640.2934
       208.0004        151.0004
  23606546.9254   16682027.36449  13025034.38545  23606545.9784   23606553.0904
       212.0004        149.0004
  22086896.4584  -12854939.44949  -9991503.22247  22086896.2404   22086900.5294
       232.0004        188.0004
  23902446.3034   12956278.01149  10122992.14245  23902446.6804   23902450.5674
       207.0004        143.0004
  20361766.8814  -15602142.01049 -12111939.38447  20361767.0124   20361770.0204
       241.0004        206.0004
 06  8 30 19 39 30.0000000  0  7G 8G23G19G20G27G16G13
  23589506.7134   -6651942.43649  -5148396.89045  23589506.5544   23589511.4624
       214.0004        153.0004
  20665243.0144   -3354879.53149  -2586503.56047  20665242.6904   20665244.1304
       238.0004        202.0004
  23403860.8524   -6158939.37249  -4755683.03345  23403859.8054   23403864.2504
       209.0004        151.0004
  23626910.3984   16789038.15949  13108419.33345  23626909.9814   23626916.8054
       212.0004        148.0004
  22080737.3674  -12887305.72049 -10016723.67947  22080737.0044   22080741.8934
       232.0004        188.0004
  23921426.1544   13056017.47349  10200711.16345  23921425.3424   23921431.1964
       208.0004        142.0004
  20356679.8114  -15628874.48249 -12132769.88147  20356679.8644   20356683.2754
       241.0004        207.0004
 06  8 30 19 40  0.0000000  0  7G 8G23G19G20G27G16G13
  23576856.3234   -6718420.97949  -5200198.30045  23576856.4524   23576861.4884
       213.0004        153.0004
  20672360.6994   -3317475.88649  -2557357.87947  20672360.5134   20672361.6764
       237.0004        203.0004
  23391128.8874   -6225846.40449  -4807818.30645  23391127.7094   23391132.5664
       211.0004        151.0004
  23647285.7954   16896111.35649  13191852.89745  23647286.5444   23647291.4114
       212.0004        147.0004
  22074595.1914  -12919583.07249 -10041874.84647  22074594.8864   22074599.5214
       233.0004        189.0004
  23940433.3594   13155900.59049  10278542.10645  23940432.4834   23940437.7864
       208.0004        141.0004
  20351663.0894  -15655237.80449 -12153312.72747  20351663.1974   20351666.1244
       241.0004        207.0004
 06  8 30 19 40 30.0000000  0  7G 8G23G19G20G27G16G13
  23564225.0624   -6784798.38049  -5251920.92245  23564224.0074   23564229.8804
       215.0004        154.0004
  20679559.3964   -3279646.61049  -2527880.54747  20679559.0094   20679560.5014
       238.0004        202.0004
  23378441.9334   -6292516.87149  -4859769.27145  23378440.7924   23378445.6114
       209.0004        151.0004
  23667673.0384   17003246.58949  13275334.79545  23667672.2214   23667678.2994
       212.0004        147.0004
  22068470.2994  -12951769.62249 -10066955.26447  22068469.8264   22068474.4934
       232.0004        189.0004
  23959467.9724   13255927.57749  10356485.15945  23959468.1354   23959472.0454
       212.0004        143.0004
  20346717.3864  -15681227.61249 -12173564.53147  20346717.6114   20346720.3454
       241.0004        207.0004
 06  8 30 19 41  0.0000000  0  7G 8G23G19G20G27G16G13
  23551613.1064   -6851074.50049  -5303564.61645  23551612.0984   23551618.4704
       212.0004        154.0004
  20686839.1594   -3241391.22549  -2498071.17747  20686838.9294   20686840.0594
       238.0004        202.0004
  23365800.3644   -6358947.51549  -4911533.35045  23365799.3844   23365803.7264
       209.0004        151.0004
  23688071.6984   17110441.69249  13358863.36345  23688071.7194   23688075.9004
       212.0004        146.0004
  22062362.6014  -12983865.64249 -10091965.13047  22062362.2144   22062367.1064
       232.0004        189.0004
  23978529.6474   13356096.49549  10434538.81745  23978529.5694   23978533.7504
       211.0004        145.0004
  20341843.2104  -15706841.47249 -12193523.38047  20341843.3454   20341846.2384
       241.0004        207.0004
 06  8 30 19 41 30.0000000  0  7G 8G23G19G20G27G16G13
  23539020.1834   -6917249.68649  -5355129.68045  23539019.9164   23539024.6624
       214.0004        154.0004
  20694200.0224   -3202709.83049  -2467929.85647  20694199.6444   20694200.8684
       238.0004        202.0004
  23353205.2514   -6425135.34949  -4963108.21145  23353203.8134   23353208.8504
       209.0004        152.0004
  23708481.0514   17217693.11949  13442435.80545  23708481.2004   23708486.1024
       212.0004        146.0004
  22056272.1144  -13015871.41249 -10116904.68747  22056271.9014   22056276.7844
       233.0004        189.0004
  23997617.6654   13456404.58649  10512700.90545  23997616.6964   23997621.8234
       213.0004        146.0004
  20337040.8744  -15732078.04749 -12213188.24947  20337041.0594   20337044.1454
       241.0004        207.0004
 06  8 30 19 42  0.0000000  0  7G 8G23G19G20G27G16G13
  23526446.6394   -6983324.28649  -5406616.33945  23526446.8604   23526452.8804
       216.0004        155.0004
  20701641.9484   -3163602.43549  -2437456.58047  20701641.5124   20701643.0784
       238.0004        202.0004
  23340656.7724   -6491077.54449  -5014491.68545  23340655.4014   23340660.0874
       207.0004        151.0004
  23728900.4814   17324997.79849  13526049.75345  23728900.2744   23728905.5334
       211.0004        145.0004
  22050198.6914  -13047787.70949 -10141774.51647  22050198.1054   22050203.2594
       232.0004        189.0004
  24016731.7144   13556848.96049  10590969.19845  24016731.1334   24016735.4584
       209.0004        144.0004
  20332310.6114  -15756935.88749 -12232557.99847  20332310.9044   20332313.6804
       241.0004        207.0004
 06  8 30 19 42 30.0000000  0  7G 8G23G19G20G27G16G13
  23513892.1734   -7049299.19949  -5458025.31945  23513891.4924   23513897.5264
       215.0004        156.0004
  20709164.8574   -3124069.42849  -2406651.66347  20709164.5644   20709165.8444
       238.0004        203.0004
  23328155.4444   -6556771.85849  -5065682.00545  23328154.2954   23328158.6684
       208.0004        151.0004
  23749329.4734   17432352.63049  13609702.77345  23749329.0624   23749335.0544
       210.0004        145.0004
  22044141.9674  -13079615.85249 -10166575.64947  22044141.9384   22044146.2774
       233.0004        189.0004
  24035871.0494   13657426.73849  10669341.43745  24035869.9144   24035874.5064
       209.0004        143.0004
  20327652.6144  -15781413.79649 -12251631.69347  20327652.6994   20327655.8464
       241.0004        207.0004
 06  8 30 19 43  0.0000000  0  7G 8G23G19G20G27G16G13
  23501356.3854   -7115174.99549  -5509357.07845  23501355.8204   23501361.2594
       217.0004        156.0004
  20716768.7694   -3084110.72449  -2375515.03447  20716768.4704   20716769.7434
       238.0004        203.0004
  23315701.8174   -6622215.27949  -5116676.82645  23315701.0664   23315706.3514
       210.0004        151.0004
  23769767.5104   17539754.86649  13693392.71845  23769768.2524   23769772.6744
       210.0004        145.0004
  22038101.9374  -13111356.34849 -10191308.49747  22038101.4804   22038106.3314
       232.0004        189.0004
  24055035.2644   13758135.52149  10747815.74745  24055033.9964   24055039.9024
       207.0004        141.0004
  20323067.3234  -15805509.68749 -12270407.71847  20323067.2534   20323070.4414
       240.0004        207.0004
 06  8 30 19 43 30.0000000  0  7G 8G23G19G20G27G16G13
  23488839.6634   -7180950.59949  -5560610.76745  23488839.4854   23488845.1774
       216.0004        155.0004
  20724453.8524   -3043725.30949  -2344045.90447  20724453.4994   20724454.9854
       238.0004        202.0004
  23303296.9114   -6687403.91749  -5167473.10945  23303296.0444   23303301.1464
       209.0004        151.0004
  23790214.2174   17647202.44949  13777118.02245  23790214.2474   23790221.0804
       211.0004        145.0004
  22032078.7304  -13143008.50549 -10215972.50447  22032078.3804   22032083.3864
       233.0004        189.0004
  24074224.1694   13858973.83649  10826391.00045  24074224.1314   24074228.7884
       207.0004        139.0004
  20318555.1424  -15829221.10349 -12288884.14847  20318555.3174   20318558.3184
       240.0004        207.0004
 06  8 30 19 44  0.0000000  0  7G 8G23G19G20G27G16G13
  23476341.8214   -7246626.59149  -5611786.83745  23476340.9874   23476346.8984
       215.0004        155.0004
  20732220.1014   -3002913.53849  -2312244.54747  20732219.6834   20732221.3134
       237.0004        202.0004
  23290940.8714   -6752335.11549  -5218068.78345  23290939.8884   23290944.4284
       208.0004        150.0004
  23810669.0274   17754692.15849  13860876.13645  23810668.6974   23810674.7984
       211.0004        144.0004
  22026072.2094  -13174573.05749 -10240568.24947  22026071.7384   22026076.5094
       233.0004        189.0004
  24093437.1454   13959938.48749  10905064.70445  24093435.9114   24093439.9184
       208.0004        139.0004
  20314116.4144  -15852546.93149 -12307060.12347  20314116.6504   20314119.6264
       241.0004        207.0004
 06  8 30 19 44 30.0000000  0  7G 8G23G19G20G27G16G13
  23463863.0034   -7312202.90349  -5662885.23145  23463861.8864   23463868.4174
       217.0004        155.0004
  20740067.4734   -2961675.10449  -2280110.72747  20740067.1704   20740068.7694
       238.0004        202.0004
  23278634.2584   -6817006.06849  -5268461.68745  23278633.2284   23278638.1874
       209.0004        151.0004
  23831131.3414   17862221.22949  13944664.90745  23831131.5414   23831137.0124
       211.0004        144.0004
  22020082.1674  -13206050.74549 -10265096.30947  22020081.7354   22020085.6614
       234.0004        189.0004
  24112673.7094   14061027.35249  10983835.19145  24112673.2044   24112677.1104
       208.0004        140.0004
  20309751.4434  -15875484.99449 -12324933.93847  20309751.5824   20309754.8004
       241.0004        207.0004
 06  8 30 19 45  0.0000000  0  7G 8G23G19G20G27G16G13
  23451402.8634   -7377680.88649  -5713907.00745  23451401.3134   23451407.7844
       214.0004        155.0004
  20747996.0284   -2920010.57749  -2247644.88647  20747995.8414   20747997.1224
       237.0004        202.0004
  23266377.8704   -6881414.15649  -5318649.75045  23266376.7834   23266381.1784
       208.0004        152.0004
  23851600.5174   17969786.59649  14028481.97145  23851600.9804   23851606.1034
       211.0004        143.0004
  22014108.5374  -13237442.56749 -10289557.44947  22014108.3704   22014112.8384
       234.0004        189.0004
  24131933.3854   14162237.47049  11062700.16345  24131932.5314   24131937.1144
       207.0004        139.0004
  20305460.4474  -15898034.32849 -12342504.84947  20305460.5924   20305463.4434
       239.0004        207.0004
 06  8 30 19 45 30.0000000  0  8G 8G28G23G19G20G27G16G13
  23438961.4924   -7443060.26749  -5764851.94945  23438961.6644   23438966.2044
       216.0004        155.0004
                  -1185632.34559   -413750.76143
       206.0004         74.0004
  20756005.6884   -2877919.61349  -2214846.75647  20756005.4864   20756006.9234
       238.0004        202.0004
  23254171.9884   -6945556.37549  -5368630.64145  23254171.0024   23254175.3054
       207.0004        152.0004
  23872075.9604   18077385.25549  14112324.96645  23872075.9664   23872081.2744
       208.0004        143.0004
  22008151.2244  -13268748.56549 -10313951.72147  22008150.9544   22008155.3754
       234.0004        190.0004
  24151215.7094   14263566.65649  11141657.91845  24151214.4924   24151218.7934
       208.0004        139.0004
  20301243.7844  -15920193.04749 -12359771.38347  20301243.8314   20301246.9084
       239.0004        207.0004
 06  8 30 19 46  0.0000000  0  8G 8G28G23G19G20G27G16G13
  23426538.7834   -7508341.87449  -5815720.70145  23426537.5464   23426544.6094
       215.0004        155.0004
                  -1285916.61249   -491893.10443
       204.0004         74.0004
  20764096.4254   -2835402.87749  -2181716.85447  20764096.1954   20764097.3634
       238.0004        202.0004
  23242017.1474   -7009430.30749  -5418402.46945  23242016.2174   23242020.4544
       207.0004        151.0004
  23892557.0414   18185013.88649  14196191.33645  23892556.9474   23892562.8844
       210.0004        142.0004
  22002209.9614  -13299970.24549 -10338280.29247  22002209.4274   22002214.3664
       235.0004        190.0004
  24170520.0824   14365011.58349  11220705.84645  24170521.3364   24170524.3484
       204.0004        138.0004
  20297101.6354  -15941960.03249 -12376732.66547  20297101.6594   20297104.9604
       239.0004        207.0004
 06  8 30 19 46 30.0000000  0  8G 8G28G23G19G20G27G16G13
  23414134.5184   -7573525.96949  -5866513.47345  23414134.4424   23414138.3544
       215.0004        155.0004
                  -1386076.614 9    491893.105 1
       206.000
  20772268.0754   -2792460.54949  -2148255.32047  20772267.9384   20772269.0094
       239.0004        202.0004
  23229913.9194   -7073033.14149  -5467963.06545  23229912.3664   23229916.6704
       207.0004        151.0004
  23913043.2904   18292669.68149  14280078.85045  23913042.7254   23913049.8804
       208.0004        141.0004
  21996284.7534  -13331107.64649 -10362543.18747  21996284.6594   21996288.7374
       234.0004        190.0004
  24189846.0144   14466569.88149  11299842.10845  24189845.3894   24189850.8824
       204.0004        137.0004
  20293034.3524  -15963333.73649 -12393387.50147  20293034.5554   20293037.4574
       239.0004        207.0004
 06  8 30 19 47  0.0000000  0  8G 8G28G23G19G20G27G16G13
  23401749.0104   -7638612.07849  -5917229.88945  23401747.7374   23401754.2964
       215.0004        154.0004
                  -1486109.74249   -162455.00843
       207.0004         74.0004
  20780520.9984   -2749091.63549  -2114461.38547  20780520.7754   20780521.9244
       239.0004        202.0004
  23217862.8224   -7136361.37449  -5517309.67845  23217862.2684   23217866.8714
       210.0004        152.0004
  23933534.3074   18400350.63749  14363985.97645  23933533.9594   23933539.9894
       207.0004        141.0004
  21990375.5964  -13362160.41149 -10386740.14047  21990375.9004   21990379.8524
       235.0004        191.0004
  24209193.3044   14568240.09649  11379065.58645  24209193.2744   24209198.3174
       205.0004        136.0004
  20289042.3584  -15984311.73049 -12409733.98947  20289042.8184   20289045.6174
       239.0004        207.0004
 06  8 30 19 47 30.0000000  0  8G 8G28G23G19G20G27G16G13
  23389382.0824   -7703600.25349  -5967870.00345  23389381.4484   23389387.7764
       214.0004        154.0004
                  -1586014.34049   -240302.43743
       205.0004         74.0004
  20788854.9834   -2705296.32149  -2080335.19247  20788854.5254   20788855.9704
       238.0004        202.0004
  23205864.8834   -7199411.76049  -5566439.79345  23205863.9154   23205868.0764
       209.0004        153.0004
  23954029.6104   18508054.24849  14447910.76045  23954029.4504   23954036.2254
       207.0004        140.0004
  21984482.4994  -13393129.13749 -10410871.60447  21984482.1004   21984486.8324
       234.0004        191.0004
  24228561.4674   14670019.78349  11458374.37545  24228561.3964   24228564.2534
       205.0004        136.0004
  20285126.1164  -16004891.92249 -12425770.50947  20285126.2994   20285129.2184
       239.0004        207.0004
 06  8 30 19 48  0.0000000  0  8G 8G28G23G19G20G27G16G13
  23377033.5064   -7768491.88449  -6018434.86845  23377032.7574   23377038.5304
       212.0004        154.0004
                  -1685789.86749   -318049.50244                  24572909.4554
       205.0004        114.0004
  20797269.8154   -2661076.02049  -2045877.82847  20797269.5804   20797270.7144
       239.0004        202.0004
  23193919.8114   -7262182.90749  -5615352.30245  23193918.0254   23193923.1224
       209.0004        153.0004
  23974528.3404   18615776.02549  14531849.66745  23974528.2694   23974534.0574
       207.0004        140.0004
  21978604.8844  -13424015.99949 -10434939.26947  21978604.3694   21978608.9424
       234.0004        191.0004
  24247949.6734   14771904.90949  11537765.33145  24247949.1544   24247952.9014
       207.0004        137.0004
  20281285.5124  -16025074.49649 -12441497.18547  20281285.5684   20281288.7864
       239.0004        207.0004
 06  8 30 19 48 30.0000000  0  8G 8G28G23G19G20G27G16G13
  23364703.9984   -7833283.81849  -6068922.06245  23364702.9234   23364709.2874
       214.0004        155.0004
  24553944.5664   -1785431.10449   -395691.90144  24553945.2774   24553949.9104
       206.0004        129.0004
  20805766.3404   -2616426.67049  -2011086.15447  20805766.1184   20805767.4004
       238.0004        202.0004
  23182029.0534   -7324667.98349  -5664041.91645  23182028.1964   23182032.6674
       211.0004        154.0004
  23995030.7704   18723516.88149  14615803.46745  23995029.7274   23995036.6654
       207.0004        140.0004
  21972743.5324  -13454817.20649 -10458940.20347  21972742.8574   21972747.6944
       233.0004        190.0004
  24267358.2414   14873897.16949  11617239.76145  24267357.6284   24267362.9714
       207.0004        137.0004
  20277521.6424  -16044853.87149 -12456909.69047  20277521.5844   20277524.8924
       239.0004        207.0004
 06  8 30 19 49  0.0000000  0  8G 8G28G23G19G20G27G16G13
  23352393.2214   -7897976.97249  -6119332.28445  23352392.4854   23352398.3294
       214.0004        155.0004
  24535009.3554   -1884936.30149   -473228.30144  24535008.3774   24535016.4754
       208.0004        130.0004
  20814344.3384   -2571349.21649  -1975960.88647  20814343.8404   20814345.6284
       238.0004        202.0004
  23170193.4424   -7386864.66449  -5712506.79945  23170192.6894   23170196.9214
       213.0004        155.0004
  24015536.3354   18831273.68049  14699769.68245  24015536.1904   24015542.1624
       206.0004        139.0004
  21966898.1674  -13485534.32049 -10482875.61047  21966897.2044   21966902.1734
       233.0004        190.0004
  24286786.5454   14975993.55149  11696795.32845  24286786.2184   24286789.7724
       204.0004        136.0004
  20273834.6754  -16064228.99349 -12472007.19147  20273834.8864   20273837.8714
       239.0004        207.0004
 06  8 30 19 49 30.0000000  0  8G 8G28G23G19G20G27G16G13
  23340100.8044   -7962573.49549  -6169667.22145  23340100.0054   23340105.8474
       215.0004        156.0004
  24516099.8954   -1984306.38749   -550659.41344  24516099.5374   24516103.7504
       206.0004        131.0004
  20823003.2914   -2525846.09049  -1940503.93247  20823003.0754   20823004.4204
       238.0004        202.0004
  23158412.8284   -7448772.46649  -5760746.60245  23158411.9854   23158416.8254
       216.0004        157.0004
  24036043.9744   18939041.13549  14783744.20845  24036043.4334   24036050.5174
       209.0004        138.0004
  21961068.3674  -13516169.61949 -10506747.26447  21961067.7994   21961072.4074
       233.0004        190.0004
  24306233.7284   15078189.29349  11776428.30745  24306233.5754   24306238.3254
       203.0004        136.0004
  20270224.4494  -16083200.76149 -12486790.38947  20270224.5764   20270227.8564
       239.0004        207.0004
 06  8 30 19 50  0.0000000  0  8G 8G28G23G19G20G27G16G13
  23327827.1774   -8027072.97549  -6219926.51345  23327827.2514   23327832.4694
       217.0004        157.0004
  24497216.7134   -2083538.56149   -627983.02744  24497215.4314   24497221.8154
       205.0004        130.0004
  20831743.4044   -2479916.47249  -1904714.64547  20831743.2244   20831744.3574
       237.0004        202.0004
  23146687.9654   -7510387.54849  -5808758.29645  23146686.7424   23146691.1884
       215.0004        158.0004
  24056553.2714   19046817.42349  14867725.60045  24056553.0754   24056558.8454
       208.0004        141.0004
  21955254.2204  -13546722.89449 -10530554.99847  21955254.2544   21955258.3174
       233.0004        190.0004
  24325699.5504   15180482.83849  11856137.49145  24325698.5894   24325704.9474
       205.0004        137.0004
  20266691.5334  -16101766.50849 -12501257.20547  20266691.4314   20266694.7204
       239.0004        207.0004
 06  8 30 19 50 30.0000000  0  8G 8G28G23G19G20G27G16G13
  23315571.8544   -8091475.83849  -6270110.55245  23315571.7964   23315576.9584
       216.0004        158.0004
  24478359.9154   -2182631.33649   -705198.07344  24478357.9154   24478365.6084
       206.0004        131.0004
  20840564.5984   -2433560.89349  -1868593.44147  20840564.3184   20840566.1194
       237.0004        201.0004
  23135019.1354   -7571707.25849  -5856539.84645  23135018.1904   23135022.1324
       216.0004        158.0004
  24077063.7664   19154599.66249  14951711.62845  24077064.5454   24077069.6954
       210.0004        142.0004
  21949455.6404  -13577194.62449 -10554299.20047  21949455.0084   21949459.5514
       234.0004        190.0004
  24345183.4544   15282871.50149  11935920.78545  24345182.6414   24345188.0454
       206.0004        137.0004
  20263236.1174  -16119924.65749 -12515406.42047  20263236.3534   20263239.3414
       239.0004        207.0004
 06  8 30 19 51  0.0000000  0  8G 8G28G23G19G20G27G16G13
  23303334.8204   -8155782.06949  -6320219.28645  23303334.1774   23303340.2204
       216.0004        158.0004
  24459530.0374   -2281582.70949   -782302.92244  24459528.4014   24459535.2024
       206.0004        131.0004
  20849466.8824   -2386778.82349  -1832139.90047  20849466.4754   20849468.1464
       237.0004        201.0004
  23123407.0894   -7632728.73449  -5904088.99545  23123405.5794   23123409.8884
       215.0004        159.0004
  24097574.8664   19262385.31749  15035700.31745  24097574.4564   24097580.2244
       208.0004        142.0004
  21943672.5764  -13607584.92649 -10577979.94147  21943671.9824   21943677.0544
       232.0004        190.0004
  24364685.0974   15385353.24349  12015776.62245  24364684.2304   24364690.0484
       207.0004        137.0004
  20259858.6914  -16137673.21649 -12529236.46747  20259858.9224   20259862.0004
       239.0004        207.0004
 06  8 30 19 51 30.0000000  0  8G 8G28G23G19G20G27G16G13
  23291116.0844   -8219991.81649  -6370252.83945  23291114.9974   23291121.4164
       217.0004        159.0004
  24440727.3574   -2380390.85949   -859296.17645  24440727.6364   24440733.1824
       204.0004        133.0004
  20858450.3704   -2339570.34049  -1795354.09347  20858450.1454   20858451.4654
       238.0004        200.0004
  23111852.4374   -7693448.75549  -5951403.25445  23111851.8184   23111855.1854
       217.0004        159.0004
  24118085.9984   19370171.77549  15119689.63145  24118085.2974   24118092.4794
       208.0004        143.0004
  21937904.8704  -13637894.19249 -10601597.54747  21937904.9044   21937909.4544
       232.0004        190.0004
  24384204.0504   15487925.97049  12095703.35245  24384203.0874   24384208.8224
       208.0004        138.0004
  20256559.4524  -16155010.84249 -12542746.30847  20256559.5564   20256562.7044
       239.0004        207.0004
 06  8 30 19 52  0.0000000  0  8G 8G28G23G19G20G27G16G13
  23278915.7544   -8284104.93949  -6420211.08745  23278915.3324   23278920.9754
       217.0004        159.0004
  24421952.3724   -2479053.75049   -936176.24945  24421951.3054   24421957.6464
       204.0004        135.0004
  20867514.9554   -2291935.80249  -1758236.29647  20867514.7304   20867516.2814
       238.0004        200.0004
  23100355.7814   -7753864.38349  -5998480.30345  23100353.5784   23100358.4544
       212.0004        159.0004
  24138596.7114   19477956.17749  15203677.33545  24138597.5174   24138603.9054
       211.0004        143.0004
  21932152.5514  -13668123.02049 -10625152.46947  21932152.3674   21932156.9154
       233.0004        191.0004
  24403739.9234   15590587.22249  12175699.07045  24403738.9134   24403743.7314
       207.0004        138.0004
  20253338.7374  -16171935.91649 -12555934.67747  20253339.0054   20253341.9214
       239.0004        207.0004
 06  8 30 19 52 30.0000000  0  8G 8G28G23G19G20G27G16G13
  23266733.6374   -8348122.18949  -6470094.63245  23266732.6364   23266739.7964
       218.0004        159.0004
  24403205.2664   -2577570.42849  -1012942.39045  24403205.1034   24403210.7824
       206.0004        136.0004
  20876660.3654   -2243876.14549  -1720787.23947  20876659.6894   20876661.3374
       238.0004        200.0004
  23088917.0744   -7813973.62349  -6045318.63045  23088916.0764   23088920.0464
       216.0004        160.0004
  24159106.4824   19585735.46349  15287661.04945  24159105.6894   24159112.9344
       210.0004        144.0004
  21926415.4564  -13698271.98349 -10648645.15947  21926414.8494   21926419.4584
       234.0004        191.0004
  24423292.1254   15693334.41849  12255761.76145  24423290.7184   24423296.8934
       208.0004        137.0004
  20250196.7604  -16188447.18649 -12568800.60347  20250197.0604   20250199.7584
       239.0004        207.0004
 06  8 30 19 53  0.0000000  0  8G 8G28G23G19G20G27G16G13
  23254569.8834   -8412043.45649  -6519903.38945  23254569.3374   23254574.5904
       219.0004        159.0004
  24384486.3694   -2675938.61949  -1089592.83145  24384485.2224   24384492.3314
       206.0004        135.0004
  20885886.8634   -2195390.70849  -1683006.41047  20885886.7024   20885887.9204
       238.0004        199.0004
  23077537.7034   -7873773.01249  -6091915.51045  23077536.9744   23077540.8174
       216.0004        161.0004
  24179614.7904   19693507.27049  15371638.93845  24179615.1214   24179621.9114
       210.0004        144.0004
  21920693.5314  -13728341.02649 -10672075.57447  21920693.0704   21920697.4594
       233.0004        191.0004
  24442860.2254   15796165.39849  12335889.74845  24442859.8204   24442863.5014
       209.0004        135.0004
  20247133.9304  -16204542.48649 -12581342.39547  20247134.0814   20247137.0154
       239.0004        208.0004
 06  8 30 19 53 30.0000000  0  8G 8G28G23G19G20G27G16G13
  23242424.3274   -8475869.22749  -6569637.73945  23242423.5154   23242428.8524
       218.0004        160.0004
  24365796.0404   -2774156.80249  -1166126.38645  24365795.7114   24365800.6674
       205.0004        136.0004
  20895194.4274   -2146479.44749  -1644893.77247  20895194.2984   20895195.3764
       237.0004        200.0004
  23066217.7354   -7933259.52649  -6138268.59845  23066216.3014   23066220.4874
       217.0004        161.0004
  24200121.2134   19801268.56049  15455608.63045  24200121.1354   24200128.0914
       210.0004        144.0004
  21914986.6064  -13758331.10149 -10695444.46047  21914986.1014   21914990.5294
       232.0004        191.0004
  24462443.9554   15899078.03149  12416081.34845  24462445.1424   24462447.9784
       209.0004        134.0004
  20244150.4754  -16220220.76749 -12593559.24347  20244150.8164   20244153.6044
       239.0004        208.0004
 06  8 30 19 54  0.0000000  0  8G 8G28G23G19G20G27G16G13
  23230296.8534   -8539599.83349  -6619297.92445  23230295.8914   23230302.2414
       218.0004        160.0004
  24347134.6094   -2872222.99649  -1242541.52345  24347133.6904   24347138.7204
       206.0004        137.0004
  20904582.7774   -2097143.12349  -1606449.90447  20904582.3894   20904584.0084
       238.0004        199.0004
  23054957.7954   -7992430.74849  -6184375.99445  23054956.3664   23054961.4534
       217.0004        162.0004
  24220625.2094   19909016.89049  15539568.22345  24220625.1104   24220632.1234
       211.0004        144.0004
  21909294.7064  -13788242.13049 -10718751.75047  21909294.2114   21909298.4114
       234.0004        191.0004
  24482042.6824   16002069.59649  12496334.47245  24482042.7544   24482046.4014
       208.0004        133.0004
  20241246.7294  -16235480.20449 -12605449.71047  20241246.6964   20241249.7174
       239.0004        208.0004
 06  8 30 19 54 30.0000000  0  8G 8G28G23G19G20G27G16G13
  23218187.4314   -8603234.88549  -6668883.65945  23218186.5544   23218192.7164
       217.0004        161.0004
  24328502.3084   -2970135.43549  -1318836.84745  24328501.5294   24328507.4464
       206.0004        138.0004
  20914052.1114   -2047381.60649  -1567674.72347  20914051.8134   20914053.2564
       238.0004        199.0004
  23043758.5544   -8051283.29749  -6230235.08146  23043757.3794   23043760.8264
       217.0004        163.0004
  24241126.2664   20016749.72349  15623515.75045  24241125.9084   24241132.3624
       212.0004        144.0004
  21903617.8574  -13818074.32749 -10741997.60747  21903617.7614   21903621.3794
       234.0004        191.0004
  24501656.0614   16105138.19249  12576647.61345  24501655.3874   24501661.0224
       207.0004        132.0004
  20238423.0554  -16250318.91249 -12617012.34147  20238423.2514   20238425.9704
       239.0004        208.0004
 06  8 30 19 55  0.0000000  0  8G 8G28G23G19G20G27G16G13
  23206095.9724   -8666775.46749  -6718395.78445  23206094.5454   23206100.9374
       218.0004        161.0004
  24309899.5504   -3067893.15449  -1395011.61845  24309898.8974   24309904.3174
       206.0004        138.0004
  20923602.1764   -1997195.90549  -1528569.00147  20923601.6124   20923603.3824
       238.0004        199.0004
  23032620.3054   -8109815.10649  -6275844.23346  23032619.1904   23032622.5624
       217.0004        163.0004
  24261623.6394   20124463.39849  15707448.32945  24261622.8384   24261630.2944
       209.0004        143.0004
  21897955.7184  -13847828.90349 -10765182.98447  21897955.4614   21897959.8034
       233.0004        191.0004
  24521283.5194   16208280.82249  12657018.43545  24521283.3694   24521287.4334
       207.0004        132.0004
  20235679.5274  -16264736.24849 -12628246.63247  20235679.7304   20235682.6204
       239.0004        208.0004
 06  8 30 19 55 30.0000000  0  8G 8G28G23G19G20G27G16G13
  23194022.5464   -8730222.04949  -6767834.65045  23194022.5024   23194028.5264
       218.0004        161.0004
  24291326.5554   -3165494.94749  -1471064.89045  24291326.0354   24291332.3854
       206.0004        137.0004
  20933232.8734   -1946586.38649  -1489133.04347  20933232.5654   20933234.1824
       236.0004        199.0004
  23021543.5614   -8168023.63149  -6321201.47646  23021542.0684   23021546.1134
       217.0004        163.0004
  24282116.8224   20232155.17449  15791363.85245  24282116.5314   24282124.2824
       210.0004        142.0004
  21892308.2264  -13877506.64249 -10788308.48647  21892308.1804   21892312.2164
       234.0004        191.0004
  24540924.5744   16311495.05749  12737445.07444  24540924.0924   24540929.5434
       208.0004        131.0004
  20233016.4754  -16278730.78749 -12639151.46947  20233016.5844   20233019.8104
       238.0004        208.0004
 06  8 30 19 56  0.0000000  0  8G 8G28G23G19G20G27G16G13
  23181967.2684   -8793573.53049  -6817199.42445  23181966.5884   23181972.5064
       219.0004        162.0004
  24272783.7624   -3262937.44949  -1546994.04345  24272783.6324   24272789.1424
       209.0004        137.0004
  20942944.3124   -1895552.23449  -1449366.20247  20942944.0124   20942945.4494
       237.0004        199.0004
  23010528.9914   -8225904.88149  -6366303.71046  23010527.6634   23010532.0464
       217.0004        163.0004
  24302605.4994   20339823.64549  15875261.20445  24302604.7374   24302612.9524
       210.0004        142.0004
  21886675.6214  -13907106.22549 -10811373.08847  21886675.2904   21886679.7054
       234.0004        191.0004
  24560579.0594   16414779.89849  12817926.70545  24560577.7364   24560584.4964
       208.0004        132.0004
  20230434.2914  -16292299.96249 -12649724.85547  20230434.5324   20230437.6064
       238.0004        208.0004
 06  8 30 19 56 30.0000000  0  8G 8G28G23G19G20G27G16G13
  23169929.9144   -8856830.45249  -6866490.50645  23169929.9214   23169934.8774
       218.0004        162.0004
  24254271.5764   -3360218.87549  -1622797.68045  24254270.3384   24254277.9594
       207.0004        138.0004
  20952736.5644   -1844093.73349  -1409268.70047  20952736.0134   20952738.0864
       236.0004        199.0004
  22999577.2364   -8283456.34049  -6411148.96146  22999576.4254   22999580.0974
       218.0004        165.0004
  24323089.2664   20447465.96449  15959138.17345  24323089.1064   24323096.0004
       211.0004        140.0004
  21881057.7234  -13936628.27649 -10834377.28147  21881057.5094   21881061.8864
       234.0004        192.0004
  24580246.4694   16518132.60949  12898461.23645  24580246.9694   24580249.2124
       206.0004        132.0004
  20227933.4104  -16305442.23949 -12659965.60147  20227933.3934   20227936.2934
       238.0004        207.0004
 06  8 30 19 57  0.0000000  0  8G 8G28G23G19G20G27G16G13
  23157910.4504   -8919993.12449  -6915708.14845  23157909.5634   23157915.7224
       219.0004        162.0004
  24235790.3354   -3457337.83949  -1698474.71945  24235790.2924   24235795.1574
       206.0004        139.0004
  20962609.4274   -1792211.43549  -1368840.96347  20962609.1984   20962611.0304
       237.0004        199.0004
  22988688.9744   -8340675.15149  -6455734.99746  22988688.2924   22988692.3684
       221.0004        166.0004
  24343567.5684   20555079.40949  16042992.65745  24343566.5504   24343574.9024
       208.0004        139.0004
  21875454.5414  -13966073.19449 -10857321.36547  21875454.2084   21875458.8844
       234.0004        192.0004
  24599926.3884   16621551.22449  12979047.12544  24599926.4554   24599930.8584
       207.0004        131.0004
  20225513.9484  -16318156.35649 -12669872.71147  20225513.9184   20225516.9174
       238.0004        207.0004
 06  8 30 19 57 30.0000000  0  8G 8G28G23G19G20G27G16G13
  23145908.7334   -8983061.95449  -6964852.66045  23145908.5414   23145914.2714
       218.0004        162.0004
  24217340.1984   -3554293.08749  -1774024.19845  24217340.0444   24217345.2184
       207.0004        139.0004
  20972562.9274   -1739905.83849  -1328083.38847  20972562.4874   20972564.5184
       237.0004        200.0004
  22977864.2894   -8397558.77849  -6500059.87046  22977862.6074   22977866.9374
       220.0004        167.0004
  24364039.8184   20662660.92949  16126822.25745  24364039.2274   24364045.5934
       207.0004        139.0004
  21869865.9514  -13995441.65449 -10880205.87147  21869865.5674   21869870.5144
       234.0004        192.0004
  24619618.3414   16725033.22049  13059682.39444  24619617.6334   24619625.7034
       204.0004        129.0004
  20223176.2464  -16330440.86249 -12679445.05647  20223176.3764   20223179.4064
       238.0004        207.0004
 06  8 30 19 58  0.0000000  0  8G 8G28G23G19G20G27G16G13
  23133925.2154   -9046035.93049  -7013923.25045  23133924.5174   23133929.9864
       219.0004        162.0004
  24198921.8054   -3651082.03649  -1849444.07945  24198921.6054   24198926.9864
       209.0004        139.0004
  20982597.0254   -1687176.51849  -1286995.63347  20982596.7514   20982598.1964
       238.0004        200.0004
  22967104.0794   -8454103.89349  -6544120.95846  22967102.9064   22967106.5794
       220.0004        167.0004
  24384505.5594   20770208.47649  16210625.37545  24384505.3984   24384512.3834
       208.0004        137.0004
  21864291.9904  -14024732.92949 -10903030.23747  21864291.8564   21864296.5434
       235.0004        193.0004
  24639322.1144   16828576.93249  13140365.76344  24639322.9024   24639326.5984
       203.0004        129.0004
  20220920.7764  -16342293.51449 -12688680.88747  20220920.9184   20220924.1944
       239.0004        207.0004
 06  8 30 19 58 30.0000000  0  8G 8G28G23G19G20G27G16G13
  23121959.3824   -9108916.51849  -7062921.08745  23121958.7514   23121964.9434
       218.0004        162.0004
  24180535.3114   -3747703.79649  -1924733.67945  24180534.7344   24180541.6204
       210.0004        140.0004
  20992711.5534   -1634024.56749  -1245578.56047  20992711.2984   20992712.8794
       238.0004        200.0004
  22956408.7764   -8510308.48649  -6587916.70246  22956408.6194   22956411.0754
       221.0004        167.0004
  24404964.3034   20877718.72749  16294399.43545  24404963.2064   24404971.6524
       208.0004        136.0004
  21858732.4024  -14053948.75849 -10925795.80947  21858731.8754   21858736.1924
       234.0004        193.0004
  24659037.0274   16932179.20749  13221094.73744  24659037.8534   24659041.4044
       204.0004        127.0004
  20218747.5684  -16353713.98349 -12697579.96147  20218747.9624   20218750.5784
       239.0004        208.0004
 06  8 30 19 59  0.0000000  0  8G 8G28G23G19G20G27G16G13
  23110011.3614   -9171703.53749  -7111845.99545  23110010.8224   23110016.7754
       219.0004        162.0004
  24162180.9224   -3844156.58849  -1999891.61545  24162179.6714   24162185.9994
       208.0004        141.0004
  21002906.4314   -1580450.14249  -1203832.28447  21002906.1914   21002908.1004
       237.0004        199.0004
  22945778.7844   -8566169.52849  -6631444.74446  22945778.1284   22945780.9814
       220.0004        167.0004
  24425415.4224   20985189.30849  16378142.58745  24425414.5974   24425423.4454
       208.0004        135.0004
  21853187.1984  -14083088.89149 -10948502.40447  21853187.0334   21853191.4084
       235.0004        193.0004
  24678762.7324   17035838.42349  13301868.12844  24678762.7584   24678767.6394
       198.0004        124.0004
  20216656.9574  -16364700.37649 -12706140.79147  20216657.1494   20216660.0164
       239.0004        208.0004
 06  8 30 19 59 30.0000000  0  8G 8G28G23G19G20G27G16G13
  23098081.0714   -9234397.15549  -7160698.13045  23098080.9414   23098086.1244
       218.0004        162.0004
  24143859.0454   -3940438.13649  -2074916.09445  24143857.1364   24143864.1694
       210.0004        142.0004
  21013181.7074   -1526453.45749  -1161756.97547  21013181.4874   21013183.0144
       237.0004        199.0004
  22935214.6104   -8621683.88449  -6674702.63746  22935213.5624   22935217.6534
       221.0004        167.0004
  24445858.5474   21092617.93549  16461853.04345  24445859.0044   24445865.6014
       207.0004        135.0004
  21847656.4504  -14112153.35549 -10971150.02447  21847656.1024   21847660.3834
       235.0004        193.0004
  24698498.8444   17139552.41149  13382684.18844  24698497.8864   24698502.3854
       197.0004        123.0004
  20214649.2764  -16375250.97949 -12714362.04447  20214649.5894   20214652.4784
       239.0004        208.0004
 06  8 30 20  0  0.0000000  0  8G 8G28G23G19G20G27G16G13
  23086168.5144   -9296997.76349  -7209477.80545  23086168.2684   23086173.2084
       219.0004        162.0004
  24125569.9064   -4036547.56749  -2149806.45945  24125569.4964   24125575.1324
       211.0004        142.0004
  21023537.2114   -1472035.29749  -1119353.24947  21023537.0384   21023538.5474
       238.0004        199.0004
  22924717.0444   -8676849.46749  -6717688.75446  22924716.3894   22924719.4874
       220.0004        168.0004
  24466293.0884   21200001.49549  16545528.37545  24466292.6784   24466300.8614
       208.0004        134.0004
  21842139.8644  -14141143.14749 -10993739.46947  21842139.5314   21842143.9744
       234.0004        193.0004
  24718245.0254   17243318.65049  13463540.92844  24718243.9864   24718248.0914
       195.0004        122.0004
  20212724.7384  -16385364.67349 -12722242.85047  20212725.1624   20212728.0254
       239.0004        208.0004
 06  8 30 20  0 30.0000000  0  8G 8G28G23G19G20G27G16G13
  23074273.6874   -9359505.56349  -7258185.13545  23074273.2834   23074278.7814
       217.0004        162.0004
  24107313.8724   -4132483.40049  -2224561.54545  24107312.9454   24107318.5774
       210.0004        141.0004
  21033972.8264   -1417195.90149  -1076621.28247  21033972.6644   21033974.0344
       237.0004        199.0004
  22914286.2564   -8731663.40049  -6760400.86346  22914285.2604   22914288.6014
       220.0004        168.0004
  24486718.4664   21307336.95449  16629166.24845  24486718.5284   24486723.9134
       206.0004        134.0004
  21836637.5194  -14170058.12049 -11016270.60847  21836637.1114   21836641.5594
       234.0004        193.0004
  24738000.5164   17347134.72648  13544436.50844  24737998.7204   24738004.8154
       194.0004        121.0004
  20210883.5204  -16395040.18949 -12729782.21347  20210883.5364   20210886.5294
       238.0004        208.0004
 06  8 30 20  1  0.0000000  0  8G 8G28G23G19G20G27G16G13
  23062396.4894   -9421920.09349  -7306819.80945  23062395.8964   23062402.6454
       220.0004        162.0004
  24089091.4364   -4228242.77349  -2299179.14145  24089090.2704   24089096.1304
       210.0004        141.0004
  21044488.5464   -1361935.46449  -1033561.23847  21044488.4844   21044489.9834
       237.0004        198.0004
  22903922.9754   -8786122.02349  -6802836.12146  22903922.6344   22903925.6424
       221.0004        168.0004
  24507134.3804   21414622.93949  16712765.53145  24507134.2444   24507141.8534
       204.0004        133.0004
  21831149.4934  -14198897.93149 -11038743.18647  21831149.2304   21831153.3574
       234.0004        193.0004
  24757765.2934   17450999.45849  13625370.02544  24757764.7264   24757767.7214
       195.0004        120.0004
  20209126.1634  -16404275.24949 -12736978.37247  20209126.3034   20209129.1774
       238.0004        208.0004
 06  8 30 20  1 30.0000000  0  7G 8G28G23G19G20G27G13
  23050537.8314   -9484237.83949  -7355379.06345  23050536.9454   23050543.2414
       219.0004        162.0004
  24070903.5624   -4323820.15649  -2373654.90445  24070903.4804   24070908.9834
       211.0004        140.0004
  21055085.2084   -1306249.82149   -990169.85547  21055084.7084   21055086.6714
       237.0004        198.0004
  22893628.6054   -8840219.21949  -6844989.71646  22893627.4914   22893631.3614
       219.0004        168.0004
  24527540.9824   21521860.60849  16796327.19445  24527540.7574   24527547.2624
       204.0004        132.0004
  21825676.3414  -14227659.41149 -11061154.71547  21825675.4694   21825680.4704
       234.0004        193.0004
  20207453.6194  -16413064.59649 -12743827.21347  20207453.5814   20207456.4654
       239.0004        208.0004
 06  8 30 20  2  0.0000000  0  7G 8G28G23G19G20G27G13
  23038696.7314   -9546463.04449  -7403866.20546  23038696.2524   23038701.2364
       219.0004        163.0004
  24052749.7174   -4419218.48249  -2447991.16345  24052748.7984   24052753.3244
       209.0004        140.0004
  21065761.8284   -1250143.93549   -946451.01547  21065761.4574   21065763.1394
       236.0004        197.0004
  22883402.7134   -8893956.38849  -6886862.78546  22883401.6914   22883405.2564
       220.0004        169.0004
  24547937.0384   21629042.72249  16879845.56344  24547935.6084   24547944.4034
       202.0004        131.0004
  21820217.2574  -14256346.89549 -11083508.59347  21820216.9684   21820221.6504
       233.0004        193.0004
  20205865.2414  -16421411.32949 -12750331.16447  20205865.3114   20205868.6104
       238.0004        208.0004
 06  8 30 20  2 30.0000000  0  7G 8G28G23G19G20G27G13
  23026872.7794   -9608598.48149  -7452283.39546  23026871.5394   23026877.5754
       219.0004        163.0004
  24034629.8624   -4514438.44449  -2522188.42945  24034629.3424   24034635.3904
       210.0004        140.0004
  21076517.7314   -1193621.26449   -902407.40547  21076517.3814   21076518.9364
       237.0004        197.0004
  22873245.3864   -8947333.34349  -6928455.18146  22873244.6024   22873248.4194
       219.0004        169.0004
  24568321.6674   21736164.30249  16963316.76944  24568320.4464   24568328.4874
       202.0004        131.0004
  21814771.7894  -14284962.92349 -11105806.78847  21814771.2984   21814776.0834
       233.0004        193.0004
  20204360.9274  -16429316.35349 -12756490.92647  20204361.1624   20204364.1174
       238.0004        208.0004
 06  8 30 20  3  0.0000000  0  7G 8G28G23G19G20G27G13
  23015065.7484   -9670644.53849  -7500630.93546  23015064.7524   23015070.7644
       218.0004        164.0004
  24016544.2434   -4609478.84249  -2596245.78845  24016544.3324   24016549.8714
       212.0004        140.0004
  21087352.9194   -1136682.09849   -858039.25147  21087352.6904   21087354.4464
       237.0004        196.0004
  22863156.9354   -9000347.74949  -6969765.06446  22863155.6874   22863159.4584
       218.0004        168.0004
  24588694.2024   21843222.59249  17046738.64444  24588695.9904   24588701.3964
       203.0004        129.0004
  21809339.8014  -14313508.00149 -11128049.69047  21809339.5384   21809344.3154
       234.0004        193.0004
  20202940.9504  -16436778.62449 -12762305.68547  20202941.2554   20202944.1364
       238.0004        208.0004
 06  8 30 20  3 30.0000000  0  7G 8G28G23G19G20G27G13
  23003276.2094   -9732598.68849  -7548906.86146  23003275.3244   23003281.6564
       219.0004        164.0004
  23998493.6274   -4704335.51649  -2670159.98545  23998492.6894   23998498.9554
       209.0004        139.0004
  21098267.6674   -1079324.73949   -813345.24547  21098267.2934   21098268.9894
       236.0004        196.0004
  22853138.5824   -9052994.18349  -7010788.23046  22853137.4024   22853141.5934
       217.0004        168.0004
  24609054.8164   21950217.50749  17130111.12544  24609053.7874   24609061.7764
       202.0004        128.0004
  21803921.7664  -14341980.01149 -11150235.66447  21803921.4194   21803926.4474
       234.0004        193.0004
  20201605.8974  -16443794.26849 -12767772.42447  20201606.0094   20201608.9714
       238.0004        207.0004
 06  8 30 20  4  0.0000000  0  7G 8G28G23G19G20G27G13
  22991504.4124   -9794460.11149  -7597110.52946  22991503.8534   22991508.8784
       221.0004        163.0004
  23980478.4874   -4799005.60849  -2743928.80445  23980477.6514   23980482.7224
       209.0004        140.0004
  21109262.1314   -1021548.18349   -768324.57847  21109261.7624   21109263.6344
       236.0004        196.0004
  22843190.8864   -9105269.26349  -7051522.00746  22843190.1094   22843194.0264
       217.0004        167.0004
  24629403.0604   22057147.62849  17213433.13844  24629404.2684   24629412.5204
       201.0004        119.0004
  21798517.7054  -14370378.34749 -11172364.23447  21798517.4504   21798521.7834
       234.0004        193.0004
  20200356.3084  -16450360.72949 -12772889.15247  20200356.3244   20200359.5674
       238.0004        208.0004
 06  8 30 20  4 30.0000000  0  7G 8G28G23G19G20G27G13
  22979749.9734   -9856230.09249  -7645242.95446  22979749.5604   22979755.0844
       220.0004        164.0004
  23962499.0244   -4893488.19949  -2817551.51745  23962497.7484   23962503.8874
       211.0004        141.0004
  21120336.1874    -963353.83049   -722978.36047  21120336.1264   21120337.8594
       237.0004        196.0004
  22833314.2884   -9157170.93849  -7091964.83246  22833313.2364   22833316.7654
       221.0004        168.0004
  24649738.3494   22164009.55149  17296702.00244  24649739.2514   24649746.6234
       203.0004        126.0004
  21793127.5734  -14398703.91549 -11194436.09547  21793127.4224   21793131.8584
       234.0004        194.0004
  20199192.3684  -16456477.34849 -12777655.35247  20199192.5604   20199195.5934
       238.0004        208.0004
 06  8 30 20  5  0.0000000  0  7G 8G28G23G19G20G27G13
  22968012.9054   -9917908.68549  -7693304.16546  22968012.2064   22968017.8484
       220.0004        164.0004
  23944555.4634   -4987782.01349  -2891027.13945  23944554.3604   23944558.4894
       211.0004        141.0004
  21131489.5594    -904742.73149   -677307.41047  21131489.4844   21131491.2224
       236.0004        196.0004
  22823509.2324   -9208696.73149  -7132114.75946  22823508.5544   22823512.5394
       220.0004        168.0004
  24670060.2024   22270800.87949  17379915.84444  24670059.3334   24670066.2754
       202.0004        125.0004
  21787751.2244  -14426956.77549 -11216451.30747  21787750.8844   21787755.7134
       234.0004        194.0004
  20198114.2394  -16462143.09649 -12782070.22647  20198114.5064   20198117.3474
       238.0004        208.0004
 06  8 30 20  5 30.0000000  0  7G 8G28G23G19G20G27G13
  22956292.9124   -9979496.54649  -7741294.68346  22956291.7304   22956298.1424
       218.0004        164.0004
  23926648.0844   -5081885.92149  -2964354.77845  23926647.6664   23926652.4304
       211.0004        142.0004
  21142722.1084    -845715.50249   -631312.19747  21142721.9584   21142723.4274
       236.0004        195.0004
  22813776.2044   -9259844.26149  -7171969.94146  22813775.8524   22813779.2574
       221.0004        168.0004
  24690368.0224   22377518.19949  17463072.05244  24690365.3264   24690374.6064
       201.0004        125.0004
  21782388.5364  -14455137.59949 -11238410.38047  21782388.3464   21782393.2004
       235.0004        194.0004
  20197122.0284  -16467357.26049 -12786133.21447  20197122.0434   20197125.1264
       239.0004        208.0004
 06  8 30 20  6  0.0000000  0  7G 8G28G23G19G20G27G13
  22944590.2774  -10040994.22349  -7789214.93346  22944589.9914   22944596.3364
       220.0004        164.0004
  23908777.0104   -5175798.77549  -3037533.55245  23908776.8884   23908782.0054
       211.0004        142.0004
  21154033.6084    -786273.16749   -584993.52947  21154033.6074   21154034.7144
       235.0004        195.0004
  22804115.4714   -9310611.67449  -7211528.93146  22804114.9804   22804118.2874
       219.0004        167.0004
  24710661.1654   22484158.42749  17546168.18044  24710663.5544   24710667.1954
       199.0004        124.0004
  21777039.4374  -14483247.35249 -11260314.07347  21777039.2094   21777044.1704
       235.0004        194.0004
  20196215.9144  -16472118.94949 -12789843.62447  20196216.1904   20196219.1824
       238.0004        208.0004
 06  8 30 20  6 30.0000000  0  7G 8G28G23G19G20G27G13
  22932905.4574  -10102399.08849  -7837062.85046  22932904.5014   22932910.7494
       222.0004        165.0004
  23890943.0814   -5269515.95149  -3110559.86145  23890942.1454   23890947.1684
       211.0004        143.0004
  21165424.4044    -726414.01349   -538350.06547  21165423.9524   21165425.9744
       236.0004        195.0004
  22794528.0284   -9360993.70949  -7250787.62246  22794527.1374   22794531.4674
       220.0004        167.0004
  24730939.7194   22590721.79849  17629204.41244  24730938.0984   24730946.8504
       199.0004        123.0004
  21771704.2904  -14511283.50849 -11282160.42147  21771703.6234   21771708.7924
       234.0004        194.0004
  20195396.6994  -16476424.08849 -12793198.28247  20195396.7084   20195399.9454
       238.0004        208.0004
 06  8 30 20  7  0.0000000  0  7G 8G28G23G19G20G27G13
  22921237.5274  -10163714.05449  -7884840.72746  22921236.4884   22921242.5814
       220.0004        165.0004
  23873146.1464   -5363039.05249  -3183434.93345  23873145.1464   23873150.2864
       211.0004        145.0004
  21176894.0824    -666140.83649   -491383.99447  21176893.8314   21176895.4144
       235.0004        194.0004
  22785013.8974   -9410990.52849  -7289746.14846  22785013.2844   22785016.6824
       219.0004        168.0004
  24751202.7324   22697203.27849  17712176.82744  24751200.6504   24751210.7904
       198.0004        122.0004
  21766382.6194  -14539248.97549 -11303951.69547  21766382.0674   21766387.0594
       234.0004        194.0004
  20194664.0464  -16480274.14149 -12796198.33147  20194664.4054   20194667.1534
       239.0004        208.0004
 06  8 30 20  7 30.0000000  0  6G 8G28G23G19G27G13
  22909586.9444  -10224938.00349  -7932547.67846  22909586.3434   22909591.5574
       221.0004        164.0004
  23855386.7664   -5456365.24749  -3256156.57545  23855385.7104   23855391.4204
       212.0004        146.0004
  21188442.4554    -605453.43249   -444095.13747  21188442.0774   21188443.9004
       234.0004        194.0004
  22775573.8764   -9460598.06349  -7328401.34746  22775572.7294   22775576.2084
       219.0004        167.0004
  21761074.6004  -14567142.57749 -11325686.95647  21761073.9124   21761079.2544
       234.0004        194.0004
  20194018.5424  -16483666.67049 -12798841.86247  20194018.6524   20194022.0034
       238.0004        208.0004
 06  8 30 20  8  0.0000000  0  6G 8G28G23G19G27G13
  22897953.9154  -10286069.81249  -7980182.81746  22897953.0474   22897958.9744
       222.0004        165.0004
  23837665.3804   -5549491.13049  -3328722.12545  23837664.0194   23837669.5814
       213.0004        147.0004
  21200069.9594    -544350.61949   -396482.59347  21200069.7974   21200071.7064
       234.0004        194.0004
  22766208.6074   -9509812.35549  -7366750.12346  22766208.1724   22766211.6074
       220.0004        168.0004
  21755780.5584  -14594963.03849 -11347365.23347  21755780.3574   21755785.0114
       234.0004        194.0004
  20193460.5554  -16486598.85849 -12801126.69047  20193460.5284   20193463.8714
       238.0004        208.0004
 06  8 30 20  8 30.0000000  0  6G 8G28G23G19G27G13
  22886337.9824  -10347112.05649  -8027748.17146  22886337.5284   22886342.9454
       222.0004        165.0004
  23819981.7944   -5642418.29649  -3401132.83745  23819981.1204   23819987.3034
       214.0004        148.0004
  21211775.8934    -482835.83949   -348549.04247  21211775.5234   21211777.4034
       234.0004        194.0004
  22756918.3604   -9558633.77249  -7404792.74846  22756917.5744   22756921.0444
       219.0004        168.0004
  21750499.8734  -14622713.33349 -11368988.83247  21750499.6624   21750504.2334
       235.0004        194.0004
  20192989.9374  -16489072.08049 -12803053.88347  20192990.3044   20192993.1164
       238.0004        208.0004
 06  8 30 20  9  0.0000000  0  6G 8G28G23G19G27G13
  22874739.0304  -10408065.08549  -8075244.01146  22874738.6184   22874743.3534
       223.0004        166.0004
  23802336.5744   -5735144.20549  -3473386.74345  23802335.6364   23802340.5834
       214.0004        148.0004
  21223560.1324    -420909.37249   -300294.68447  21223560.3954   21223561.5394
       234.0004        193.0004
  22747703.2224   -9607059.22249  -7442526.84646  22747702.2834   22747706.0014
       219.0004        168.0004
  21745232.5824  -14650393.16149 -11390557.51947  21745232.0394   21745237.0124
       235.0004        194.0004
  20192606.9034  -16491084.98249 -12804622.38447  20192607.1994   20192609.9254
       238.0004        207.0004
 06  8 30 20  9 30.0000000  0  6G 8G28G23G19G27G13
  22863157.1904  -10468928.23149  -8122669.80946  22863156.9164   22863162.3644
       223.0004        166.0004
  23784730.0094   -5827667.35449  -3545482.65845  23784730.0844   23784734.5544
       215.0004        148.0004
  21235422.6764    -358571.73849   -251719.94247  21235422.7034   21235424.2504
       234.0004        193.0004
  22738564.0544   -9655085.87749  -7479950.17846  22738563.0204   22738566.0034
       218.0004        167.0004
  21739978.7314  -14678002.30949 -11412071.13747  21739978.6864   21739982.9484
       235.0004        194.0004
  20192311.8134  -16492635.75049 -12805830.78547  20192311.9034   20192314.9054
       238.0004        207.0004
 06  8 30 20 10  0.0000000  0  6G 8G28G23G19G27G13
  22851592.5164  -10529701.45949  -8170025.53846  22851591.1334   22851597.8494
       224.0004        166.0004
  23767162.4054   -5919986.03849  -3617419.22545  23767161.8564   23767167.2164
       214.0004        148.0004
  21247363.3244    -295823.23149   -202825.04247  21247362.7474   21247364.7004
       234.0004        193.0004
  22729501.1884   -9702710.90949  -7517060.56946  22729499.9654   22729504.4274
       218.0004        167.0004
  21734738.2954  -14705540.78249 -11433529.68047  21734737.5944   21734742.7354
       234.0004        194.0004
  20192104.8844  -16493723.07649 -12806678.06047  20192104.9274   20192107.8914
       239.0004        207.0004
 06  8 30 20 10 30.0000000  0  6G 8G28G23G19G27G13
  22840044.8464  -10590384.58549  -8217311.05946  22840043.9074   22840050.0774
       222.0004        166.0004
  23749634.0244   -6012098.04849  -3689194.76545  23749633.1114   23749638.9664
       213.0004        148.0004
  21259382.0754    -232664.40349   -153610.41147  21259381.6364   21259383.9984
       234.0004        193.0004
  22720515.3064   -9749931.51849  -7553855.82846  22720515.0354   22720517.7524
       219.0004        168.0004
  21729511.3304  -14733008.69549 -11454933.24547  21729511.0734   21729515.6624
       234.0004        194.0004
  20191986.4864  -16494345.41449 -12807163.01047  20191986.8684   20191989.6794
       237.0004        207.0004
 06  8 30 20 11  0.0000000  0  6G 8G28G23G19G27G13
  22828513.9054  -10650979.74049  -8264528.04946  22828513.0494   22828518.4904
       225.0004        167.0004
  23732144.7934   -6104004.21149  -3760809.90445  23732143.8194   23732149.5774
       213.0004        148.0004
  21271478.3904    -169097.76849   -104078.00347  21271477.5734   21271479.4854
       233.0004        192.0004
  22711606.6314   -9796747.52249  -7590335.79646  22711605.4134   22711609.2324
       220.0004        169.0004
  21724297.4194  -14760407.84249 -11476283.22547  21724296.7824   21724302.0194
       234.0004        195.0004
  20191956.3794  -16494503.80649 -12807286.44047  20191956.7094   20191959.4564
       239.0004        207.0004
 06  8 30 20 11 30.0000000  0  6G 8G28G23G19G27G13
  22817000.2004  -10711484.62949  -8311674.69446  22816999.2204   22817005.0154
       222.0004        168.0004
  23714695.4964   -6195700.61649  -3832261.58445  23714694.5794   23714701.3814
       213.0004        148.0004
  21283652.6254    -105121.67149    -54226.53947  21283652.1744   21283654.5574
       233.0004        193.0004
  22702775.7514   -9843153.72149  -7626496.44746  22702774.5464   22702778.5994
       219.0004        169.0004
  21719097.0494  -14787735.84849 -11497577.76947  21719096.6124   21719101.2124
       235.0004        194.0004
  20192015.2694  -16494194.49649 -12807045.42547  20192015.5884   20192018.3394
       240.0004        208.0004
 06  8 30 20 12  0.0000000  0  6G 8G28G23G19G27G13
  22805503.6204  -10771900.01049  -8358751.58846  22805502.7794   22805508.3954
       221.0004        167.0004
  23697286.3484   -6287186.24949  -3903549.03645  23697285.5114   23697290.7434
       214.0004        148.0004
  21295904.5404     -40737.54249     -4057.12447  21295904.2424   21295906.3404
       234.0004        193.0004
  22694023.2904   -9889148.39849  -7662336.42146  22694022.2554   22694026.5304
       220.0004        169.0004
  21713910.1144  -14814993.52349 -11518817.51547  21713909.8734   21713914.4124
       235.0004        195.0004
  20192163.2664  -16493416.84149 -12806439.46447  20192163.5664   20192166.4524
       239.0004        208.0004
 06  8 30 20 12 30.0000000  0  6G 8G28G23G19G27G13
  22794023.7414  -10832226.31749  -8405759.08546  22794023.5764   22794028.4574
       221.0004        167.0004
  23679917.4704   -6378459.95949  -3974671.33445  23679917.2744   23679921.3864
       213.0004        147.0004
  21308233.9954      24053.60249     46429.44747  21308234.1664   21308235.8224
       234.0004        193.0004
  22685349.4384   -9934729.46449  -7697854.10946  22685348.4204   22685352.3384
       219.0004        170.0004
  21708736.3864  -14842181.58349 -11540003.00947  21708736.4154   21708741.0604
       236.0004        195.0004
  20192400.4654  -16492170.42849 -12805468.23447  20192400.5824   20192403.4864
       239.0004        208.0004
 06  8 30 20 13  0.0000000  0  6G 8G28G23G19G27G13
  22782561.1794  -10892462.05249  -8452695.99946  22782560.7114   22782565.9584
       221.0004        167.0004
  23662589.5644   -6469518.34849  -4045625.86645  23662589.2704   23662594.3164
       212.0004        147.0004
  21320641.0154      89252.58849     97233.81247  21320640.5384   21320642.5974
       233.0004        193.0004
  22676755.1374   -9979892.71749  -7733046.22846  22676754.3004   22676758.3124
       220.0004        170.0004
  21703576.3144  -14869298.44249 -11561133.02847  21703576.3574   21703580.8414
       236.0004        196.0004
  20192727.4234  -16490452.24649 -12804129.39947  20192727.5364   20192730.4184
       240.0004        208.0004
 06  8 30 20 13 30.0000000  0  6G 8G28G23G19G27G13
  22771115.4564  -10952609.56649  -8499564.16946  22771114.1864   22771120.8494
       221.0004        167.0004
  23645302.3564   -6560362.66649  -4116413.58345  23645301.1094   23645307.3564
       213.0004        148.0004
  21333124.9014     154856.03749    148353.34547  21333124.7054   21333126.6834
       234.0004        193.0004
  22668240.3944  -10024638.42649  -7767912.98646  22668239.6244   22668242.7524
       220.0004        170.0004
  21698429.2874  -14896346.42749 -11582209.37647  21698428.8604   21698433.6344
       236.0004        196.0004
  20193143.9284  -16488263.63849 -12802423.99547  20193144.1274   20193146.9354
       240.0004        208.0004
 06  8 30 20 14  0.0000000  0  6G 8G28G23G19G27G13
  22759686.6724  -11012668.25549  -8546363.12746  22759686.5474   22759691.4574
       223.0004        168.0004
  23628056.3944   -6650990.46749  -4187032.58045  23628056.3574   23628061.7314
       215.0004        149.0004
  21345686.0324     220864.49649    199788.46547  21345686.0094   21345687.3794
       234.0004        193.0004
  22659805.6814  -10068962.82549  -7802451.45746  22659804.6644   22659808.3224
       220.0004        170.0004
  21693295.5064  -14923324.62149 -11603231.34247  21693295.0644   21693299.8194
       236.0004        196.0004
  20193650.3294  -16485602.48049 -12800350.37047  20193650.7174   20193653.5154
       240.0004        208.0004
 06  8 30 20 14 30.0000000  0  6G 8G28G23G19G27G13
  22748274.8754  -11072637.80149  -8593092.61346  22748273.8384   22748279.1884
       222.0004        168.0004
  23610852.0634   -6741399.57749  -4257481.18145  23610851.7774   23610856.5514
       215.0004        150.0004
  21358323.9394     287277.32849    251538.68647  21358323.5804   21358325.9674
       234.0004        193.0004
  22651451.6554  -10112863.38649  -7836659.66846  22651450.7974   22651453.9504
       219.0004        171.0004
  21688175.1014  -14950232.77649 -11624198.72447  21688174.8194   21688179.3394
       237.0004        196.0004
  20194246.9324  -16482467.21549 -12797907.31647  20194246.9744   20194250.0104
       240.0004        208.0004
 06  8 30 20 15  0.0000000  0  6G 8G28G23G19G27G13
  22736879.7384  -11132519.60849  -8639753.73046  22736880.0754   22736883.9704
       223.0004        168.0004
  23593689.4694   -6831589.82849  -4327759.23445  23593689.7984   23593693.6364
       216.0004        150.0004
  21371038.4344     354092.40549    303602.34647  21371038.0484   21371040.3084
       233.0004        193.0004
  22643178.4864  -10156339.14949  -7870536.85346  22643177.0954   22643181.3924
       220.0004        171.0004
  21683067.7794  -14977072.06349 -11645112.44947  21683067.4654   21683071.8574
       237.0004        196.0004
  20194933.6554  -16478858.36649 -12795095.23147  20194933.7384   20194936.7484
       240.0004        208.0004
 06  8 30 20 15 30.0000000  0  6G 8G28G23G19G27G13
  22725501.5784  -11192312.12949  -8686345.28146  22725501.0034   22725506.1894
       224.0004        168.0004
  23576568.9004   -6921558.68149  -4397864.77645  23576568.6214   23576572.8974
       216.0004        150.0004
  21383829.6554     421310.48849    355980.03247  21383829.1734   21383831.3774
       233.0004        193.0004
  22634986.9254  -10199385.91449  -7904079.76146  22634985.8354   22634989.8294
       221.0004        171.0004
  21677973.7444  -15003841.56049 -11665971.79447  21677973.4814   21677978.2254
       236.0004        196.0004
  20195710.9784  -16474773.35249 -12791912.11347  20195711.0704   20195714.2534
       240.0004        208.0004
 06  8 30 20 16  0.0000000  0  6G 8G28G23G19G27G13
  22714140.2184  -11252016.34949  -8732868.02746  22714140.0084   22714145.4674
       224.0004        168.0004
  23559490.6004   -7011305.27849  -4467797.14445  23559490.4944   23559495.8604
       215.0004        150.0004
  21396697.1584     488929.79249    408670.36147  21396696.8054   21396699.0214
       233.0004        192.0004
  22626877.1984  -10242002.56349  -7937287.50846  22626876.4194   22626880.0444
       220.0004        172.0004
  21672892.7384  -15030542.09949 -11686777.39447  21672892.4494   21672896.9294
       236.0004        196.0004
  20196578.9654  -16470211.85249 -12788357.70147  20196579.1794   20196582.0944
       240.0004        208.0004
 06  8 30 20 16 30.0000000  0  6G 8G28G23G19G27G13
  22702795.9004  -11311631.52249  -8779321.37746  22702795.4724   22702800.5764
       223.0004        169.0004
  23542455.1434   -7100827.26049  -4537554.48145  23542454.4284   23542459.0514
       215.0004        150.0004
  21409641.1364     556950.28949    461673.29947  21409640.9444   21409643.2314
       233.0004        192.0004
  22618849.9984  -10284185.86749  -7970157.59046  22618849.6264   22618853.0224
       220.0004        172.0004
  21667825.1034  -15057172.26849 -11707528.17247  21667824.7574   21667829.1984
       236.0004        195.0004
  20197538.0604  -16465172.03649 -12784430.58747  20197538.2154   20197541.1244
       240.0004        208.0004
 06  8 30 20 17  0.0000000  0  6G 8G28G23G19G27G13
  22691468.1624  -11371158.94949  -8825706.34846  22691466.8244   22691472.3064
       223.0004        168.0004
  23525462.5724   -7190124.14449  -4607136.42145  23525462.8814   23525466.3164
       216.0004        151.0004
  21422660.9504     625370.01749    514987.33247  21422660.7214   21422662.7064
       233.0004        192.0004
  22610905.5394  -10325934.37749  -8002688.86846  22610904.8564   22610908.6044
       221.0004        172.0004
  21662770.5374  -15083733.83849 -11728225.49847  21662770.3464   21662775.0854
       236.0004        195.0004
  20198588.0684  -16459654.10749 -12780130.91247  20198588.2084   20198591.0234
       240.0004        208.0004
 06  8 30 20 17 30.0000000  0  6G 8G28G23G19G27G13
  22680157.1224  -11430598.00949  -8872022.45546  22680156.8244   22680162.0274
       223.0004        168.0004
  23508513.0894   -7279194.04849  -4676541.47545  23508512.0764   23508517.0634
       216.0004        152.0004
  21435756.8134     694189.07749    568612.53447  21435756.5854   21435758.6244
       233.0004        192.0004
  22603044.2724  -10367245.11549  -8034879.02946  22603043.1594   22603047.2124
       221.0004        173.0004
  21657729.1964  -15110226.01249 -11748868.74647  21657728.9164   21657733.7234
       235.0004        195.0004
  20199729.4844  -16453656.06449 -12775457.11847  20199729.5784   20199732.6174
       240.0004        207.0004
 06  8 30 20 18  0.0000000  0  6G 8G28G23G19G27G13
  22668862.9014  -11489949.26149  -8918270.16346  22668862.2034   22668867.4434
       222.0004        169.0004
  23491606.8384   -7368036.40849  -4745769.22245  23491605.3404   23491611.1614
       216.0004        152.0004
  21448928.3734     763405.75049    622547.56547  21448927.8164   21448930.1434
       232.0004        191.0004
  22595266.8554  -10408116.18249  -8066726.58346  22595266.3334   22595269.9504
       221.0004        173.0004
  21652701.1104  -15136648.74649 -11769457.88747  21652700.9174   21652705.3984
       236.0004        195.0004
  20200962.2814  -16447177.71649 -12770409.06247  20200962.2054   20200965.4234
       240.0004        207.0004
 06  8 30 20 18 30.0000000  0  6G 8G28G23G19G27G13
  22657585.2284  -11549214.00749  -8964450.44846  22657584.5214   22657590.3804
       223.0004        169.0004
  23474744.1214   -7456650.16249  -4814818.85645  23474743.3634   23474748.0824
       217.0004        153.0004
  21462175.0414     833017.48549    676790.43747  21462174.6264   21462176.5954
       232.0004        191.0004
  22587572.9894  -10448547.22149  -8098231.26346  22587571.9194   22587576.0164
       221.0004        173.0004
  21647685.8644  -15163003.93249 -11789994.38947  21647685.5094   21647690.3694
       236.0004        196.0004
  20202286.3144  -16440219.81949 -12764987.33147  20202286.3884   20202289.4904
       240.0004        207.0004
 06  8 30 20 19  0.0000000  0  6G 8G28G23G19G27G13
  22646324.4324  -11608390.28249  -9010561.79746  22646324.1664   22646329.0224
       223.0004        170.0004
  23457925.4664   -7545032.54449  -4883688.17545  23457925.1864   23457929.0814
       215.0004        154.0004
  21475497.1644     903025.69449    731342.24347  21475497.0134   21475499.0414
       232.0004        191.0004
  22579963.7294  -10488533.66149  -8129389.50246  22579963.3374   22579966.8794
       222.0004        173.0004
  21642683.8774  -15189289.56849 -11810476.70247  21642683.4124   21642688.5184
       236.0004        196.0004
  20203702.2274  -16432778.98349 -12759189.28747  20203702.3084   20203705.7064
       239.0004        207.0004
 06  8 30 20 19 30.0000000  0  6G 8G28G23G19G27G13
  22635080.2304  -11667478.80449  -9056604.79146  22635079.9704   22635084.2884
       224.0004        170.0004
  23441151.0424   -7633182.71849  -4952376.55745  23441150.8994   23441155.7444
       217.0004        154.0004
  21488894.5854     973429.07049    786201.97947  21488894.1084   21488896.9004
       232.0004        191.0004
  22572439.5874  -10528073.64349  -8160199.84946  22572438.4264   22572442.5124
       222.0004        173.0004
  21637695.0454  -15215506.19049 -11830905.23847  21637694.6864   21637699.7074
       235.0004        196.0004
  20205210.1964  -16424854.58149 -12753014.43947  20205210.3244   20205213.4334
       239.0004        207.0004
 06  8 30 20 20  0.0000000  0  6G 8G28G23G19G27G13
  22623852.9614  -11726478.20049  -9102578.32546  22623852.9534   22623857.6854
       225.0004        171.0004
  23424421.3364   -7721097.66249  -5020881.64845  23424421.0714   23424426.2704
       217.0004        155.0004
  21502367.0754    1044227.81749    841369.79647  21502366.8714   21502369.2834
       232.0004        190.0004
  22565000.9464  -10567163.54449  -8190659.49846  22564999.9764   22565003.4984
       221.0004        173.0004
  21632719.6094  -15241652.27749 -11851278.81247  21632719.4804   21632724.1114
       236.0004        196.0004
  20206810.5744  -16416444.58849 -12746461.20747  20206810.7364   20206813.8044
       239.0004        207.0004
 06  8 30 20 20 30.0000000  0  6G 8G28G23G19G27G13
  22612642.3974  -11785390.15949  -9148483.73146  22612642.5434   22612647.0494
       225.0004        172.0004
  23407736.2414   -7808777.75949  -5089203.74145  23407735.4624   23407740.2994
       218.0004        156.0004
  21515914.4024    1115419.12849    896843.50147  21515914.1934   21515916.1804
       232.0004        190.0004
  22557648.1514  -10605802.82649  -8220768.00646  22557647.0264   22557651.0294
       221.0004        173.0004
  21627757.3554  -15267729.45049 -11871598.68547  21627757.4354   21627761.5204
       236.0004        196.0004
  20208503.2334  -16407549.63449 -12739530.08347  20208503.4844   20208506.4294
       240.0004        207.0004
 06  8 30 20 21  0.0000000  0  6G 8G28G23G19G27G13
  22601448.5264  -11844214.82349  -9194321.10146  22601448.4434   22601454.0834
       226.0004        173.0004
  23391096.1514   -7896221.65449  -5157341.77845  23391094.9724   23391100.9564
       215.0004        156.0004
  21529536.2514    1187002.28449    952622.54947  21529535.8034   21529537.9474
       232.0004        190.0004
  22550381.4584  -10643989.71349  -8250523.99446  22550380.0574   22550383.6944
       221.0004        173.0004
  21622808.1544  -15293737.77249 -11891864.90447  21622807.8324   21622812.3244
       235.0004        197.0004
  20210288.3234  -16398168.97549 -12732220.48547  20210288.7184   20210291.7104
       238.0004        207.0004
 06  8 30 20 21 30.0000000  0  7G 8G28G23G19G10G27G13
  22590271.3464  -11902951.77549  -9240090.14646  22590270.8614   22590276.0664
       226.0004        173.0004
  23374501.2644   -7983427.61249  -5225294.42645  23374501.1604   23374506.8254
       216.0004        156.0004
  21543232.5674    1258976.80749   1008706.55447  21543231.9714   21543234.6304
       231.0004        190.0004
  22543201.2514  -10681721.42349  -8279925.30246  22543200.9274   22543203.5614
       221.0004        173.0004
                   -839269.82059   -615670.68443
       204.0004         74.0004
  21617872.0984  -15319676.82849 -11912077.15847  21617871.8394   21617876.4604
       236.0004        196.0004
  20212166.0424  -16388301.63849 -12724531.66147  20212166.2884   20212169.4214
       238.0004        207.0004
 06  8 30 20 22  0.0000000  0  6G 8G28G23G19G27G13
  22579110.6364  -11961601.44849  -9285791.16546  22579110.1574   22579115.6704
       225.0004        173.0004
  23357952.0264   -8070394.37149  -5293060.67045  23357950.6374   23357957.1114
       219.0004        156.0004
  21557002.9664    1331340.88849   1065094.11047  21557003.0274   21557004.6794
       232.0004        189.0004
  22536108.2174  -10718995.97749  -8308970.38446  22536107.7474   22536111.2084
       221.0004        173.0004
  21612949.2364  -15345546.76949 -11932235.55147  21612948.7974   21612953.7674
       236.0004        197.0004
  20214136.5334  -16377946.59449 -12716462.80447  20214136.7044   20214139.7684
       238.0004        208.0004
 06  8 30 20 22 30.0000000  0  7G 8G28G23G19G10G27G13
  22567966.6984  -12020162.87549  -9331423.43246  22567965.9724   22567971.5964
       226.0004        173.0004
  23341448.7584   -8157119.81749  -5360638.88545  23341448.0224   23341453.6494
       218.0004        157.0004
  21570847.6404    1404094.83349   1121785.45547  21570847.8034   21570849.6604
       233.0004        190.0004
  22529102.5584  -10755810.31349  -8337656.85246  22529100.9684   22529105.5454
       220.0004        173.0004
                   -962234.58549   -711484.77643
       204.0004         74.0004
  21608039.6314  -15371346.82649 -11952339.48647  21608039.0064   21608044.0094
       235.0004        196.0004
  20216200.1064  -16367102.70649 -12708013.03247  20216200.2364   20216203.2224
       239.0004        208.0004
